Darstellungsparameter: Aktuell verwendete Einstellungen:
Skalierung der Graphiken ... ?
xyx+y,   Skalierungsfaktor:      Skalierung: Modus: x, Faktor: 1
Darstellungszeitraum ... ?
Vom - - bis: - -   Zeitraum: 04.08.2014 - 03.09.2014
Min/Max/Avg-Anzeige ... ?
Zeige MMA aktuell
Zeige MMA Monat
Zeige MMA alles
Zeige --A aktuell
Zeige --A Monat
Zeige --A alles
Keine MMA-Anzeige
MMA:
Keine MMA-Graphiken
MMA-Basis: 04.08.2014 - 03.09.2014
Quicknavigation für Darstellung... ?
Tage:      1T, 2T, 3T, 5T -1T -2T -3T -5T +1T +2T +3T +5T
Wochen: 1W, 2W, 3W -1W -2W -3W +1W +2W +3W
Monate: 1M, 3M, 6M -1M -3M -6M +1M +3M +6M
Jahre:    1J, 3J, 5J, 10J -1J -3J -5J -10J +1J +3J +5J +10J
Nutze für die Darstellung ... ?
Originaldaten oder Mittelwerte auf ...
Stundenbasis Tagesbasis Wochenbasis
Monatsbasis Jahresbasis      Datenbasis: Original-Daten
Darstellen als:
Statistik (Auto) Statistik J:M      Darstellung:
Zur Graphik,    zurück zur Übersicht aller Sensoren.
 
Tabellarische Datenbersicht: ?
 
Sensor: Nr:Datum:Temp:Feuchte:Taupunkt:
Aussen-T/F 1 04-08-2014 00:00:00 19.1 C 88 % 17.07 C
2 04-08-2014 00:05:00 19.1 C 88 % 17.07 C
3 04-08-2014 00:10:00 19.1 C 87 % 16.89 C
4 04-08-2014 00:15:00 19.1 C 87 % 16.89 C
5 04-08-2014 00:20:00 19.1 C 87 % 16.89 C
6 04-08-2014 00:25:00 19 C 88 % 16.97 C
7 04-08-2014 00:30:00 18.9 C 88 % 16.87 C
8 04-08-2014 00:35:00 18.8 C 88 % 16.77 C
9 04-08-2014 00:40:00 18.8 C 89 % 16.95 C
10 04-08-2014 00:45:00 18.7 C 88 % 16.67 C
11 04-08-2014 00:50:00 18.7 C 88 % 16.67 C
12 04-08-2014 00:55:00 18.8 C 86 % 16.41 C
13 04-08-2014 01:00:00 18.9 C 85 % 16.32 C
14 04-08-2014 01:05:00 19.1 C 84 % 16.33 C
15 04-08-2014 01:10:00 19.2 C 84 % 16.43 C
16 04-08-2014 01:15:00 19.2 C 84 % 16.43 C
17 04-08-2014 01:20:00 19.2 C 85 % 16.62 C
18 04-08-2014 01:25:00 19.1 C 86 % 16.7 C
19 04-08-2014 01:30:00 18.8 C 86 % 16.41 C
20 04-08-2014 01:35:00 18.4 C 87 % 16.2 C
21 04-08-2014 01:40:00 18.2 C 89 % 16.36 C
22 04-08-2014 01:45:00 18.1 C 90 % 16.43 C
23 04-08-2014 01:50:00 17.9 C 90 % 16.24 C
24 04-08-2014 01:55:00 17.8 C 91 % 16.31 C
25 04-08-2014 02:00:00 17.7 C 91 % 16.21 C
Sensor: Nr:Datum:Temp:Feuchte:Taupunkt:
Aussen-T/F 26 04-08-2014 02:05:00 17.6 C 91 % 16.11 C
27 04-08-2014 02:10:00 17.6 C 92 % 16.28 C
28 04-08-2014 02:15:00 17.6 C 92 % 16.28 C
29 04-08-2014 02:20:00 17.6 C 92 % 16.28 C
30 04-08-2014 02:25:00 17.6 C 92 % 16.28 C
31 04-08-2014 02:30:00 17.6 C 92 % 16.28 C
32 04-08-2014 02:35:00 17.6 C 92 % 16.28 C
33 04-08-2014 02:40:00 17.6 C 92 % 16.28 C
34 04-08-2014 02:45:00 17.6 C 92 % 16.28 C
35 04-08-2014 02:50:00 17.6 C 93 % 16.45 C
36 04-08-2014 02:55:00 17.6 C 93 % 16.45 C
37 04-08-2014 03:00:00 17.6 C 93 % 16.45 C
38 04-08-2014 03:05:00 17.5 C 93 % 16.36 C
39 04-08-2014 03:10:00 17.4 C 93 % 16.26 C
40 04-08-2014 03:15:00 17.3 C 93 % 16.16 C
41 04-08-2014 03:20:00 17.2 C 93 % 16.06 C
42 04-08-2014 03:25:00 17.2 C 92 % 15.89 C
43 04-08-2014 03:30:00 17.1 C 93 % 15.96 C
44 04-08-2014 03:35:00 17 C 93 % 15.86 C
45 04-08-2014 03:40:00 16.9 C 93 % 15.76 C
46 04-08-2014 03:45:00 16.9 C 93 % 15.76 C
47 04-08-2014 03:50:00 16.9 C 94 % 15.93 C
48 04-08-2014 03:55:00 16.9 C 94 % 15.93 C
49 04-08-2014 04:00:00 16.8 C 94 % 15.83 C
50 04-08-2014 04:05:00 16.8 C 94 % 15.83 C
Sensor: Nr:Datum:Temp:Feuchte:Taupunkt:
Aussen-T/F 51 04-08-2014 04:10:00 16.7 C 94 % 15.73 C
52 04-08-2014 04:15:00 16.6 C 94 % 15.63 C
53 04-08-2014 04:20:00 16.6 C 94 % 15.63 C
54 04-08-2014 04:25:00 16.5 C 94 % 15.53 C
55 04-08-2014 04:30:00 16.4 C 94 % 15.43 C
56 04-08-2014 04:35:00 16.4 C 94 % 15.43 C
57 04-08-2014 04:40:00 16.4 C 95 % 15.6 C
58 04-08-2014 04:45:00 16.4 C 95 % 15.6 C
59 04-08-2014 04:50:00 16.4 C 95 % 15.6 C
60 04-08-2014 04:55:00 16.5 C 95 % 15.7 C
61 04-08-2014 05:00:00 16.5 C 95 % 15.7 C
62 04-08-2014 05:05:00 16.6 C 95 % 15.8 C
63 04-08-2014 05:10:00 16.6 C 95 % 15.8 C
64 04-08-2014 05:15:00 16.6 C 95 % 15.8 C
65 04-08-2014 05:20:00 16.7 C 95 % 15.9 C
66 04-08-2014 05:25:00 16.7 C 95 % 15.9 C
67 04-08-2014 05:30:00 16.8 C 95 % 15.99 C
68 04-08-2014 05:35:00 16.8 C 94 % 15.83 C
69 04-08-2014 05:40:00 16.8 C 94 % 15.83 C
70 04-08-2014 05:45:00 16.8 C 94 % 15.83 C
71 04-08-2014 05:50:00 16.8 C 94 % 15.83 C
72 04-08-2014 05:55:00 16.8 C 94 % 15.83 C
73 04-08-2014 06:00:00 16.8 C 94 % 15.83 C
74 04-08-2014 06:05:00 16.8 C 94 % 15.83 C
75 04-08-2014 06:10:00 16.8 C 94 % 15.83 C
Sensor: Nr:Datum:Temp:Feuchte:Taupunkt:
Aussen-T/F 76 04-08-2014 06:15:00 16.9 C 94 % 15.93 C
77 04-08-2014 06:20:00 16.9 C 94 % 15.93 C
78 04-08-2014 06:25:00 16.9 C 94 % 15.93 C
79 04-08-2014 06:30:00 16.9 C 94 % 15.93 C
80 04-08-2014 06:35:00 16.9 C 94 % 15.93 C
81 04-08-2014 06:40:00 16.9 C 94 % 15.93 C
82 04-08-2014 06:45:00 16.9 C 94 % 15.93 C
83 04-08-2014 06:50:00 16.9 C 94 % 15.93 C
84 04-08-2014 06:55:00 16.9 C 94 % 15.93 C
85 04-08-2014 07:00:00 16.9 C 94 % 15.93 C
86 04-08-2014 07:05:00 17 C 94 % 16.03 C
87 04-08-2014 07:10:00 17.1 C 94 % 16.13 C
88 04-08-2014 07:15:00 17.1 C 94 % 16.13 C
89 04-08-2014 07:20:00 17.2 C 94 % 16.23 C
90 04-08-2014 07:25:00 17.2 C 94 % 16.23 C
91 04-08-2014 07:30:00 17.2 C 94 % 16.23 C
92 04-08-2014 07:35:00 17.2 C 94 % 16.23 C
93 04-08-2014 07:40:00 17.2 C 94 % 16.23 C
94 04-08-2014 07:45:00 17.3 C 93 % 16.16 C
95 04-08-2014 07:50:00 17.4 C 93 % 16.26 C
96 04-08-2014 07:55:00 17.5 C 93 % 16.36 C
97 04-08-2014 08:00:00 17.6 C 93 % 16.45 C
98 04-08-2014 08:05:00 17.6 C 93 % 16.45 C
99 04-08-2014 08:10:00 17.7 C 93 % 16.55 C
100 04-08-2014 08:15:00 17.7 C 93 % 16.55 C
Sensor: Nr:Datum:Temp:Feuchte:Taupunkt:
Aussen-T/F 101 04-08-2014 08:20:00 17.8 C 92 % 16.48 C
102 04-08-2014 08:25:00 17.9 C 91 % 16.41 C
103 04-08-2014 08:30:00 18 C 91 % 16.51 C
104 04-08-2014 08:35:00 18.2 C 91 % 16.71 C
105 04-08-2014 08:40:00 18.3 C 90 % 16.63 C
106 04-08-2014 08:45:00 18.4 C 90 % 16.73 C
107 04-08-2014 08:50:00 18.6 C 89 % 16.75 C
108 04-08-2014 08:55:00 18.7 C 87 % 16.49 C
109 04-08-2014 09:00:00 18.8 C 85 % 16.23 C
110 04-08-2014 09:05:00 19 C 86 % 16.6 C
111 04-08-2014 09:10:00 19.2 C 83 % 16.24 C
112 04-08-2014 09:15:00 19.4 C 83 % 16.44 C
113 04-08-2014 09:20:00 19.7 C 82 % 16.54 C
114 04-08-2014 09:25:00 19.8 C 81 % 16.45 C
115 04-08-2014 09:30:00 19.8 C 80 % 16.25 C
116 04-08-2014 09:35:00 19.9 C 80 % 16.35 C
117 04-08-2014 09:40:00 19.9 C 81 % 16.54 C
118 04-08-2014 09:45:00 20.1 C 81 % 16.74 C
119 04-08-2014 09:50:00 20.2 C 80 % 16.64 C
120 04-08-2014 09:55:00 20.3 C 80 % 16.74 C
121 04-08-2014 10:00:00 20.4 C 79 % 16.64 C
122 04-08-2014 10:05:00 20.4 C 80 % 16.83 C
123 04-08-2014 10:10:00 20.4 C 79 % 16.64 C
124 04-08-2014 10:15:00 20.4 C 80 % 16.83 C
125 04-08-2014 10:20:00 20.5 C 80 % 16.93 C
Sensor: Nr:Datum:Temp:Feuchte:Taupunkt:
Aussen-T/F 126 04-08-2014 10:25:00 20.6 C 79 % 16.83 C
127 04-08-2014 10:30:00 20.7 C 79 % 16.93 C
128 04-08-2014 10:35:00 20.7 C 79 % 16.93 C
129 04-08-2014 10:40:00 20.8 C 79 % 17.02 C
130 04-08-2014 10:45:00 20.9 C 79 % 17.12 C
131 04-08-2014 10:50:00 21.2 C 76 % 16.8 C
132 04-08-2014 10:55:00 21.2 C 77 % 17.01 C
133 04-08-2014 11:00:00 21.3 C 77 % 17.1 C
134 04-08-2014 11:05:00 21.5 C 77 % 17.3 C
135 04-08-2014 11:10:00 21.7 C 75 % 17.07 C
136 04-08-2014 11:15:00 21.9 C 73 % 16.84 C
137 04-08-2014 11:20:00 22.1 C 72 % 16.82 C
138 04-08-2014 11:25:00 22.1 C 73 % 17.03 C
139 04-08-2014 11:30:00 22.1 C 73 % 17.03 C
140 04-08-2014 11:35:00 22.2 C 72 % 16.91 C
141 04-08-2014 11:40:00 22.2 C 73 % 17.13 C
142 04-08-2014 11:45:00 22.2 C 75 % 17.56 C
143 04-08-2014 11:50:00 22.4 C 74 % 17.54 C
144 04-08-2014 11:55:00 22.6 C 73 % 17.51 C
145 04-08-2014 12:00:00 22.9 C 73 % 17.8 C
146 04-08-2014 12:05:00 23 C 72 % 17.68 C
147 04-08-2014 12:10:00 22.8 C 71 % 17.27 C
148 04-08-2014 12:15:00 22.7 C 71 % 17.17 C
149 04-08-2014 12:20:00 22.7 C 68 % 16.49 C
150 04-08-2014 12:25:00 22.8 C 73 % 17.71 C
Sensor: Nr:Datum:Temp:Feuchte:Taupunkt:
Aussen-T/F 151 04-08-2014 12:30:00 23.3 C 70 % 17.52 C
152 04-08-2014 12:35:00 23.7 C 73 % 18.57 C
153 04-08-2014 12:40:00 23.9 C 70 % 18.09 C
154 04-08-2014 12:45:00 23.9 C 66 % 17.16 C
155 04-08-2014 12:50:00 23.6 C 67 % 17.11 C
156 04-08-2014 12:55:00 23.3 C 69 % 17.29 C
157 04-08-2014 13:00:00 23.1 C 70 % 17.33 C
158 04-08-2014 13:05:00 23 C 70 % 17.23 C
159 04-08-2014 13:10:00 23 C 72 % 17.68 C
160 04-08-2014 13:15:00 22.9 C 73 % 17.8 C
161 04-08-2014 13:20:00 22.8 C 69 % 16.82 C
162 04-08-2014 13:25:00 22.8 C 71 % 17.27 C
163 04-08-2014 13:30:00 22.9 C 74 % 18.02 C
164 04-08-2014 13:35:00 22.9 C 71 % 17.36 C
165 04-08-2014 13:40:00 23.1 C 74 % 18.21 C
166 04-08-2014 13:45:00 23.1 C 73 % 17.99 C
167 04-08-2014 13:50:00 23 C 71 % 17.46 C
168 04-08-2014 13:55:00 22.9 C 69 % 16.91 C
169 04-08-2014 14:00:00 22.9 C 75 % 18.23 C
170 04-08-2014 14:05:00 22.7 C 77 % 18.46 C
171 04-08-2014 14:10:00 22.4 C 75 % 17.75 C
172 04-08-2014 14:15:00 22.2 C 74 % 17.34 C
173 04-08-2014 14:20:00 22.1 C 77 % 17.88 C
174 04-08-2014 14:25:00 21.8 C 79 % 18 C
175 04-08-2014 14:30:00 21.3 C 81 % 17.91 C
Sensor: Nr:Datum:Temp:Feuchte:Taupunkt:
Aussen-T/F 176 04-08-2014 14:35:00 20.9 C 84 % 18.09 C
177 04-08-2014 14:40:00 20.5 C 88 % 18.44 C
178 04-08-2014 14:45:00 20.3 C 89 % 18.43 C
179 04-08-2014 14:50:00 20.6 C 91 % 19.08 C
180 04-08-2014 14:55:00 20.8 C 88 % 18.74 C
181 04-08-2014 15:00:00 21.2 C 87 % 18.95 C
182 04-08-2014 15:05:00 21.6 C 85 % 18.97 C
183 04-08-2014 15:10:00 22 C 87 % 19.74 C
184 04-08-2014 15:15:00 22.2 C 78 % 18.18 C
185 04-08-2014 15:20:00 22.6 C 77 % 18.36 C
186 04-08-2014 15:25:00 22.9 C 81 % 19.46 C
187 04-08-2014 15:30:00 23.1 C 76 % 18.64 C
188 04-08-2014 15:35:00 23.1 C 78 % 19.05 C
189 04-08-2014 15:40:00 23 C 77 % 18.75 C
190 04-08-2014 15:45:00 22.9 C 80 % 19.26 C
191 04-08-2014 15:50:00 22.8 C 79 % 18.97 C
192 04-08-2014 15:55:00 22.8 C 78 % 18.76 C
193 04-08-2014 16:00:00 22.8 C 76 % 18.35 C
194 04-08-2014 16:05:00 23 C 76 % 18.54 C
195 04-08-2014 16:10:00 23.3 C 73 % 18.19 C
196 04-08-2014 16:15:00 23.4 C 74 % 18.5 C
197 04-08-2014 16:20:00 23.6 C 74 % 18.69 C
198 04-08-2014 16:25:00 23.9 C 73 % 18.76 C
199 04-08-2014 16:30:00 24.1 C 70 % 18.29 C
200 04-08-2014 16:35:00 23.7 C 68 % 17.44 C
Sensor: Nr:Datum:Temp:Feuchte:Taupunkt:
Aussen-T/F 201 04-08-2014 16:40:00 23.1 C 71 % 17.55 C
202 04-08-2014 16:45:00 22.5 C 71 % 16.98 C
203 04-08-2014 16:50:00 21.8 C 65 % 14.93 C
204 04-08-2014 16:55:00 21.2 C 67 % 14.83 C
205 04-08-2014 17:00:00 20.8 C 66 % 14.22 C
206 04-08-2014 17:05:00 20.4 C 67 % 14.07 C
207 04-08-2014 17:10:00 20.3 C 68 % 14.2 C
208 04-08-2014 17:15:00 19.9 C 73 % 14.92 C
209 04-08-2014 17:20:00 19.4 C 78 % 15.47 C
210 04-08-2014 17:25:00 18.8 C 84 % 16.04 C
211 04-08-2014 17:30:00 18.1 C 86 % 15.72 C
212 04-08-2014 17:35:00 17.8 C 90 % 16.14 C
213 04-08-2014 17:40:00 17.6 C 90 % 15.94 C
214 04-08-2014 17:45:00 17.3 C 91 % 15.82 C
215 04-08-2014 17:50:00 17.2 C 92 % 15.89 C
216 04-08-2014 17:55:00 17 C 92 % 15.69 C
217 04-08-2014 18:00:00 17 C 93 % 15.86 C
218 04-08-2014 18:05:00 17.1 C 94 % 16.13 C
219 04-08-2014 18:10:00 17.2 C 94 % 16.23 C
220 04-08-2014 18:15:00 17.2 C 93 % 16.06 C
221 04-08-2014 18:20:00 17.2 C 94 % 16.23 C
222 04-08-2014 18:25:00 17.3 C 94 % 16.33 C
223 04-08-2014 18:30:00 17.6 C 94 % 16.62 C
224 04-08-2014 18:35:00 17.9 C 94 % 16.92 C
225 04-08-2014 18:40:00 18.4 C 93 % 17.25 C
Sensor: Nr:Datum:Temp:Feuchte:Taupunkt:
Aussen-T/F 226 04-08-2014 18:45:00 19.1 C 90 % 17.42 C
227 04-08-2014 18:50:00 19.6 C 87 % 17.38 C
228 04-08-2014 18:55:00 19.7 C 84 % 16.92 C
229 04-08-2014 19:00:00 19.7 C 85 % 17.11 C
230 04-08-2014 19:05:00 19.3 C 86 % 16.9 C
231 04-08-2014 19:10:00 19.1 C 86 % 16.7 C
232 04-08-2014 19:15:00 18.9 C 87 % 16.69 C
233 04-08-2014 19:20:00 18.7 C 87 % 16.49 C
234 04-08-2014 19:25:00 18.4 C 88 % 16.38 C
235 04-08-2014 19:30:00 18.3 C 88 % 16.28 C
236 04-08-2014 19:35:00 18.2 C 89 % 16.36 C
237 04-08-2014 19:40:00 18.1 C 89 % 16.26 C
238 04-08-2014 19:45:00 18 C 90 % 16.34 C
239 04-08-2014 19:50:00 17.9 C 90 % 16.24 C
240 04-08-2014 19:55:00 17.8 C 91 % 16.31 C
241 04-08-2014 20:00:00 17.7 C 91 % 16.21 C
242 04-08-2014 20:05:00 17.7 C 92 % 16.38 C
243 04-08-2014 20:10:00 17.6 C 92 % 16.28 C
244 04-08-2014 20:15:00 17.5 C 93 % 16.36 C
245 04-08-2014 20:20:00 17.4 C 93 % 16.26 C
246 04-08-2014 20:25:00 17.4 C 93 % 16.26 C
247 04-08-2014 20:30:00 17.3 C 93 % 16.16 C
248 04-08-2014 20:35:00 17.2 C 94 % 16.23 C
249 04-08-2014 20:40:00 17.2 C 94 % 16.23 C
250 04-08-2014 20:45:00 17.2 C 94 % 16.23 C
Sensor: Nr:Datum:Temp:Feuchte:Taupunkt:
Aussen-T/F 251 04-08-2014 20:50:00 17.2 C 94 % 16.23 C
252 04-08-2014 20:55:00 17.1 C 94 % 16.13 C
253 04-08-2014 21:00:00 17.1 C 95 % 16.29 C
254 04-08-2014 21:05:00 17.1 C 95 % 16.29 C
255 04-08-2014 21:10:00 17 C 95 % 16.19 C
256 04-08-2014 21:15:00 16.9 C 95 % 16.09 C
257 04-08-2014 21:20:00 16.8 C 95 % 15.99 C
258 04-08-2014 21:25:00 16.8 C 95 % 15.99 C
259 04-08-2014 21:30:00 16.8 C 95 % 15.99 C
260 04-08-2014 21:35:00 16.8 C 95 % 15.99 C
261 04-08-2014 21:40:00 16.8 C 95 % 15.99 C
262 04-08-2014 21:45:00 16.8 C 95 % 15.99 C
263 04-08-2014 21:50:00 16.7 C 95 % 15.9 C
264 04-08-2014 21:55:00 16.7 C 95 % 15.9 C
265 04-08-2014 22:00:00 16.7 C 95 % 15.9 C
266 04-08-2014 22:05:00 16.7 C 95 % 15.9 C
267 04-08-2014 22:10:00 16.6 C 95 % 15.8 C
268 04-08-2014 22:15:00 16.6 C 95 % 15.8 C
269 04-08-2014 22:20:00 16.6 C 96 % 15.96 C
270 04-08-2014 22:25:00 16.6 C 96 % 15.96 C
271 04-08-2014 22:30:00 16.7 C 96 % 16.06 C
272 04-08-2014 22:35:00 16.7 C 96 % 16.06 C
273 04-08-2014 22:40:00 16.7 C 96 % 16.06 C
274 04-08-2014 22:45:00 16.7 C 96 % 16.06 C
275 04-08-2014 22:50:00 16.7 C 96 % 16.06 C
Sensor: Nr:Datum:Temp:Feuchte:Taupunkt:
Aussen-T/F 276 04-08-2014 22:55:00 16.7 C 96 % 16.06 C
277 04-08-2014 23:00:00 16.7 C 96 % 16.06 C
278 04-08-2014 23:05:00 16.7 C 96 % 16.06 C
279 04-08-2014 23:10:00 16.7 C 96 % 16.06 C
280 04-08-2014 23:15:00 16.7 C 96 % 16.06 C
281 04-08-2014 23:20:00 16.7 C 96 % 16.06 C
282 04-08-2014 23:25:00 16.7 C 96 % 16.06 C
283 04-08-2014 23:30:00 16.7 C 96 % 16.06 C
284 04-08-2014 23:35:00 16.6 C 96 % 15.96 C
285 04-08-2014 23:40:00 16.6 C 96 % 15.96 C
286 04-08-2014 23:45:00 16.5 C 96 % 15.86 C
287 04-08-2014 23:50:00 16.5 C 96 % 15.86 C
288 04-08-2014 23:55:00 16.4 C 96 % 15.76 C
289 05-08-2014 00:00:00 16.4 C 96 % 15.76 C
290 05-08-2014 00:05:00 16.4 C 96 % 15.76 C
291 05-08-2014 00:10:00 16.4 C 96 % 15.76 C
292 05-08-2014 00:15:00 16.3 C 96 % 15.66 C
293 05-08-2014 00:20:00 16.3 C 96 % 15.66 C
294 05-08-2014 00:25:00 16.2 C 96 % 15.56 C
295 05-08-2014 00:30:00 16.2 C 96 % 15.56 C
296 05-08-2014 00:35:00 16.1 C 96 % 15.46 C
297 05-08-2014 00:40:00 16.1 C 96 % 15.46 C
298 05-08-2014 00:45:00 15.9 C 96 % 15.26 C
299 05-08-2014 00:50:00 15.9 C 96 % 15.26 C
300 05-08-2014 00:55:00 15.8 C 96 % 15.16 C
Sensor: Nr:Datum:Temp:Feuchte:Taupunkt:
Aussen-T/F 301 05-08-2014 01:00:00 15.8 C 96 % 15.16 C
302 05-08-2014 01:05:00 15.8 C 96 % 15.16 C
303 05-08-2014 01:10:00 15.8 C 96 % 15.16 C
304 05-08-2014 01:15:00 15.8 C 96 % 15.16 C
305 05-08-2014 01:20:00 15.8 C 96 % 15.16 C
306 05-08-2014 01:25:00 15.9 C 97 % 15.42 C
307 05-08-2014 01:30:00 16 C 97 % 15.52 C
308 05-08-2014 01:35:00 15.9 C 97 % 15.42 C
309 05-08-2014 01:40:00 15.9 C 97 % 15.42 C
310 05-08-2014 01:45:00 15.9 C 97 % 15.42 C
311 05-08-2014 01:50:00 15.9 C 97 % 15.42 C
312 05-08-2014 01:55:00 15.9 C 96 % 15.26 C
313 05-08-2014 02:00:00 15.8 C 96 % 15.16 C
314 05-08-2014 02:05:00 15.8 C 96 % 15.16 C
315 05-08-2014 02:10:00 15.7 C 96 % 15.06 C
316 05-08-2014 02:15:00 15.7 C 96 % 15.06 C
317 05-08-2014 02:20:00 15.6 C 96 % 14.96 C
318 05-08-2014 02:25:00 15.6 C 96 % 14.96 C
319 05-08-2014 02:30:00 15.4 C 96 % 14.77 C
320 05-08-2014 02:35:00 15.4 C 96 % 14.77 C
321 05-08-2014 02:40:00 15.4 C 96 % 14.77 C
322 05-08-2014 02:45:00 15.5 C 96 % 14.86 C
323 05-08-2014 02:50:00 15.5 C 97 % 15.03 C
324 05-08-2014 02:55:00 15.6 C 97 % 15.13 C
325 05-08-2014 03:00:00 15.6 C 97 % 15.13 C
Sensor: Nr:Datum:Temp:Feuchte:Taupunkt:
Aussen-T/F 326 05-08-2014 03:05:00 15.7 C 97 % 15.23 C
327 05-08-2014 03:10:00 15.7 C 97 % 15.23 C
328 05-08-2014 03:15:00 15.7 C 97 % 15.23 C
329 05-08-2014 03:20:00 15.7 C 97 % 15.23 C
330 05-08-2014 03:25:00 15.6 C 96 % 14.96 C
331 05-08-2014 03:30:00 15.5 C 96 % 14.86 C
332 05-08-2014 03:35:00 15.5 C 96 % 14.86 C
333 05-08-2014 03:40:00 15.4 C 96 % 14.77 C
334 05-08-2014 03:45:00 15.4 C 96 % 14.77 C
335 05-08-2014 03:50:00 15.4 C 96 % 14.77 C
336 05-08-2014 03:55:00 15.4 C 96 % 14.77 C
337 05-08-2014 04:00:00 15.4 C 97 % 14.93 C
338 05-08-2014 04:05:00 15.5 C 97 % 15.03 C
339 05-08-2014 04:10:00 15.6 C 97 % 15.13 C
340 05-08-2014 04:15:00 15.6 C 97 % 15.13 C
341 05-08-2014 04:20:00 15.7 C 97 % 15.23 C
342 05-08-2014 04:25:00 15.7 C 97 % 15.23 C
343 05-08-2014 04:30:00 15.7 C 97 % 15.23 C
344 05-08-2014 04:35:00 15.7 C 97 % 15.23 C
345 05-08-2014 04:40:00 15.8 C 97 % 15.32 C
346 05-08-2014 04:45:00 15.8 C 97 % 15.32 C
347 05-08-2014 04:50:00 15.8 C 97 % 15.32 C
348 05-08-2014 04:55:00 15.8 C 97 % 15.32 C
349 05-08-2014 05:00:00 15.8 C 97 % 15.32 C
350 05-08-2014 05:05:00 15.8 C 97 % 15.32 C
Sensor: Nr:Datum:Temp:Feuchte:Taupunkt:
Aussen-T/F 351 05-08-2014 05:10:00 15.8 C 97 % 15.32 C
352 05-08-2014 05:15:00 15.8 C 97 % 15.32 C
353 05-08-2014 05:20:00 15.9 C 97 % 15.42 C
354 05-08-2014 05:25:00 15.9 C 97 % 15.42 C
355 05-08-2014 05:30:00 15.9 C 97 % 15.42 C
356 05-08-2014 05:35:00 15.9 C 97 % 15.42 C
357 05-08-2014 05:40:00 15.9 C 97 % 15.42 C
358 05-08-2014 05:45:00 15.9 C 97 % 15.42 C
359 05-08-2014 05:50:00 15.8 C 97 % 15.32 C
360 05-08-2014 05:55:00 15.8 C 96 % 15.16 C
361 05-08-2014 06:00:00 15.8 C 96 % 15.16 C
362 05-08-2014 06:05:00 15.8 C 96 % 15.16 C
363 05-08-2014 06:10:00 15.7 C 96 % 15.06 C
364 05-08-2014 06:15:00 15.7 C 96 % 15.06 C
365 05-08-2014 06:20:00 15.6 C 96 % 14.96 C
366 05-08-2014 06:25:00 15.6 C 96 % 14.96 C
367 05-08-2014 06:30:00 15.6 C 96 % 14.96 C
368 05-08-2014 06:35:00 15.5 C 96 % 14.86 C
369 05-08-2014 06:40:00 15.4 C 96 % 14.77 C
370 05-08-2014 06:45:00 15.4 C 96 % 14.77 C
371 05-08-2014 06:50:00 15.4 C 96 % 14.77 C
372 05-08-2014 06:55:00 15.4 C 96 % 14.77 C
373 05-08-2014 07:00:00 15.4 C 96 % 14.77 C
374 05-08-2014 07:05:00 15.4 C 96 % 14.77 C
375 05-08-2014 07:10:00 15.4 C 96 % 14.77 C
Sensor: Nr:Datum:Temp:Feuchte:Taupunkt:
Aussen-T/F 376 05-08-2014 07:15:00 15.4 C 96 % 14.77 C
377 05-08-2014 07:20:00 15.5 C 96 % 14.86 C
378 05-08-2014 07:25:00 15.6 C 96 % 14.96 C
379 05-08-2014 07:30:00 15.7 C 96 % 15.06 C
380 05-08-2014 07:35:00 15.8 C 96 % 15.16 C
381 05-08-2014 07:40:00 15.8 C 96 % 15.16 C
382 05-08-2014 07:45:00 15.8 C 96 % 15.16 C
383 05-08-2014 07:50:00 15.9 C 96 % 15.26 C
384 05-08-2014 07:55:00 16 C 95 % 15.2 C
385 05-08-2014 08:00:00 16 C 95 % 15.2 C
386 05-08-2014 08:05:00 16.1 C 94 % 15.13 C
387 05-08-2014 08:10:00 16.2 C 93 % 15.07 C
388 05-08-2014 08:15:00 16.4 C 93 % 15.27 C
389 05-08-2014 08:20:00 16.6 C 93 % 15.46 C
390 05-08-2014 08:25:00 16.6 C 91 % 15.13 C
391 05-08-2014 08:30:00 16.7 C 91 % 15.22 C
392 05-08-2014 08:35:00 16.9 C 91 % 15.42 C
393 05-08-2014 08:40:00 16.9 C 90 % 15.25 C
394 05-08-2014 08:45:00 17 C 90 % 15.35 C
395 05-08-2014 08:50:00 17.1 C 90 % 15.45 C
396 05-08-2014 08:55:00 17.2 C 89 % 15.37 C
397 05-08-2014 09:00:00 17.2 C 88 % 15.2 C
398 05-08-2014 09:05:00 17.3 C 89 % 15.47 C
399 05-08-2014 09:10:00 17.4 C 88 % 15.39 C
400 05-08-2014 09:15:00 17.4 C 87 % 15.21 C
Sensor: Nr:Datum:Temp:Feuchte:Taupunkt:
Aussen-T/F 401 05-08-2014 09:20:00 17.6 C 88 % 15.59 C
402 05-08-2014 09:25:00 17.7 C 88 % 15.69 C
403 05-08-2014 09:30:00 17.8 C 87 % 15.61 C
404 05-08-2014 09:35:00 17.8 C 87 % 15.61 C
405 05-08-2014 09:40:00 17.9 C 86 % 15.53 C
406 05-08-2014 09:45:00 18.1 C 86 % 15.72 C
407 05-08-2014 09:50:00 18.3 C 87 % 16.1 C
408 05-08-2014 09:55:00 18.4 C 85 % 15.83 C
409 05-08-2014 10:00:00 18.4 C 85 % 15.83 C
410 05-08-2014 10:05:00 18.3 C 85 % 15.74 C
411 05-08-2014 10:10:00 18.4 C 86 % 16.02 C
412 05-08-2014 10:15:00 18.5 C 85 % 15.93 C
413 05-08-2014 10:20:00 18.6 C 85 % 16.03 C
414 05-08-2014 10:25:00 18.8 C 82 % 15.66 C
415 05-08-2014 10:30:00 19 C 84 % 16.24 C
416 05-08-2014 10:35:00 19.2 C 81 % 15.86 C
417 05-08-2014 10:40:00 19.3 C 80 % 15.76 C
418 05-08-2014 10:45:00 19.4 C 78 % 15.47 C
419 05-08-2014 10:50:00 19.4 C 79 % 15.66 C
420 05-08-2014 10:55:00 19.6 C 79 % 15.86 C
421 05-08-2014 11:00:00 19.7 C 77 % 15.56 C
422 05-08-2014 11:05:00 19.7 C 78 % 15.76 C
423 05-08-2014 11:10:00 19.7 C 79 % 15.96 C
424 05-08-2014 11:15:00 19.8 C 80 % 16.25 C
425 05-08-2014 11:20:00 20.1 C 79 % 16.34 C
Sensor: Nr:Datum:Temp:Feuchte:Taupunkt:
Aussen-T/F 426 05-08-2014 11:25:00 20.3 C 79 % 16.54 C
427 05-08-2014 11:30:00 20.3 C 75 % 15.72 C
428 05-08-2014 11:35:00 20.2 C 75 % 15.63 C
429 05-08-2014 11:40:00 20 C 77 % 15.85 C
430 05-08-2014 11:45:00 20.2 C 77 % 16.04 C
431 05-08-2014 11:50:00 20.5 C 80 % 16.93 C
432 05-08-2014 11:55:00 20.7 C 74 % 15.9 C
433 05-08-2014 12:00:00 20.8 C 75 % 16.21 C
434 05-08-2014 12:05:00 21 C 71 % 15.54 C
435 05-08-2014 12:10:00 21.1 C 73 % 16.07 C
436 05-08-2014 12:15:00 21.2 C 71 % 15.73 C
437 05-08-2014 12:20:00 21.2 C 74 % 16.38 C
438 05-08-2014 12:25:00 21.2 C 72 % 15.95 C
439 05-08-2014 12:30:00 21.4 C 74 % 16.57 C
440 05-08-2014 12:35:00 21.7 C 70 % 15.99 C
441 05-08-2014 12:40:00 21.9 C 68 % 15.73 C
442 05-08-2014 12:45:00 21.9 C 67 % 15.5 C
443 05-08-2014 12:50:00 21.8 C 68 % 15.63 C
444 05-08-2014 12:55:00 21.8 C 70 % 16.09 C
445 05-08-2014 13:00:00 21.9 C 67 % 15.5 C
446 05-08-2014 13:05:00 21.9 C 65 % 15.02 C
447 05-08-2014 13:10:00 21.9 C 63 % 14.54 C
448 05-08-2014 13:15:00 21.8 C 66 % 15.17 C
449 05-08-2014 13:20:00 21.9 C 64 % 14.78 C
450 05-08-2014 13:25:00 22.3 C 62 % 14.67 C
Sensor: Nr:Datum:Temp:Feuchte:Taupunkt:
Aussen-T/F 451 05-08-2014 13:30:00 22.6 C 67 % 16.16 C
452 05-08-2014 13:35:00 22.7 C 62 % 15.05 C
453 05-08-2014 13:40:00 22.8 C 63 % 15.39 C
454 05-08-2014 13:45:00 23.1 C 63 % 15.67 C
455 05-08-2014 13:50:00 23.1 C 60 % 14.91 C
456 05-08-2014 13:55:00 22.9 C 60 % 14.73 C
457 05-08-2014 14:00:00 22.8 C 61 % 14.89 C
458 05-08-2014 14:05:00 22.6 C 57 % 13.65 C
459 05-08-2014 14:10:00 22.3 C 60 % 14.16 C
460 05-08-2014 14:15:00 22.2 C 69 % 16.24 C
461 05-08-2014 14:20:00 21.8 C 74 % 16.96 C
462 05-08-2014 14:25:00 21.6 C 76 % 17.19 C
463 05-08-2014 14:30:00 21.5 C 69 % 15.57 C
464 05-08-2014 14:35:00 21.6 C 65 % 14.74 C
465 05-08-2014 14:40:00 21.9 C 64 % 14.78 C
466 05-08-2014 14:45:00 22.2 C 71 % 16.69 C
467 05-08-2014 14:50:00 22.1 C 63 % 14.73 C
468 05-08-2014 14:55:00 22.1 C 64 % 14.97 C
469 05-08-2014 15:00:00 22.1 C 63 % 14.73 C
470 05-08-2014 15:05:00 22.1 C 64 % 14.97 C
471 05-08-2014 15:10:00 22 C 66 % 15.36 C
472 05-08-2014 15:15:00 22 C 65 % 15.12 C
473 05-08-2014 15:20:00 21.9 C 76 % 17.48 C
474 05-08-2014 15:25:00 21.7 C 76 % 17.28 C
475 05-08-2014 15:30:00 21.6 C 69 % 15.67 C
Sensor: Nr:Datum:Temp:Feuchte:Taupunkt:
Aussen-T/F 476 05-08-2014 15:35:00 21.7 C 69 % 15.77 C
477 05-08-2014 15:40:00 21.8 C 75 % 17.17 C
478 05-08-2014 15:45:00 21.7 C 71 % 16.21 C
479 05-08-2014 15:50:00 21.8 C 73 % 16.75 C
480 05-08-2014 15:55:00 21.8 C 71 % 16.31 C
481 05-08-2014 16:00:00 21.8 C 73 % 16.75 C
482 05-08-2014 16:05:00 21.8 C 67 % 15.4 C
483 05-08-2014 16:10:00 21.9 C 66 % 15.26 C
484 05-08-2014 16:15:00 22 C 65 % 15.12 C
485 05-08-2014 16:20:00 22.2 C 68 % 16.01 C
486 05-08-2014 16:25:00 22.3 C 66 % 15.64 C
487 05-08-2014 16:30:00 22.6 C 64 % 15.45 C
488 05-08-2014 16:35:00 23.1 C 63 % 15.67 C
489 05-08-2014 16:40:00 23.4 C 64 % 16.2 C
490 05-08-2014 16:45:00 23.8 C 59 % 15.31 C
491 05-08-2014 16:50:00 24.1 C 59 % 15.59 C
492 05-08-2014 16:55:00 24.2 C 58 % 15.42 C
493 05-08-2014 17:00:00 24.3 C 58 % 15.51 C
494 05-08-2014 17:05:00 24.4 C 53 % 14.2 C
495 05-08-2014 17:10:00 24.4 C 56 % 15.06 C
496 05-08-2014 17:15:00 24.7 C 56 % 15.33 C
497 05-08-2014 17:20:00 24.8 C 53 % 14.57 C
498 05-08-2014 17:25:00 24.6 C 55 % 14.96 C
499 05-08-2014 17:30:00 24.3 C 54 % 14.4 C
500 05-08-2014 17:35:00 24.1 C 60 % 15.85 C
Sensor: Nr:Datum:Temp:Feuchte:Taupunkt:
Aussen-T/F 501 05-08-2014 17:40:00 23.7 C 65 % 16.73 C
502 05-08-2014 17:45:00 23.2 C 71 % 17.65 C
503 05-08-2014 17:50:00 23.1 C 67 % 16.64 C
504 05-08-2014 17:55:00 23.5 C 55 % 13.94 C
505 05-08-2014 18:00:00 23.9 C 65 % 16.92 C
506 05-08-2014 18:05:00 24.4 C 54 % 14.49 C
507 05-08-2014 18:10:00 24.6 C 49 % 13.18 C
508 05-08-2014 18:15:00 24.8 C 48 % 13.05 C
509 05-08-2014 18:20:00 24.8 C 49 % 13.36 C
510 05-08-2014 18:25:00 24.7 C 47 % 12.64 C
511 05-08-2014 18:30:00 24.7 C 50 % 13.58 C
512 05-08-2014 18:35:00 24.6 C 51 % 13.79 C
513 05-08-2014 18:40:00 24.3 C 52 % 13.82 C
514 05-08-2014 18:45:00 24.2 C 51 % 13.43 C
515 05-08-2014 18:50:00 24 C 53 % 13.83 C
516 05-08-2014 18:55:00 23.8 C 61 % 15.83 C
517 05-08-2014 19:00:00 23.2 C 63 % 15.77 C
518 05-08-2014 19:05:00 22.4 C 66 % 15.74 C
519 05-08-2014 19:10:00 21.7 C 68 % 15.54 C
520 05-08-2014 19:15:00 21.2 C 73 % 16.17 C
521 05-08-2014 19:20:00 20.9 C 74 % 16.09 C
522 05-08-2014 19:25:00 20.8 C 75 % 16.21 C
523 05-08-2014 19:30:00 20.8 C 75 % 16.21 C
524 05-08-2014 19:35:00 20.8 C 75 % 16.21 C
525 05-08-2014 19:40:00 20.8 C 77 % 16.62 C
Sensor: Nr:Datum:Temp:Feuchte:Taupunkt:
Aussen-T/F 526 05-08-2014 19:45:00 20.8 C 75 % 16.21 C
527 05-08-2014 19:50:00 20.8 C 77 % 16.62 C
528 05-08-2014 19:55:00 20.7 C 78 % 16.73 C
529 05-08-2014 20:00:00 20.7 C 78 % 16.73 C
530 05-08-2014 20:05:00 20.6 C 79 % 16.83 C
531 05-08-2014 20:10:00 20.5 C 77 % 16.33 C
532 05-08-2014 20:15:00 20.4 C 79 % 16.64 C
533 05-08-2014 20:20:00 20.2 C 80 % 16.64 C
534 05-08-2014 20:25:00 20.1 C 79 % 16.34 C
535 05-08-2014 20:30:00 19.8 C 80 % 16.25 C
536 05-08-2014 20:35:00 19.7 C 81 % 16.35 C
537 05-08-2014 20:40:00 19.4 C 82 % 16.25 C
538 05-08-2014 20:45:00 19.3 C 83 % 16.34 C
539 05-08-2014 20:50:00 19.1 C 83 % 16.15 C
540 05-08-2014 20:55:00 18.9 C 84 % 16.14 C
541 05-08-2014 21:00:00 18.8 C 83 % 15.85 C
542 05-08-2014 21:05:00 18.7 C 84 % 15.94 C
543 05-08-2014 21:10:00 18.5 C 84 % 15.75 C
544 05-08-2014 21:15:00 18.4 C 84 % 15.65 C
545 05-08-2014 21:20:00 18.2 C 84 % 15.45 C
546 05-08-2014 21:25:00 18.1 C 84 % 15.35 C
547 05-08-2014 21:30:00 18 C 84 % 15.26 C
548 05-08-2014 21:35:00 17.8 C 84 % 15.06 C
549 05-08-2014 21:40:00 17.7 C 85 % 15.15 C
550 05-08-2014 21:45:00 17.6 C 85 % 15.05 C
Sensor: Nr:Datum:Temp:Feuchte:Taupunkt:
Aussen-T/F 551 05-08-2014 21:50:00 17.5 C 85 % 14.95 C
552 05-08-2014 21:55:00 17.4 C 86 % 15.03 C
553 05-08-2014 22:00:00 17.4 C 85 % 14.85 C
554 05-08-2014 22:05:00 17.3 C 86 % 14.94 C
555 05-08-2014 22:10:00 17.3 C 86 % 14.94 C
556 05-08-2014 22:15:00 17.2 C 87 % 15.02 C
557 05-08-2014 22:20:00 17.1 C 87 % 14.92 C
558 05-08-2014 22:25:00 16.9 C 87 % 14.72 C
559 05-08-2014 22:30:00 16.8 C 88 % 14.8 C
560 05-08-2014 22:35:00 16.8 C 88 % 14.8 C
561 05-08-2014 22:40:00 16.7 C 87 % 14.53 C
562 05-08-2014 22:45:00 16.6 C 87 % 14.43 C
563 05-08-2014 22:50:00 16.6 C 87 % 14.43 C
564 05-08-2014 22:55:00 16.4 C 88 % 14.41 C
565 05-08-2014 23:00:00 16.3 C 88 % 14.31 C
566 05-08-2014 23:05:00 16.3 C 88 % 14.31 C
567 05-08-2014 23:10:00 16.2 C 88 % 14.21 C
568 05-08-2014 23:15:00 16.2 C 88 % 14.21 C
569 05-08-2014 23:20:00 16.2 C 88 % 14.21 C
570 05-08-2014 23:25:00 16.2 C 88 % 14.21 C
571 05-08-2014 23:30:00 16.1 C 88 % 14.11 C
572 05-08-2014 23:35:00 16.1 C 88 % 14.11 C
573 05-08-2014 23:40:00 16 C 88 % 14.01 C
574 05-08-2014 23:45:00 15.9 C 89 % 14.09 C
575 05-08-2014 23:50:00 15.8 C 89 % 13.99 C
Sensor: Nr:Datum:Temp:Feuchte:Taupunkt:
Aussen-T/F 576 05-08-2014 23:55:00 15.7 C 89 % 13.89 C
577 06-08-2014 00:00:00 15.6 C 90 % 13.97 C
578 06-08-2014 00:05:00 15.4 C 90 % 13.77 C
579 06-08-2014 00:10:00 15.4 C 90 % 13.77 C
580 06-08-2014 00:15:00 15.3 C 90 % 13.67 C
581 06-08-2014 00:20:00 15.3 C 91 % 13.84 C
582 06-08-2014 00:25:00 15.2 C 91 % 13.74 C
583 06-08-2014 00:30:00 15.2 C 91 % 13.74 C
584 06-08-2014 00:35:00 15.1 C 91 % 13.64 C
585 06-08-2014 00:40:00 14.9 C 91 % 13.44 C
586 06-08-2014 00:45:00 14.9 C 92 % 13.61 C
587 06-08-2014 00:50:00 14.8 C 92 % 13.51 C
588 06-08-2014 00:55:00 14.8 C 92 % 13.51 C
589 06-08-2014 01:00:00 14.8 C 92 % 13.51 C
590 06-08-2014 01:05:00 14.7 C 92 % 13.41 C
591 06-08-2014 01:10:00 14.6 C 92 % 13.32 C
592 06-08-2014 01:15:00 14.6 C 92 % 13.32 C
593 06-08-2014 01:20:00 14.4 C 92 % 13.12 C
594 06-08-2014 01:25:00 14.4 C 92 % 13.12 C
595 06-08-2014 01:30:00 14.4 C 92 % 13.12 C
596 06-08-2014 01:35:00 14.3 C 93 % 13.18 C
597 06-08-2014 01:40:00 14.3 C 93 % 13.18 C
598 06-08-2014 01:45:00 14.3 C 93 % 13.18 C
599 06-08-2014 01:50:00 14.2 C 93 % 13.08 C
600 06-08-2014 01:55:00 14.2 C 93 % 13.08 C
Sensor: Nr:Datum:Temp:Feuchte:Taupunkt:
Aussen-T/F 601 06-08-2014 02:00:00 14.2 C 93 % 13.08 C
602 06-08-2014 02:05:00 14.1 C 93 % 12.99 C
603 06-08-2014 02:10:00 14.1 C 93 % 12.99 C
604 06-08-2014 02:15:00 14 C 93 % 12.89 C
605 06-08-2014 02:20:00 13.9 C 93 % 12.79 C
606 06-08-2014 02:25:00 13.9 C 93 % 12.79 C
607 06-08-2014 02:30:00 13.8 C 93 % 12.69 C
608 06-08-2014 02:35:00 13.8 C 93 % 12.69 C
609 06-08-2014 02:40:00 13.8 C 94 % 12.85 C
610 06-08-2014 02:45:00 13.7 C 94 % 12.75 C
611 06-08-2014 02:50:00 13.7 C 94 % 12.75 C
612 06-08-2014 02:55:00 13.7 C 94 % 12.75 C
613 06-08-2014 03:00:00 13.6 C 94 % 12.65 C
614 06-08-2014 03:05:00 13.6 C 94 % 12.65 C
615 06-08-2014 03:10:00 13.6 C 94 % 12.65 C
616 06-08-2014 03:15:00 13.6 C 94 % 12.65 C
617 06-08-2014 03:20:00 13.5 C 94 % 12.55 C
618 06-08-2014 03:25:00 13.5 C 94 % 12.55 C
619 06-08-2014 03:30:00 13.6 C 95 % 12.81 C
620 06-08-2014 03:35:00 13.6 C 95 % 12.81 C
621 06-08-2014 03:40:00 13.5 C 95 % 12.72 C
622 06-08-2014 03:45:00 13.5 C 95 % 12.72 C
623 06-08-2014 03:50:00 13.4 C 94 % 12.45 C
624 06-08-2014 03:55:00 13.4 C 95 % 12.62 C
625 06-08-2014 04:00:00 13.3 C 95 % 12.52 C
Sensor: Nr:Datum:Temp:Feuchte:Taupunkt:
Aussen-T/F 626 06-08-2014 04:05:00 13.3 C 95 % 12.52 C
627 06-08-2014 04:10:00 13.3 C 95 % 12.52 C
628 06-08-2014 04:15:00 13.3 C 95 % 12.52 C
629 06-08-2014 04:20:00 13.2 C 95 % 12.42 C
630 06-08-2014 04:25:00 13.2 C 95 % 12.42 C
631 06-08-2014 04:30:00 13.1 C 95 % 12.32 C
632 06-08-2014 04:35:00 13.1 C 95 % 12.32 C
633 06-08-2014 04:40:00 13 C 95 % 12.22 C
634 06-08-2014 04:45:00 13 C 95 % 12.22 C
635 06-08-2014 04:50:00 12.9 C 95 % 12.12 C
636 06-08-2014 04:55:00 12.9 C 95 % 12.12 C
637 06-08-2014 05:00:00 12.9 C 96 % 12.28 C
638 06-08-2014 05:05:00 12.9 C 96 % 12.28 C
639 06-08-2014 05:10:00 12.9 C 96 % 12.28 C
640 06-08-2014 05:15:00 12.8 C 96 % 12.18 C
641 06-08-2014 05:20:00 12.8 C 95 % 12.02 C
642 06-08-2014 05:25:00 12.7 C 96 % 12.08 C
643 06-08-2014 05:30:00 12.7 C 96 % 12.08 C
644 06-08-2014 05:35:00 12.8 C 96 % 12.18 C
645 06-08-2014 05:40:00 12.8 C 96 % 12.18 C
646 06-08-2014 05:45:00 12.8 C 96 % 12.18 C
647 06-08-2014 05:50:00 12.8 C 96 % 12.18 C
648 06-08-2014 05:55:00 12.7 C 96 % 12.08 C
649 06-08-2014 06:00:00 12.6 C 96 % 11.98 C
650 06-08-2014 06:05:00 12.6 C 96 % 11.98 C
Sensor: Nr:Datum:Temp:Feuchte:Taupunkt:
Aussen-T/F 651 06-08-2014 06:10:00 12.7 C 96 % 12.08 C
652 06-08-2014 06:15:00 12.7 C 96 % 12.08 C
653 06-08-2014 06:20:00 12.7 C 96 % 12.08 C
654 06-08-2014 06:25:00 12.8 C 96 % 12.18 C
655 06-08-2014 06:30:00 12.8 C 96 % 12.18 C
656 06-08-2014 06:35:00 12.8 C 96 % 12.18 C
657 06-08-2014 06:40:00 12.8 C 97 % 12.34 C
658 06-08-2014 06:45:00 12.8 C 97 % 12.34 C
659 06-08-2014 06:50:00 12.9 C 96 % 12.28 C
660 06-08-2014 06:55:00 12.9 C 96 % 12.28 C
661 06-08-2014 07:00:00 12.9 C 96 % 12.28 C
662 06-08-2014 07:05:00 12.9 C 97 % 12.44 C
663 06-08-2014 07:10:00 12.9 C 96 % 12.28 C
664 06-08-2014 07:15:00 12.9 C 96 % 12.28 C
665 06-08-2014 07:20:00 12.9 C 97 % 12.44 C
666 06-08-2014 07:25:00 13 C 97 % 12.54 C
667 06-08-2014 07:30:00 13 C 97 % 12.54 C
668 06-08-2014 07:35:00 13 C 97 % 12.54 C
669 06-08-2014 07:40:00 13.1 C 97 % 12.63 C
670 06-08-2014 07:45:00 13.2 C 97 % 12.73 C
671 06-08-2014 07:50:00 13.1 C 97 % 12.63 C
672 06-08-2014 07:55:00 13.2 C 97 % 12.73 C
673 06-08-2014 08:00:00 13.2 C 97 % 12.73 C
674 06-08-2014 08:05:00 13.2 C 97 % 12.73 C
675 06-08-2014 08:10:00 13.2 C 97 % 12.73 C
Sensor: Nr:Datum:Temp:Feuchte:Taupunkt:
Aussen-T/F 676 06-08-2014 08:15:00 13.3 C 97 % 12.83 C
677 06-08-2014 08:20:00 13.3 C 97 % 12.83 C
678 06-08-2014 08:25:00 13.3 C 97 % 12.83 C
679 06-08-2014 08:30:00 13.4 C 97 % 12.93 C
680 06-08-2014 08:35:00 13.6 C 97 % 13.13 C
681 06-08-2014 08:40:00 13.6 C 97 % 13.13 C
682 06-08-2014 08:45:00 13.7 C 97 % 13.23 C
683 06-08-2014 08:50:00 13.8 C 97 % 13.33 C
684 06-08-2014 08:55:00 13.9 C 97 % 13.43 C
685 06-08-2014 09:00:00 13.9 C 97 % 13.43 C
686 06-08-2014 09:05:00 14.1 C 97 % 13.63 C
687 06-08-2014 09:10:00 14.2 C 96 % 13.57 C
688 06-08-2014 09:15:00 14.3 C 96 % 13.67 C
689 06-08-2014 09:20:00 14.3 C 96 % 13.67 C
690 06-08-2014 09:25:00 14.5 C 96 % 13.87 C
691 06-08-2014 09:30:00 14.6 C 95 % 13.81 C
692 06-08-2014 09:35:00 14.7 C 95 % 13.91 C
693 06-08-2014 09:40:00 14.9 C 94 % 13.94 C
694 06-08-2014 09:45:00 15.1 C 94 % 14.14 C
695 06-08-2014 09:50:00 15.3 C 94 % 14.34 C
696 06-08-2014 09:55:00 15.5 C 93 % 14.37 C
697 06-08-2014 10:00:00 15.7 C 92 % 14.4 C
698 06-08-2014 10:05:00 15.8 C 92 % 14.5 C
699 06-08-2014 10:10:00 16 C 92 % 14.7 C
700 06-08-2014 10:15:00 16.3 C 91 % 14.83 C
Sensor: Nr:Datum:Temp:Feuchte:Taupunkt:
Aussen-T/F 701 06-08-2014 10:20:00 16.5 C 90 % 14.85 C
702 06-08-2014 10:25:00 16.7 C 90 % 15.05 C
703 06-08-2014 10:30:00 16.9 C 90 % 15.25 C
704 06-08-2014 10:35:00 17.2 C 90 % 15.55 C
705 06-08-2014 10:40:00 17.3 C 88 % 15.29 C
706 06-08-2014 10:45:00 17.5 C 89 % 15.67 C
707 06-08-2014 10:50:00 17.7 C 90 % 16.04 C
708 06-08-2014 10:55:00 17.9 C 87 % 15.71 C
709 06-08-2014 11:00:00 18.3 C 87 % 16.1 C
710 06-08-2014 11:05:00 18.7 C 87 % 16.49 C
711 06-08-2014 11:10:00 19.2 C 84 % 16.43 C
712 06-08-2014 11:15:00 19.6 C 84 % 16.82 C
713 06-08-2014 11:20:00 19.8 C 84 % 17.02 C
714 06-08-2014 11:25:00 20.1 C 83 % 17.12 C
715 06-08-2014 11:30:00 20.2 C 83 % 17.22 C
716 06-08-2014 11:35:00 20.3 C 82 % 17.13 C
717 06-08-2014 11:40:00 20.4 C 82 % 17.22 C
718 06-08-2014 11:45:00 20.6 C 82 % 17.42 C
719 06-08-2014 11:50:00 20.8 C 83 % 17.81 C
720 06-08-2014 11:55:00 21.1 C 83 % 18.1 C
721 06-08-2014 12:00:00 21.5 C 76 % 17.09 C
722 06-08-2014 12:05:00 22 C 74 % 17.15 C
723 06-08-2014 12:10:00 22.4 C 69 % 16.43 C
724 06-08-2014 12:15:00 22.7 C 72 % 17.39 C
725 06-08-2014 12:20:00 22.6 C 76 % 18.15 C
Sensor: Nr:Datum:Temp:Feuchte:Taupunkt:
Aussen-T/F 726 06-08-2014 12:25:00 22.3 C 71 % 16.79 C
727 06-08-2014 12:30:00 22.4 C 67 % 15.97 C
728 06-08-2014 12:35:00 22.7 C 71 % 17.17 C
729 06-08-2014 12:40:00 23.2 C 65 % 16.26 C
730 06-08-2014 12:45:00 23.6 C 55 % 14.03 C
731 06-08-2014 12:50:00 23.7 C 66 % 16.97 C
732 06-08-2014 12:55:00 23.9 C 55 % 14.31 C
733 06-08-2014 13:00:00 24.3 C 60 % 16.04 C
734 06-08-2014 13:05:00 24.4 C 50 % 13.31 C
735 06-08-2014 13:10:00 24.5 C 62 % 16.74 C
736 06-08-2014 13:15:00 24.2 C 50 % 13.12 C
737 06-08-2014 13:20:00 24.1 C 50 % 13.03 C
738 06-08-2014 13:25:00 24.3 C 57 % 15.24 C
739 06-08-2014 13:30:00 24.7 C 53 % 14.48 C
740 06-08-2014 13:35:00 25.1 C 47 % 13 C
741 06-08-2014 13:40:00 25.2 C 45 % 12.43 C
742 06-08-2014 13:45:00 25.2 C 53 % 14.94 C
743 06-08-2014 13:50:00 24.6 C 57 % 15.52 C
744 06-08-2014 13:55:00 24.1 C 63 % 16.62 C
745 06-08-2014 14:00:00 23.8 C 52 % 13.36 C
746 06-08-2014 14:05:00 24.2 C 50 % 13.12 C
747 06-08-2014 14:10:00 25 C 49 % 13.55 C
748 06-08-2014 14:15:00 25.4 C 49 % 13.91 C
749 06-08-2014 14:20:00 25.5 C 44 % 12.36 C
750 06-08-2014 14:25:00 25.6 C 47 % 13.45 C
Sensor: Nr:Datum:Temp:Feuchte:Taupunkt:
Aussen-T/F 751 06-08-2014 14:30:00 25.7 C 49 % 14.19 C
752 06-08-2014 14:35:00 26.1 C 44 % 12.9 C
753 06-08-2014 14:40:00 26.2 C 43 % 12.64 C
754 06-08-2014 14:45:00 26.1 C 43 % 12.55 C
755 06-08-2014 14:50:00 26.1 C 45 % 13.24 C
756 06-08-2014 14:55:00 26.1 C 47 % 13.91 C
757 06-08-2014 15:00:00 25.9 C 49 % 14.37 C
758 06-08-2014 15:05:00 25.9 C 57 % 16.73 C
759 06-08-2014 15:10:00 25.8 C 45 % 12.97 C
760 06-08-2014 15:15:00 25.6 C 52 % 15.02 C
761 06-08-2014 15:20:00 25.3 C 52 % 14.74 C
762 06-08-2014 15:25:00 25.5 C 48 % 13.69 C
763 06-08-2014 15:30:00 25.7 C 51 % 14.81 C
764 06-08-2014 15:35:00 25.2 C 61 % 17.14 C
765 06-08-2014 15:40:00 24.3 C 64 % 17.05 C
766 06-08-2014 15:45:00 23.8 C 57 % 14.77 C
767 06-08-2014 15:50:00 24.1 C 64 % 16.86 C
768 06-08-2014 15:55:00 24.1 C 55 % 14.5 C
769 06-08-2014 16:00:00 24.2 C 62 % 16.46 C
770 06-08-2014 16:05:00 24.6 C 51 % 13.79 C
771 06-08-2014 16:10:00 24.9 C 49 % 13.46 C
772 06-08-2014 16:15:00 25.3 C 59 % 16.71 C
773 06-08-2014 16:20:00 25.1 C 51 % 14.25 C
774 06-08-2014 16:25:00 25.1 C 51 % 14.25 C
775 06-08-2014 16:30:00 25.1 C 58 % 16.26 C
Sensor: Nr:Datum:Temp:Feuchte:Taupunkt:
Aussen-T/F 776 06-08-2014 16:35:00 24.5 C 67 % 17.97 C
777 06-08-2014 16:40:00 23.9 C 66 % 17.16 C
778 06-08-2014 16:45:00 23.5 C 72 % 18.16 C
779 06-08-2014 16:50:00 23.1 C 73 % 17.99 C
780 06-08-2014 16:55:00 22.7 C 74 % 17.83 C
781 06-08-2014 17:00:00 22.3 C 74 % 17.44 C
782 06-08-2014 17:05:00 22.2 C 76 % 17.77 C
783 06-08-2014 17:10:00 22.1 C 76 % 17.67 C
784 06-08-2014 17:15:00 22 C 76 % 17.57 C
785 06-08-2014 17:20:00 21.8 C 76 % 17.38 C
786 06-08-2014 17:25:00 21.6 C 78 % 17.6 C
787 06-08-2014 17:30:00 21.3 C 80 % 17.71 C
788 06-08-2014 17:35:00 21.2 C 79 % 17.41 C
789 06-08-2014 17:40:00 21.1 C 80 % 17.51 C
790 06-08-2014 17:45:00 21 C 80 % 17.42 C
791 06-08-2014 17:50:00 20.8 C 80 % 17.22 C
792 06-08-2014 17:55:00 20.7 C 80 % 17.13 C
793 06-08-2014 18:00:00 20.6 C 81 % 17.22 C
794 06-08-2014 18:05:00 20.4 C 81 % 17.03 C
795 06-08-2014 18:10:00 20.4 C 81 % 17.03 C
796 06-08-2014 18:15:00 20.4 C 81 % 17.03 C
797 06-08-2014 18:20:00 20.4 C 82 % 17.22 C
798 06-08-2014 18:25:00 20.4 C 81 % 17.03 C
799 06-08-2014 18:30:00 20.6 C 81 % 17.22 C
800 06-08-2014 18:35:00 20.6 C 81 % 17.22 C
Sensor: Nr:Datum:Temp:Feuchte:Taupunkt:
Aussen-T/F 801 06-08-2014 18:40:00 20.7 C 81 % 17.32 C
802 06-08-2014 18:45:00 20.6 C 81 % 17.22 C
803 06-08-2014 18:50:00 20.5 C 81 % 17.13 C
804 06-08-2014 18:55:00 20.4 C 81 % 17.03 C
805 06-08-2014 19:00:00 20.3 C 81 % 16.93 C
806 06-08-2014 19:05:00 20.2 C 82 % 17.03 C
807 06-08-2014 19:10:00 20 C 82 % 16.83 C
808 06-08-2014 19:15:00 19.8 C 82 % 16.64 C
809 06-08-2014 19:20:00 19.8 C 79 % 16.05 C
810 06-08-2014 19:25:00 19.7 C 80 % 16.15 C
811 06-08-2014 19:30:00 19.3 C 83 % 16.34 C
812 06-08-2014 19:35:00 18.7 C 84 % 15.94 C
813 06-08-2014 19:40:00 18.4 C 87 % 16.2 C
814 06-08-2014 19:45:00 18.1 C 88 % 16.08 C
815 06-08-2014 19:50:00 17.9 C 89 % 16.06 C
816 06-08-2014 19:55:00 17.8 C 90 % 16.14 C
817 06-08-2014 20:00:00 17.7 C 89 % 15.86 C
818 06-08-2014 20:05:00 17.6 C 90 % 15.94 C
819 06-08-2014 20:10:00 17.4 C 90 % 15.74 C
820 06-08-2014 20:15:00 17.3 C 92 % 15.99 C
821 06-08-2014 20:20:00 17.2 C 92 % 15.89 C
822 06-08-2014 20:25:00 17.1 C 92 % 15.79 C
823 06-08-2014 20:30:00 17 C 91 % 15.52 C
824 06-08-2014 20:35:00 16.9 C 92 % 15.59 C
825 06-08-2014 20:40:00 16.8 C 92 % 15.49 C
Sensor: Nr:Datum:Temp:Feuchte:Taupunkt:
Aussen-T/F 826 06-08-2014 20:45:00 16.8 C 92 % 15.49 C
827 06-08-2014 20:50:00 16.8 C 92 % 15.49 C
828 06-08-2014 20:55:00 16.7 C 92 % 15.39 C
829 06-08-2014 21:00:00 16.7 C 93 % 15.56 C
830 06-08-2014 21:05:00 16.6 C 93 % 15.46 C
831 06-08-2014 21:10:00 16.6 C 94 % 15.63 C
832 06-08-2014 21:15:00 16.6 C 94 % 15.63 C
833 06-08-2014 21:20:00 16.5 C 94 % 15.53 C
834 06-08-2014 21:25:00 16.4 C 95 % 15.6 C
835 06-08-2014 21:30:00 16.4 C 95 % 15.6 C
836 06-08-2014 21:35:00 16.3 C 95 % 15.5 C
837 06-08-2014 21:40:00 16.3 C 95 % 15.5 C
838 06-08-2014 21:45:00 16.2 C 95 % 15.4 C
839 06-08-2014 21:50:00 16.2 C 95 % 15.4 C
840 06-08-2014 21:55:00 16.2 C 95 % 15.4 C
841 06-08-2014 22:00:00 16.2 C 96 % 15.56 C
842 06-08-2014 22:05:00 16.2 C 96 % 15.56 C
843 06-08-2014 22:10:00 16.1 C 96 % 15.46 C
844 06-08-2014 22:15:00 16.1 C 96 % 15.46 C
845 06-08-2014 22:20:00 16.1 C 96 % 15.46 C
846 06-08-2014 22:25:00 16 C 96 % 15.36 C
847 06-08-2014 22:30:00 15.9 C 96 % 15.26 C
848 06-08-2014 22:35:00 15.9 C 96 % 15.26 C
849 06-08-2014 22:40:00 16 C 96 % 15.36 C
850 06-08-2014 22:45:00 16 C 96 % 15.36 C
Sensor: Nr:Datum:Temp:Feuchte:Taupunkt:
Aussen-T/F 851 06-08-2014 22:50:00 15.9 C 96 % 15.26 C
852 06-08-2014 22:55:00 15.9 C 96 % 15.26 C
853 06-08-2014 23:00:00 15.9 C 96 % 15.26 C
854 06-08-2014 23:05:00 15.9 C 96 % 15.26 C
855 06-08-2014 23:10:00 15.9 C 96 % 15.26 C
856 06-08-2014 23:15:00 15.9 C 96 % 15.26 C
857 06-08-2014 23:20:00 15.9 C 96 % 15.26 C
858 06-08-2014 23:25:00 15.9 C 96 % 15.26 C
859 06-08-2014 23:30:00 15.8 C 96 % 15.16 C
860 06-08-2014 23:35:00 15.8 C 96 % 15.16 C
861 06-08-2014 23:40:00 15.8 C 96 % 15.16 C
862 06-08-2014 23:45:00 15.8 C 96 % 15.16 C
863 06-08-2014 23:50:00 15.8 C 96 % 15.16 C
864 06-08-2014 23:55:00 15.8 C 96 % 15.16 C
865 07-08-2014 00:00:00 15.8 C 96 % 15.16 C
866 07-08-2014 00:05:00 15.7 C 96 % 15.06 C
867 07-08-2014 00:10:00 15.7 C 96 % 15.06 C
868 07-08-2014 00:15:00 15.7 C 96 % 15.06 C
869 07-08-2014 00:20:00 15.7 C 96 % 15.06 C
870 07-08-2014 00:25:00 15.6 C 96 % 14.96 C
871 07-08-2014 00:30:00 15.6 C 96 % 14.96 C
872 07-08-2014 00:35:00 15.6 C 96 % 14.96 C
873 07-08-2014 00:40:00 15.6 C 96 % 14.96 C
874 07-08-2014 00:45:00 15.6 C 96 % 14.96 C
875 07-08-2014 00:50:00 15.6 C 96 % 14.96 C
Sensor: Nr:Datum:Temp:Feuchte:Taupunkt:
Aussen-T/F 876 07-08-2014 00:55:00 15.6 C 96 % 14.96 C
877 07-08-2014 01:00:00 15.6 C 96 % 14.96 C
878 07-08-2014 01:05:00 15.6 C 96 % 14.96 C
879 07-08-2014 01:10:00 15.6 C 96 % 14.96 C
880 07-08-2014 01:15:00 15.6 C 96 % 14.96 C
881 07-08-2014 01:20:00 15.6 C 96 % 14.96 C
882 07-08-2014 01:25:00 15.6 C 96 % 14.96 C
883 07-08-2014 01:30:00 15.6 C 97 % 15.13 C
884 07-08-2014 01:35:00 15.6 C 97 % 15.13 C
885 07-08-2014 01:40:00 15.6 C 97 % 15.13 C
886 07-08-2014 01:45:00 15.6 C 97 % 15.13 C
887 07-08-2014 01:50:00 15.5 C 97 % 15.03 C
888 07-08-2014 01:55:00 15.5 C 96 % 14.86 C
889 07-08-2014 02:00:00 15.4 C 96 % 14.77 C
890 07-08-2014 02:05:00 15.4 C 97 % 14.93 C
891 07-08-2014 02:10:00 15.4 C 97 % 14.93 C
892 07-08-2014 02:15:00 15.4 C 97 % 14.93 C
893 07-08-2014 02:20:00 15.4 C 97 % 14.93 C
894 07-08-2014 02:25:00 15.4 C 97 % 14.93 C
895 07-08-2014 02:30:00 15.4 C 97 % 14.93 C
896 07-08-2014 02:35:00 15.4 C 97 % 14.93 C
897 07-08-2014 02:40:00 15.5 C 97 % 15.03 C
898 07-08-2014 02:45:00 15.5 C 97 % 15.03 C
899 07-08-2014 02:50:00 15.5 C 97 % 15.03 C
900 07-08-2014 02:55:00 15.5 C 97 % 15.03 C
Sensor: Nr:Datum:Temp:Feuchte:Taupunkt:
Aussen-T/F 901 07-08-2014 03:00:00 15.5 C 97 % 15.03 C
902 07-08-2014 03:05:00 15.5 C 97 % 15.03 C
903 07-08-2014 03:10:00 15.4 C 97 % 14.93 C
904 07-08-2014 03:15:00 15.4 C 97 % 14.93 C
905 07-08-2014 03:20:00 15.4 C 97 % 14.93 C
906 07-08-2014 03:25:00 15.4 C 97 % 14.93 C
907 07-08-2014 03:30:00 15.3 C 97 % 14.83 C
908 07-08-2014 03:35:00 15.2 C 97 % 14.73 C
909 07-08-2014 03:40:00 15.1 C 96 % 14.47 C
910 07-08-2014 03:45:00 15.1 C 97 % 14.63 C
911 07-08-2014 03:50:00 15.1 C 97 % 14.63 C
912 07-08-2014 03:55:00 15 C 97 % 14.53 C
913 07-08-2014 04:00:00 15 C 97 % 14.53 C
914 07-08-2014 04:05:00 15 C 97 % 14.53 C
915 07-08-2014 04:10:00 15.1 C 97 % 14.63 C
916 07-08-2014 04:15:00 15.1 C 97 % 14.63 C
917 07-08-2014 04:20:00 15.2 C 97 % 14.73 C
918 07-08-2014 04:25:00 15.2 C 97 % 14.73 C
919 07-08-2014 04:30:00 15.3 C 97 % 14.83 C
920 07-08-2014 04:35:00 15.3 C 97 % 14.83 C
921 07-08-2014 04:40:00 15.3 C 97 % 14.83 C
922 07-08-2014 04:45:00 15.3 C 97 % 14.83 C
923 07-08-2014 04:50:00 15.4 C 97 % 14.93 C
924 07-08-2014 04:55:00 15.4 C 97 % 14.93 C
925 07-08-2014 05:00:00 15.4 C 97 % 14.93 C
Sensor: Nr:Datum:Temp:Feuchte:Taupunkt:
Aussen-T/F 926 07-08-2014 05:05:00 15.4 C 97 % 14.93 C
927 07-08-2014 05:10:00 15.4 C 97 % 14.93 C
928 07-08-2014 05:15:00 15.5 C 97 % 15.03 C
929 07-08-2014 05:20:00 15.5 C 97 % 15.03 C
930 07-08-2014 05:25:00 15.5 C 97 % 15.03 C
931 07-08-2014 05:30:00 15.6 C 97 % 15.13 C
932 07-08-2014 05:35:00 15.6 C 97 % 15.13 C
933 07-08-2014 05:40:00 15.6 C 97 % 15.13 C
934 07-08-2014 05:45:00 15.7 C 98 % 15.38 C
935 07-08-2014 05:50:00 15.7 C 98 % 15.38 C
936 07-08-2014 05:55:00 15.7 C 98 % 15.38 C
937 07-08-2014 06:00:00 15.7 C 98 % 15.38 C
938 07-08-2014 06:05:00 15.7 C 98 % 15.38 C
939 07-08-2014 06:10:00 15.8 C 98 % 15.48 C
940 07-08-2014 06:15:00 15.8 C 98 % 15.48 C
941 07-08-2014 06:20:00 15.8 C 98 % 15.48 C
942 07-08-2014 06:25:00 15.8 C 98 % 15.48 C
943 07-08-2014 06:30:00 15.8 C 98 % 15.48 C
944 07-08-2014 06:35:00 15.8 C 98 % 15.48 C
945 07-08-2014 06:40:00 15.8 C 98 % 15.48 C
946 07-08-2014 06:45:00 15.8 C 98 % 15.48 C
947 07-08-2014 06:50:00 15.9 C 98 % 15.58 C
948 07-08-2014 06:55:00 15.9 C 98 % 15.58 C
949 07-08-2014 07:00:00 15.9 C 98 % 15.58 C
950 07-08-2014 07:05:00 15.9 C 98 % 15.58 C
Sensor: Nr:Datum:Temp:Feuchte:Taupunkt:
Aussen-T/F 951 07-08-2014 07:10:00 15.9 C 98 % 15.58 C
952 07-08-2014 07:15:00 15.9 C 98 % 15.58 C
953 07-08-2014 07:20:00 15.9 C 98 % 15.58 C
954 07-08-2014 07:25:00 15.9 C 98 % 15.58 C
955 07-08-2014 07:30:00 16 C 98 % 15.68 C
956 07-08-2014 07:35:00 16.1 C 98 % 15.78 C
957 07-08-2014 07:40:00 16.1 C 98 % 15.78 C
958 07-08-2014 07:45:00 16.2 C 98 % 15.88 C
959 07-08-2014 07:50:00 16.1 C 98 % 15.78 C
960 07-08-2014 07:55:00 16.1 C 98 % 15.78 C
961 07-08-2014 08:00:00 16.1 C 98 % 15.78 C
962 07-08-2014 08:05:00 16.1 C 98 % 15.78 C
963 07-08-2014 08:10:00 16 C 98 % 15.68 C
964 07-08-2014 08:15:00 16.1 C 98 % 15.78 C
965 07-08-2014 08:20:00 16.1 C 98 % 15.78 C
966 07-08-2014 08:25:00 16.2 C 98 % 15.88 C
967 07-08-2014 08:30:00 16.3 C 98 % 15.98 C
968 07-08-2014 08:35:00 16.3 C 98 % 15.98 C
969 07-08-2014 08:40:00 16.3 C 98 % 15.98 C
970 07-08-2014 08:45:00 16.4 C 98 % 16.08 C
971 07-08-2014 08:50:00 16.5 C 98 % 16.18 C
972 07-08-2014 08:55:00 16.6 C 98 % 16.28 C
973 07-08-2014 09:00:00 16.6 C 97 % 16.12 C
974 07-08-2014 09:05:00 16.7 C 97 % 16.22 C
975 07-08-2014 09:10:00 16.9 C 97 % 16.42 C
Sensor: Nr:Datum:Temp:Feuchte:Taupunkt:
Aussen-T/F 976 07-08-2014 09:15:00 17.1 C 97 % 16.62 C
977 07-08-2014 09:20:00 17.2 C 96 % 16.56 C
978 07-08-2014 09:25:00 17.4 C 95 % 16.59 C
979 07-08-2014 09:30:00 17.6 C 93 % 16.45 C
980 07-08-2014 09:35:00 17.6 C 92 % 16.28 C
981 07-08-2014 09:40:00 17.7 C 91 % 16.21 C
982 07-08-2014 09:45:00 17.8 C 90 % 16.14 C
983 07-08-2014 09:50:00 17.9 C 91 % 16.41 C
984 07-08-2014 09:55:00 17.9 C 92 % 16.58 C
985 07-08-2014 10:00:00 17.9 C 92 % 16.58 C
986 07-08-2014 10:05:00 18.1 C 89 % 16.26 C
987 07-08-2014 10:10:00 18.4 C 89 % 16.55 C
988 07-08-2014 10:15:00 18.6 C 87 % 16.39 C
989 07-08-2014 10:20:00 18.8 C 87 % 16.59 C
990 07-08-2014 10:25:00 18.9 C 87 % 16.69 C
991 07-08-2014 10:30:00 19 C 84 % 16.24 C
992 07-08-2014 10:35:00 19.2 C 85 % 16.62 C
993 07-08-2014 10:40:00 19.2 C 86 % 16.8 C
994 07-08-2014 10:45:00 19 C 88 % 16.97 C
995 07-08-2014 10:50:00 18.6 C 90 % 16.93 C
996 07-08-2014 10:55:00 18.4 C 92 % 17.08 C
997 07-08-2014 11:00:00 18.4 C 92 % 17.08 C
998 07-08-2014 11:05:00 18.8 C 91 % 17.3 C
999 07-08-2014 11:10:00 19.1 C 90 % 17.42 C
1000 07-08-2014 11:15:00 19.2 C 86 % 16.8 C
Sensor: Nr:Datum:Temp:Feuchte:Taupunkt:
Aussen-T/F 1001 07-08-2014 11:20:00 19.8 C 80 % 16.25 C
1002 07-08-2014 11:25:00 20.6 C 82 % 17.42 C
1003 07-08-2014 11:30:00 20.8 C 76 % 16.41 C
1004 07-08-2014 11:35:00 20.9 C 78 % 16.92 C
1005 07-08-2014 11:40:00 21.2 C 77 % 17.01 C
1006 07-08-2014 11:45:00 21.6 C 74 % 16.77 C
1007 07-08-2014 11:50:00 21.7 C 72 % 16.43 C
1008 07-08-2014 11:55:00 21.9 C 71 % 16.4 C
1009 07-08-2014 12:00:00 22 C 73 % 16.94 C
1010 07-08-2014 12:05:00 22 C 74 % 17.15 C
1011 07-08-2014 12:10:00 21.9 C 70 % 16.18 C
1012 07-08-2014 12:15:00 21.8 C 71 % 16.31 C
1013 07-08-2014 12:20:00 21.8 C 71 % 16.31 C
1014 07-08-2014 12:25:00 21.8 C 77 % 17.59 C
1015 07-08-2014 12:30:00 21.9 C 72 % 16.62 C
1016 07-08-2014 12:35:00 22.2 C 77 % 17.98 C
1017 07-08-2014 12:40:00 22.1 C 71 % 16.6 C
1018 07-08-2014 12:45:00 22.1 C 70 % 16.37 C
1019 07-08-2014 12:50:00 22.2 C 68 % 16.01 C
1020 07-08-2014 12:55:00 22.4 C 71 % 16.88 C
1021 07-08-2014 13:00:00 22.4 C 70 % 16.66 C
1022 07-08-2014 13:05:00 22.5 C 66 % 15.83 C
1023 07-08-2014 13:10:00 22.5 C 65 % 15.59 C
1024 07-08-2014 13:15:00 22.6 C 68 % 16.39 C
1025 07-08-2014 13:20:00 22.6 C 70 % 16.85 C
Sensor: Nr:Datum:Temp:Feuchte:Taupunkt:
Aussen-T/F 1026 07-08-2014 13:25:00 22.5 C 76 % 18.06 C
1027 07-08-2014 13:30:00 22.3 C 74 % 17.44 C
1028 07-08-2014 13:35:00 22.4 C 67 % 15.97 C
1029 07-08-2014 13:40:00 22.7 C 64 % 15.54 C
1030 07-08-2014 13:45:00 22.9 C 64 % 15.73 C
1031 07-08-2014 13:50:00 23.2 C 63 % 15.77 C
1032 07-08-2014 13:55:00 23.2 C 61 % 15.26 C
1033 07-08-2014 14:00:00 23.3 C 64 % 16.11 C
1034 07-08-2014 14:05:00 23.6 C 66 % 16.88 C
1035 07-08-2014 14:10:00 23.7 C 68 % 17.44 C
1036 07-08-2014 14:15:00 23.5 C 76 % 19.02 C
1037 07-08-2014 14:20:00 23.3 C 64 % 16.11 C
1038 07-08-2014 14:25:00 23.4 C 71 % 17.84 C
1039 07-08-2014 14:30:00 23.8 C 63 % 16.33 C
1040 07-08-2014 14:35:00 24.2 C 59 % 15.68 C
1041 07-08-2014 14:40:00 24.3 C 64 % 17.05 C
1042 07-08-2014 14:45:00 24.6 C 60 % 16.32 C
1043 07-08-2014 14:50:00 24.8 C 60 % 16.51 C
1044 07-08-2014 14:55:00 25.1 C 64 % 17.81 C
1045 07-08-2014 15:00:00 25.5 C 58 % 16.63 C
1046 07-08-2014 15:05:00 25.5 C 57 % 16.36 C
1047 07-08-2014 15:10:00 25.6 C 57 % 16.45 C
1048 07-08-2014 15:15:00 25.6 C 58 % 16.72 C
1049 07-08-2014 15:20:00 25.7 C 57 % 16.54 C
1050 07-08-2014 15:25:00 25.8 C 59 % 17.18 C
Sensor: Nr:Datum:Temp:Feuchte:Taupunkt:
Aussen-T/F 1051 07-08-2014 15:30:00 25.8 C 53 % 15.5 C
1052 07-08-2014 15:35:00 25.8 C 54 % 15.79 C
1053 07-08-2014 15:40:00 25.8 C 55 % 16.07 C
1054 07-08-2014 15:45:00 25.9 C 54 % 15.88 C
1055 07-08-2014 15:50:00 25.9 C 54 % 15.88 C
1056 07-08-2014 15:55:00 26.1 C 55 % 16.35 C
1057 07-08-2014 16:00:00 26.1 C 59 % 17.46 C
1058 07-08-2014 16:05:00 26.2 C 61 % 18.08 C
1059 07-08-2014 16:10:00 26.2 C 52 % 15.57 C
1060 07-08-2014 16:15:00 26.3 C 51 % 15.36 C
1061 07-08-2014 16:20:00 26.6 C 53 % 16.23 C
1062 07-08-2014 16:25:00 26.6 C 54 % 16.53 C
1063 07-08-2014 16:30:00 26.5 C 52 % 15.84 C
1064 07-08-2014 16:35:00 26.2 C 51 % 15.27 C
1065 07-08-2014 16:40:00 25.6 C 65 % 18.53 C
1066 07-08-2014 16:45:00 24.1 C 69 % 18.06 C
1067 07-08-2014 16:50:00 22.8 C 77 % 18.56 C
1068 07-08-2014 16:55:00 22 C 80 % 18.39 C
1069 07-08-2014 17:00:00 21.5 C 83 % 18.49 C
1070 07-08-2014 17:05:00 21.3 C 84 % 18.49 C
1071 07-08-2014 17:10:00 21.2 C 84 % 18.39 C
1072 07-08-2014 17:15:00 21.2 C 85 % 18.58 C
1073 07-08-2014 17:20:00 21.2 C 85 % 18.58 C
1074 07-08-2014 17:25:00 21.1 C 85 % 18.48 C
1075 07-08-2014 17:30:00 21 C 84 % 18.19 C
Sensor: Nr:Datum:Temp:Feuchte:Taupunkt:
Aussen-T/F 1076 07-08-2014 17:35:00 20.9 C 85 % 18.28 C
1077 07-08-2014 17:40:00 20.9 C 87 % 18.65 C
1078 07-08-2014 17:45:00 20.9 C 87 % 18.65 C
1079 07-08-2014 17:50:00 20.9 C 86 % 18.47 C
1080 07-08-2014 17:55:00 20.9 C 86 % 18.47 C
1081 07-08-2014 18:00:00 21 C 86 % 18.57 C
1082 07-08-2014 18:05:00 21.1 C 86 % 18.67 C
1083 07-08-2014 18:10:00 21.1 C 85 % 18.48 C
1084 07-08-2014 18:15:00 21.1 C 86 % 18.67 C
1085 07-08-2014 18:20:00 21.6 C 87 % 19.34 C
1086 07-08-2014 18:25:00 22.3 C 76 % 17.86 C
1087 07-08-2014 18:30:00 22.9 C 78 % 18.86 C
1088 07-08-2014 18:35:00 23.2 C 77 % 18.94 C
1089 07-08-2014 18:40:00 23.6 C 72 % 18.26 C
1090 07-08-2014 18:45:00 24.1 C 74 % 19.17 C
1091 07-08-2014 18:50:00 24.2 C 74 % 19.27 C
1092 07-08-2014 18:55:00 23.9 C 74 % 18.98 C
1093 07-08-2014 19:00:00 23.6 C 76 % 19.12 C
1094 07-08-2014 19:05:00 23.4 C 77 % 19.14 C
1095 07-08-2014 19:10:00 23.2 C 77 % 18.94 C
1096 07-08-2014 19:15:00 22.9 C 78 % 18.86 C
1097 07-08-2014 19:20:00 22.7 C 79 % 18.87 C
1098 07-08-2014 19:25:00 22.5 C 80 % 18.88 C
1099 07-08-2014 19:30:00 22.2 C 80 % 18.58 C
1100 07-08-2014 19:35:00 21.9 C 81 % 18.49 C
Sensor: Nr:Datum:Temp:Feuchte:Taupunkt:
Aussen-T/F 1101 07-08-2014 19:40:00 21.8 C 83 % 18.78 C
1102 07-08-2014 19:45:00 21.6 C 82 % 18.39 C
1103 07-08-2014 19:50:00 21.4 C 84 % 18.58 C
1104 07-08-2014 19:55:00 21.4 C 83 % 18.39 C
1105 07-08-2014 20:00:00 21.3 C 83 % 18.29 C
1106 07-08-2014 20:05:00 21.2 C 84 % 18.39 C
1107 07-08-2014 20:10:00 20.9 C 83 % 17.9 C
1108 07-08-2014 20:15:00 20.6 C 84 % 17.8 C
1109 07-08-2014 20:20:00 20.3 C 85 % 17.7 C
1110 07-08-2014 20:25:00 20.1 C 86 % 17.68 C
1111 07-08-2014 20:30:00 19.9 C 86 % 17.49 C
1112 07-08-2014 20:35:00 19.8 C 86 % 17.39 C
1113 07-08-2014 20:40:00 19.6 C 87 % 17.38 C
1114 07-08-2014 20:45:00 19.4 C 87 % 17.18 C
1115 07-08-2014 20:50:00 19.2 C 87 % 16.98 C
1116 07-08-2014 20:55:00 19.1 C 87 % 16.89 C
1117 07-08-2014 21:00:00 18.9 C 88 % 16.87 C
1118 07-08-2014 21:05:00 18.8 C 88 % 16.77 C
1119 07-08-2014 21:10:00 18.7 C 88 % 16.67 C
1120 07-08-2014 21:15:00 18.6 C 88 % 16.57 C
1121 07-08-2014 21:20:00 18.6 C 88 % 16.57 C
1122 07-08-2014 21:25:00 18.5 C 89 % 16.65 C
1123 07-08-2014 21:30:00 18.4 C 89 % 16.55 C
1124 07-08-2014 21:35:00 18.4 C 89 % 16.55 C
1125 07-08-2014 21:40:00 18.3 C 90 % 16.63 C
Sensor: Nr:Datum:Temp:Feuchte:Taupunkt:
Aussen-T/F 1126 07-08-2014 21:45:00 18.2 C 90 % 16.53 C
1127 07-08-2014 21:50:00 18.1 C 89 % 16.26 C
1128 07-08-2014 21:55:00 18.1 C 90 % 16.43 C
1129 07-08-2014 22:00:00 18 C 89 % 16.16 C
1130 07-08-2014 22:05:00 17.9 C 89 % 16.06 C
1131 07-08-2014 22:10:00 17.8 C 90 % 16.14 C
1132 07-08-2014 22:15:00 17.8 C 90 % 16.14 C
1133 07-08-2014 22:20:00 17.7 C 90 % 16.04 C
1134 07-08-2014 22:25:00 17.6 C 90 % 15.94 C
1135 07-08-2014 22:30:00 17.6 C 91 % 16.11 C
1136 07-08-2014 22:35:00 17.4 C 91 % 15.92 C
1137 07-08-2014 22:40:00 17.4 C 91 % 15.92 C
1138 07-08-2014 22:45:00 17.3 C 91 % 15.82 C
1139 07-08-2014 22:50:00 17.2 C 91 % 15.72 C
1140 07-08-2014 22:55:00 17.1 C 91 % 15.62 C
1141 07-08-2014 23:00:00 17 C 91 % 15.52 C
1142 07-08-2014 23:05:00 16.9 C 92 % 15.59 C
1143 07-08-2014 23:10:00 16.9 C 92 % 15.59 C
1144 07-08-2014 23:15:00 16.9 C 92 % 15.59 C
1145 07-08-2014 23:20:00 16.8 C 92 % 15.49 C
1146 07-08-2014 23:25:00 16.8 C 92 % 15.49 C
1147 07-08-2014 23:30:00 16.8 C 92 % 15.49 C
1148 07-08-2014 23:35:00 16.8 C 92 % 15.49 C
1149 07-08-2014 23:40:00 16.7 C 92 % 15.39 C
1150 07-08-2014 23:45:00 16.6 C 92 % 15.3 C
Sensor: Nr:Datum:Temp:Feuchte:Taupunkt:
Aussen-T/F 1151 07-08-2014 23:50:00 16.5 C 93 % 15.36 C
1152 07-08-2014 23:55:00 16.4 C 93 % 15.27 C
1153 08-08-2014 00:00:00 16.4 C 93 % 15.27 C
1154 08-08-2014 00:05:00 16.3 C 93 % 15.17 C
1155 08-08-2014 00:10:00 16.3 C 93 % 15.17 C
1156 08-08-2014 00:15:00 16.2 C 93 % 15.07 C
1157 08-08-2014 00:20:00 16.1 C 93 % 14.97 C
1158 08-08-2014 00:25:00 16.1 C 93 % 14.97 C
1159 08-08-2014 00:30:00 16.1 C 93 % 14.97 C
1160 08-08-2014 00:35:00 16 C 93 % 14.87 C
1161 08-08-2014 00:40:00 15.9 C 93 % 14.77 C
1162 08-08-2014 00:45:00 15.9 C 94 % 14.94 C
1163 08-08-2014 00:50:00 15.8 C 94 % 14.84 C
1164 08-08-2014 00:55:00 15.8 C 94 % 14.84 C
1165 08-08-2014 01:00:00 15.7 C 94 % 14.74 C
1166 08-08-2014 01:05:00 15.7 C 94 % 14.74 C
1167 08-08-2014 01:10:00 15.7 C 94 % 14.74 C
1168 08-08-2014 01:15:00 15.6 C 94 % 14.64 C
1169 08-08-2014 01:20:00 15.6 C 94 % 14.64 C
1170 08-08-2014 01:25:00 15.6 C 94 % 14.64 C
1171 08-08-2014 01:30:00 15.6 C 94 % 14.64 C
1172 08-08-2014 01:35:00 15.5 C 94 % 14.54 C
1173 08-08-2014 01:40:00 15.4 C 94 % 14.44 C
1174 08-08-2014 01:45:00 15.4 C 95 % 14.6 C
1175 08-08-2014 01:50:00 15.4 C 95 % 14.6 C
Sensor: Nr:Datum:Temp:Feuchte:Taupunkt:
Aussen-T/F 1176 08-08-2014 01:55:00 15.3 C 95 % 14.5 C
1177 08-08-2014 02:00:00 15.3 C 95 % 14.5 C
1178 08-08-2014 02:05:00 15.3 C 95 % 14.5 C
1179 08-08-2014 02:10:00 15.3 C 95 % 14.5 C
1180 08-08-2014 02:15:00 15.3 C 95 % 14.5 C
1181 08-08-2014 02:20:00 15.2 C 95 % 14.4 C
1182 08-08-2014 02:25:00 15.2 C 95 % 14.4 C
1183 08-08-2014 02:30:00 15.2 C 95 % 14.4 C
1184 08-08-2014 02:35:00 15.2 C 95 % 14.4 C
1185 08-08-2014 02:40:00 15.1 C 95 % 14.31 C
1186 08-08-2014 02:45:00 15 C 95 % 14.21 C
1187 08-08-2014 02:50:00 14.9 C 95 % 14.11 C
1188 08-08-2014 02:55:00 14.9 C 95 % 14.11 C
1189 08-08-2014 03:00:00 14.9 C 95 % 14.11 C
1190 08-08-2014 03:05:00 14.9 C 95 % 14.11 C
1191 08-08-2014 03:10:00 14.9 C 96 % 14.27 C
1192 08-08-2014 03:15:00 14.9 C 96 % 14.27 C
1193 08-08-2014 03:20:00 14.8 C 96 % 14.17 C
1194 08-08-2014 03:25:00 14.8 C 96 % 14.17 C
1195 08-08-2014 03:30:00 14.8 C 96 % 14.17 C
1196 08-08-2014 03:35:00 14.8 C 96 % 14.17 C
1197 08-08-2014 03:40:00 14.8 C 96 % 14.17 C
1198 08-08-2014 03:45:00 14.7 C 96 % 14.07 C
1199 08-08-2014 03:50:00 14.7 C 96 % 14.07 C
1200 08-08-2014 03:55:00 14.7 C 96 % 14.07 C
Sensor: Nr:Datum:Temp:Feuchte:Taupunkt:
Aussen-T/F 1201 08-08-2014 04:00:00 14.6 C 96 % 13.97 C
1202 08-08-2014 04:05:00 14.6 C 96 % 13.97 C
1203 08-08-2014 04:10:00 14.6 C 96 % 13.97 C
1204 08-08-2014 04:15:00 14.5 C 96 % 13.87 C
1205 08-08-2014 04:20:00 14.5 C 96 % 13.87 C
1206 08-08-2014 04:25:00 14.4 C 96 % 13.77 C
1207 08-08-2014 04:30:00 14.4 C 96 % 13.77 C
1208 08-08-2014 04:35:00 14.4 C 96 % 13.77 C
1209 08-08-2014 04:40:00 14.4 C 96 % 13.77 C
1210 08-08-2014 04:45:00 14.3 C 96 % 13.67 C
1211 08-08-2014 04:50:00 14.3 C 96 % 13.67 C
1212 08-08-2014 04:55:00 14.2 C 96 % 13.57 C
1213 08-08-2014 05:00:00 14.2 C 96 % 13.57 C
1214 08-08-2014 05:05:00 14.2 C 97 % 13.73 C
1215 08-08-2014 05:10:00 14.3 C 97 % 13.83 C
1216 08-08-2014 05:15:00 14.4 C 97 % 13.93 C
1217 08-08-2014 05:20:00 14.3 C 96 % 13.67 C
1218 08-08-2014 05:25:00 14.3 C 97 % 13.83 C
1219 08-08-2014 05:30:00 14.2 C 97 % 13.73 C
1220 08-08-2014 05:35:00 14.2 C 97 % 13.73 C
1221 08-08-2014 05:40:00 14.3 C 97 % 13.83 C
1222 08-08-2014 05:45:00 14.3 C 97 % 13.83 C
1223 08-08-2014 05:50:00 14.3 C 97 % 13.83 C
1224 08-08-2014 05:55:00 14.3 C 97 % 13.83 C
1225 08-08-2014 06:00:00 14.3 C 97 % 13.83 C
Sensor: Nr:Datum:Temp:Feuchte:Taupunkt:
Aussen-T/F 1226 08-08-2014 06:05:00 14.4 C 97 % 13.93 C
1227 08-08-2014 06:10:00 14.4 C 97 % 13.93 C
1228 08-08-2014 06:15:00 14.5 C 97 % 14.03 C
1229 08-08-2014 06:20:00 14.6 C 97 % 14.13 C
1230 08-08-2014 06:25:00 14.6 C 97 % 14.13 C
1231 08-08-2014 06:30:00 14.7 C 97 % 14.23 C
1232 08-08-2014 06:35:00 14.7 C 97 % 14.23 C
1233 08-08-2014 06:40:00 14.7 C 97 % 14.23 C
1234 08-08-2014 06:45:00 14.7 C 97 % 14.23 C
1235 08-08-2014 06:50:00 14.7 C 97 % 14.23 C
1236 08-08-2014 06:55:00 14.7 C 97 % 14.23 C
1237 08-08-2014 07:00:00 14.8 C 97 % 14.33 C
1238 08-08-2014 07:05:00 14.8 C 97 % 14.33 C
1239 08-08-2014 07:10:00 14.8 C 97 % 14.33 C
1240 08-08-2014 07:15:00 14.8 C 97 % 14.33 C
1241 08-08-2014 07:20:00 14.9 C 97 % 14.43 C
1242 08-08-2014 07:25:00 14.9 C 97 % 14.43 C
1243 08-08-2014 07:30:00 15.1 C 97 % 14.63 C
1244 08-08-2014 07:35:00 15.2 C 97 % 14.73 C
1245 08-08-2014 07:40:00 15.2 C 97 % 14.73 C
1246 08-08-2014 07:45:00 15.3 C 97 % 14.83 C
1247 08-08-2014 07:50:00 15.3 C 97 % 14.83 C
1248 08-08-2014 07:55:00 15.4 C 97 % 14.93 C
1249 08-08-2014 08:00:00 15.4 C 97 % 14.93 C
1250 08-08-2014 08:05:00 15.4 C 97 % 14.93 C
Sensor: Nr:Datum:Temp:Feuchte:Taupunkt:
Aussen-T/F 1251 08-08-2014 08:10:00 15.6 C 97 % 15.13 C
1252 08-08-2014 08:15:00 15.6 C 97 % 15.13 C
1253 08-08-2014 08:20:00 15.7 C 97 % 15.23 C
1254 08-08-2014 08:25:00 15.7 C 97 % 15.23 C
1255 08-08-2014 08:30:00 15.7 C 96 % 15.06 C
1256 08-08-2014 08:35:00 15.7 C 96 % 15.06 C
1257 08-08-2014 08:40:00 15.8 C 96 % 15.16 C
1258 08-08-2014 08:45:00 15.8 C 96 % 15.16 C
1259 08-08-2014 08:50:00 15.9 C 96 % 15.26 C
1260 08-08-2014 08:55:00 15.9 C 96 % 15.26 C
1261 08-08-2014 09:00:00 16 C 96 % 15.36 C
1262 08-08-2014 09:05:00 16.1 C 96 % 15.46 C
1263 08-08-2014 09:10:00 16.2 C 96 % 15.56 C
1264 08-08-2014 09:15:00 16.3 C 96 % 15.66 C
1265 08-08-2014 09:20:00 16.4 C 96 % 15.76 C
1266 08-08-2014 09:25:00 16.5 C 96 % 15.86 C
1267 08-08-2014 09:30:00 16.6 C 96 % 15.96 C
1268 08-08-2014 09:35:00 16.8 C 96 % 16.16 C
1269 08-08-2014 09:40:00 16.9 C 96 % 16.26 C
1270 08-08-2014 09:45:00 17 C 96 % 16.36 C
1271 08-08-2014 09:50:00 17.2 C 95 % 16.39 C
1272 08-08-2014 09:55:00 17.3 C 95 % 16.49 C
1273 08-08-2014 10:00:00 17.4 C 95 % 16.59 C
1274 08-08-2014 10:05:00 17.5 C 95 % 16.69 C
1275 08-08-2014 10:10:00 17.7 C 95 % 16.89 C
Sensor: Nr:Datum:Temp:Feuchte:Taupunkt:
Aussen-T/F 1276 08-08-2014 10:15:00 18 C 94 % 17.02 C
1277 08-08-2014 10:20:00 18.2 C 94 % 17.22 C
1278 08-08-2014 10:25:00 18.3 C 94 % 17.32 C
1279 08-08-2014 10:30:00 18.4 C 94 % 17.42 C
1280 08-08-2014 10:35:00 18.6 C 94 % 17.62 C
1281 08-08-2014 10:40:00 18.7 C 93 % 17.54 C
1282 08-08-2014 10:45:00 18.9 C 91 % 17.4 C
1283 08-08-2014 10:50:00 19.3 C 92 % 17.97 C
1284 08-08-2014 10:55:00 19.5 C 92 % 18.17 C
1285 08-08-2014 11:00:00 19.9 C 90 % 18.21 C
1286 08-08-2014 11:05:00 20.6 C 86 % 18.18 C
1287 08-08-2014 11:10:00 21.4 C 80 % 17.81 C
1288 08-08-2014 11:15:00 21.9 C 83 % 18.88 C
1289 08-08-2014 11:20:00 22.3 C 81 % 18.88 C
1290 08-08-2014 11:25:00 22.8 C 76 % 18.35 C
1291 08-08-2014 11:30:00 23.5 C 71 % 17.94 C
1292 08-08-2014 11:35:00 23.9 C 73 % 18.76 C
1293 08-08-2014 11:40:00 24.3 C 70 % 18.48 C
1294 08-08-2014 11:45:00 24.7 C 67 % 18.16 C
1295 08-08-2014 11:50:00 24.9 C 66 % 18.11 C
1296 08-08-2014 11:55:00 25 C 65 % 17.96 C
1297 08-08-2014 12:00:00 25.4 C 64 % 18.09 C
1298 08-08-2014 12:05:00 25.5 C 61 % 17.43 C
1299 08-08-2014 12:10:00 25.3 C 62 % 17.5 C
1300 08-08-2014 12:15:00 24.9 C 63 % 17.37 C
Sensor: Nr:Datum:Temp:Feuchte:Taupunkt:
Aussen-T/F 1301 08-08-2014 12:20:00 24.9 C 63 % 17.37 C
1302 08-08-2014 12:25:00 25.2 C 65 % 18.15 C
1303 08-08-2014 12:30:00 25.3 C 64 % 18 C
1304 08-08-2014 12:35:00 25.7 C 60 % 17.35 C
1305 08-08-2014 12:40:00 25.7 C 58 % 16.82 C
1306 08-08-2014 12:45:00 25.7 C 65 % 18.62 C
1307 08-08-2014 12:50:00 25.8 C 58 % 16.91 C
1308 08-08-2014 12:55:00 26 C 62 % 18.15 C
1309 08-08-2014 13:00:00 26.3 C 59 % 17.65 C
1310 08-08-2014 13:05:00 26.4 C 56 % 16.92 C
1311 08-08-2014 13:10:00 26.3 C 57 % 17.1 C
1312 08-08-2014 13:15:00 26.3 C 56 % 16.82 C
1313 08-08-2014 13:20:00 26.3 C 56 % 16.82 C
1314 08-08-2014 13:25:00 26.4 C 54 % 16.34 C
1315 08-08-2014 13:30:00 26.5 C 57 % 17.29 C
1316 08-08-2014 13:35:00 26.7 C 54 % 16.62 C
1317 08-08-2014 13:40:00 26.6 C 55 % 16.82 C
1318 08-08-2014 13:45:00 26.7 C 53 % 16.33 C
1319 08-08-2014 13:50:00 26.8 C 53 % 16.42 C
1320 08-08-2014 13:55:00 26.8 C 55 % 17 C
1321 08-08-2014 14:00:00 27.1 C 56 % 17.57 C
1322 08-08-2014 14:05:00 27.3 C 54 % 17.18 C
1323 08-08-2014 14:10:00 26.9 C 55 % 17.09 C
1324 08-08-2014 14:15:00 26.4 C 56 % 16.92 C
1325 08-08-2014 14:20:00 26.2 C 57 % 17.01 C
Sensor: Nr:Datum:Temp:Feuchte:Taupunkt:
Aussen-T/F 1326 08-08-2014 14:25:00 26.1 C 58 % 17.19 C
1327 08-08-2014 14:30:00 25.9 C 58 % 17 C
1328 08-08-2014 14:35:00 25.8 C 66 % 18.96 C
1329 08-08-2014 14:40:00 25.8 C 60 % 17.45 C
1330 08-08-2014 14:45:00 25.4 C 69 % 19.3 C
1331 08-08-2014 14:50:00 24.7 C 74 % 19.75 C
1332 08-08-2014 14:55:00 24.7 C 75 % 19.97 C
1333 08-08-2014 15:00:00 24.2 C 76 % 19.7 C
1334 08-08-2014 15:05:00 23.8 C 77 % 19.52 C
1335 08-08-2014 15:10:00 23.5 C 79 % 19.65 C
1336 08-08-2014 15:15:00 23.3 C 80 % 19.65 C
1337 08-08-2014 15:20:00 22.9 C 81 % 19.46 C
1338 08-08-2014 15:25:00 22.7 C 83 % 19.66 C
1339 08-08-2014 15:30:00 22.6 C 84 % 19.76 C
1340 08-08-2014 15:35:00 22.4 C 84 % 19.56 C
1341 08-08-2014 15:40:00 22.2 C 86 % 19.75 C
1342 08-08-2014 15:45:00 21.9 C 88 % 19.82 C
1343 08-08-2014 15:50:00 21.7 C 89 % 19.81 C
1344 08-08-2014 15:55:00 21.6 C 90 % 19.89 C
1345 08-08-2014 16:00:00 21.4 C 91 % 19.87 C
1346 08-08-2014 16:05:00 21.3 C 91 % 19.77 C
1347 08-08-2014 16:10:00 21.2 C 91 % 19.67 C
1348 08-08-2014 16:15:00 21.2 C 92 % 19.85 C
1349 08-08-2014 16:20:00 21.1 C 92 % 19.75 C
1350 08-08-2014 16:25:00 21 C 92 % 19.65 C
Sensor: Nr:Datum:Temp:Feuchte:Taupunkt:
Aussen-T/F 1351 08-08-2014 16:30:00 20.8 C 92 % 19.45 C
1352 08-08-2014 16:35:00 20.7 C 93 % 19.53 C
1353 08-08-2014 16:40:00 20.6 C 93 % 19.43 C
1354 08-08-2014 16:45:00 20.5 C 93 % 19.33 C
1355 08-08-2014 16:50:00 20.3 C 93 % 19.13 C
1356 08-08-2014 16:55:00 20.3 C 93 % 19.13 C
1357 08-08-2014 17:00:00 20.3 C 94 % 19.3 C
1358 08-08-2014 17:05:00 20.2 C 94 % 19.2 C
1359 08-08-2014 17:10:00 20.2 C 94 % 19.2 C
1360 08-08-2014 17:15:00 20.3 C 95 % 19.47 C
1361 08-08-2014 17:20:00 20.3 C 95 % 19.47 C
1362 08-08-2014 17:25:00 20.3 C 95 % 19.47 C
1363 08-08-2014 17:30:00 20.6 C 96 % 19.94 C
1364 08-08-2014 17:35:00 20.7 C 96 % 20.04 C
1365 08-08-2014 17:40:00 20.7 C 95 % 19.87 C
1366 08-08-2014 17:45:00 20.7 C 95 % 19.87 C
1367 08-08-2014 17:50:00 20.6 C 95 % 19.77 C
1368 08-08-2014 17:55:00 20.5 C 95 % 19.67 C
1369 08-08-2014 18:00:00 20.6 C 95 % 19.77 C
1370 08-08-2014 18:05:00 20.5 C 95 % 19.67 C
1371 08-08-2014 18:10:00 20.6 C 95 % 19.77 C
1372 08-08-2014 18:15:00 20.6 C 95 % 19.77 C
1373 08-08-2014 18:20:00 20.6 C 95 % 19.77 C
1374 08-08-2014 18:25:00 20.7 C 95 % 19.87 C
1375 08-08-2014 18:30:00 20.6 C 95 % 19.77 C
Sensor: Nr:Datum:Temp:Feuchte:Taupunkt:
Aussen-T/F 1376 08-08-2014 18:35:00 20.6 C 95 % 19.77 C
1377 08-08-2014 18:40:00 20.7 C 95 % 19.87 C
1378 08-08-2014 18:45:00 20.6 C 95 % 19.77 C
1379 08-08-2014 18:50:00 20.7 C 95 % 19.87 C
1380 08-08-2014 18:55:00 20.7 C 95 % 19.87 C
1381 08-08-2014 19:00:00 20.7 C 95 % 19.87 C
1382 08-08-2014 19:05:00 20.6 C 95 % 19.77 C
1383 08-08-2014 19:10:00 20.5 C 95 % 19.67 C
1384 08-08-2014 19:15:00 20.4 C 95 % 19.57 C
1385 08-08-2014 19:20:00 20.3 C 95 % 19.47 C
1386 08-08-2014 19:25:00 20.3 C 95 % 19.47 C
1387 08-08-2014 19:30:00 20.3 C 95 % 19.47 C
1388 08-08-2014 19:35:00 20.2 C 95 % 19.37 C
1389 08-08-2014 19:40:00 20.3 C 96 % 19.64 C
1390 08-08-2014 19:45:00 20.2 C 95 % 19.37 C
1391 08-08-2014 19:50:00 20.2 C 96 % 19.54 C
1392 08-08-2014 19:55:00 20.2 C 96 % 19.54 C
1393 08-08-2014 20:00:00 20.2 C 96 % 19.54 C
1394 08-08-2014 20:05:00 20.2 C 96 % 19.54 C
1395 08-08-2014 20:10:00 20.2 C 96 % 19.54 C
1396 08-08-2014 20:15:00 20.2 C 96 % 19.54 C
1397 08-08-2014 20:20:00 20.2 C 96 % 19.54 C
1398 08-08-2014 20:25:00 20.1 C 96 % 19.44 C
1399 08-08-2014 20:30:00 20 C 95 % 19.17 C
1400 08-08-2014 20:35:00 19.9 C 95 % 19.07 C
Sensor: Nr:Datum:Temp:Feuchte:Taupunkt:
Aussen-T/F 1401 08-08-2014 20:40:00 19.9 C 95 % 19.07 C
1402 08-08-2014 20:45:00 19.8 C 96 % 19.14 C
1403 08-08-2014 20:50:00 19.7 C 95 % 18.88 C
1404 08-08-2014 20:55:00 19.7 C 95 % 18.88 C
1405 08-08-2014 21:00:00 19.6 C 95 % 18.78 C
1406 08-08-2014 21:05:00 19.5 C 96 % 18.84 C
1407 08-08-2014 21:10:00 19.4 C 96 % 18.75 C
1408 08-08-2014 21:15:00 19.3 C 95 % 18.48 C
1409 08-08-2014 21:20:00 19.2 C 95 % 18.38 C
1410 08-08-2014 21:25:00 19.1 C 96 % 18.45 C
1411 08-08-2014 21:30:00 19.1 C 96 % 18.45 C
1412 08-08-2014 21:35:00 18.9 C 96 % 18.25 C
1413 08-08-2014 21:40:00 18.9 C 96 % 18.25 C
1414 08-08-2014 21:45:00 18.8 C 96 % 18.15 C
1415 08-08-2014 21:50:00 18.8 C 96 % 18.15 C
1416 08-08-2014 21:55:00 18.8 C 96 % 18.15 C
1417 08-08-2014 22:00:00 18.8 C 96 % 18.15 C
1418 08-08-2014 22:05:00 18.8 C 96 % 18.15 C
1419 08-08-2014 22:10:00 18.7 C 96 % 18.05 C
1420 08-08-2014 22:15:00 18.7 C 96 % 18.05 C
1421 08-08-2014 22:20:00 18.7 C 96 % 18.05 C
1422 08-08-2014 22:25:00 18.7 C 96 % 18.05 C
1423 08-08-2014 22:30:00 18.7 C 96 % 18.05 C
1424 08-08-2014 22:35:00 18.8 C 96 % 18.15 C
1425 08-08-2014 22:40:00 18.7 C 96 % 18.05 C
Sensor: Nr:Datum:Temp:Feuchte:Taupunkt:
Aussen-T/F 1426 08-08-2014 22:45:00 18.8 C 96 % 18.15 C
1427 08-08-2014 22:50:00 18.8 C 96 % 18.15 C
1428 08-08-2014 22:55:00 18.8 C 96 % 18.15 C
1429 08-08-2014 23:00:00 18.8 C 96 % 18.15 C
1430 08-08-2014 23:05:00 18.7 C 96 % 18.05 C
1431 08-08-2014 23:10:00 18.7 C 96 % 18.05 C
1432 08-08-2014 23:15:00 18.7 C 96 % 18.05 C
1433 08-08-2014 23:20:00 18.7 C 96 % 18.05 C
1434 08-08-2014 23:25:00 18.6 C 96 % 17.95 C
1435 08-08-2014 23:30:00 18.6 C 96 % 17.95 C
1436 08-08-2014 23:35:00 18.6 C 96 % 17.95 C
1437 08-08-2014 23:40:00 18.5 C 96 % 17.85 C
1438 08-08-2014 23:45:00 18.6 C 96 % 17.95 C
1439 08-08-2014 23:50:00 18.5 C 96 % 17.85 C
1440 08-08-2014 23:55:00 18.5 C 96 % 17.85 C
1441 09-08-2014 00:00:00 18.5 C 95 % 17.68 C
1442 09-08-2014 00:05:00 18.5 C 95 % 17.68 C
1443 09-08-2014 00:10:00 18.5 C 95 % 17.68 C
1444 09-08-2014 00:15:00 18.5 C 95 % 17.68 C
1445 09-08-2014 00:20:00 18.6 C 96 % 17.95 C
1446 09-08-2014 00:25:00 18.6 C 96 % 17.95 C
1447 09-08-2014 00:30:00 18.7 C 96 % 18.05 C
1448 09-08-2014 00:35:00 18.7 C 96 % 18.05 C
1449 09-08-2014 00:40:00 18.7 C 96 % 18.05 C
1450 09-08-2014 00:45:00 18.8 C 96 % 18.15 C
Sensor: Nr:Datum:Temp:Feuchte:Taupunkt:
Aussen-T/F 1451 09-08-2014 00:50:00 18.8 C 95 % 17.98 C
1452 09-08-2014 00:55:00 18.8 C 95 % 17.98 C
1453 09-08-2014 01:00:00 18.8 C 95 % 17.98 C
1454 09-08-2014 01:05:00 18.8 C 95 % 17.98 C
1455 09-08-2014 01:10:00 18.8 C 95 % 17.98 C
1456 09-08-2014 01:15:00 18.8 C 95 % 17.98 C
1457 09-08-2014 01:20:00 18.8 C 95 % 17.98 C
1458 09-08-2014 01:25:00 18.8 C 95 % 17.98 C
1459 09-08-2014 01:30:00 18.8 C 95 % 17.98 C
1460 09-08-2014 01:35:00 18.8 C 95 % 17.98 C
1461 09-08-2014 01:40:00 18.8 C 95 % 17.98 C
1462 09-08-2014 01:45:00 18.8 C 95 % 17.98 C
1463 09-08-2014 01:50:00 18.8 C 95 % 17.98 C
1464 09-08-2014 01:55:00 18.8 C 95 % 17.98 C
1465 09-08-2014 02:00:00 18.9 C 94 % 17.91 C
1466 09-08-2014 02:05:00 18.9 C 94 % 17.91 C
1467 09-08-2014 02:10:00 19 C 94 % 18.01 C
1468 09-08-2014 02:15:00 19.6 C 92 % 18.26 C
1469 09-08-2014 02:20:00 20.1 C 90 % 18.41 C
1470 09-08-2014 02:25:00 20 C 91 % 18.49 C
1471 09-08-2014 02:30:00 19.8 C 92 % 18.46 C
1472 09-08-2014 02:35:00 19.6 C 93 % 18.44 C
1473 09-08-2014 02:40:00 19.4 C 94 % 18.41 C
1474 09-08-2014 02:45:00 19.3 C 94 % 18.31 C
1475 09-08-2014 02:50:00 19.2 C 95 % 18.38 C
Sensor: Nr:Datum:Temp:Feuchte:Taupunkt:
Aussen-T/F 1476 09-08-2014 02:55:00 19.1 C 95 % 18.28 C
1477 09-08-2014 03:00:00 19 C 96 % 18.35 C
1478 09-08-2014 03:05:00 18.9 C 96 % 18.25 C
1479 09-08-2014 03:10:00 18.9 C 96 % 18.25 C
1480 09-08-2014 03:15:00 18.9 C 96 % 18.25 C
1481 09-08-2014 03:20:00 18.9 C 96 % 18.25 C
1482 09-08-2014 03:25:00 18.9 C 96 % 18.25 C
1483 09-08-2014 03:30:00 18.8 C 96 % 18.15 C
1484 09-08-2014 03:35:00 18.8 C 96 % 18.15 C
1485 09-08-2014 03:40:00 18.8 C 97 % 18.31 C
1486 09-08-2014 03:45:00 18.8 C 97 % 18.31 C
1487 09-08-2014 03:50:00 18.8 C 97 % 18.31 C
1488 09-08-2014 03:55:00 18.7 C 97 % 18.21 C
1489 09-08-2014 04:00:00 18.8 C 97 % 18.31 C
1490 09-08-2014 04:05:00 18.8 C 97 % 18.31 C
1491 09-08-2014 04:10:00 18.7 C 97 % 18.21 C
1492 09-08-2014 04:15:00 18.7 C 97 % 18.21 C
1493 09-08-2014 04:20:00 18.7 C 97 % 18.21 C
1494 09-08-2014 04:25:00 18.7 C 97 % 18.21 C
1495 09-08-2014 04:30:00 18.7 C 97 % 18.21 C
1496 09-08-2014 04:35:00 18.7 C 97 % 18.21 C
1497 09-08-2014 04:40:00 18.7 C 97 % 18.21 C
1498 09-08-2014 04:45:00 18.6 C 97 % 18.11 C
1499 09-08-2014 04:50:00 18.6 C 97 % 18.11 C
1500 09-08-2014 04:55:00 18.6 C 97 % 18.11 C
Sensor: Nr:Datum:Temp:Feuchte:Taupunkt:
Aussen-T/F 1501 09-08-2014 05:00:00 18.5 C 97 % 18.01 C
1502 09-08-2014 05:05:00 18.4 C 97 % 17.91 C
1503 09-08-2014 05:10:00 18.3 C 97 % 17.82 C
1504 09-08-2014 05:15:00 18.3 C 97 % 17.82 C
1505 09-08-2014 05:20:00 18.3 C 97 % 17.82 C
1506 09-08-2014 05:25:00 18.3 C 97 % 17.82 C
1507 09-08-2014 05:30:00 18.3 C 97 % 17.82 C
1508 09-08-2014 05:35:00 18.2 C 97 % 17.72 C
1509 09-08-2014 05:40:00 18.3 C 97 % 17.82 C
1510 09-08-2014 05:45:00 18.3 C 96 % 17.65 C
1511 09-08-2014 05:50:00 18.4 C 95 % 17.58 C
1512 09-08-2014 05:55:00 18.6 C 94 % 17.62 C
1513 09-08-2014 06:00:00 18.6 C 94 % 17.62 C
1514 09-08-2014 06:05:00 18.6 C 93 % 17.45 C
1515 09-08-2014 06:10:00 18.6 C 93 % 17.45 C
1516 09-08-2014 06:15:00 18.6 C 93 % 17.45 C
1517 09-08-2014 06:20:00 18.6 C 92 % 17.27 C
1518 09-08-2014 06:25:00 18.6 C 92 % 17.27 C
1519 09-08-2014 06:30:00 18.6 C 92 % 17.27 C
1520 09-08-2014 06:35:00 18.7 C 91 % 17.2 C
1521 09-08-2014 06:40:00 18.7 C 91 % 17.2 C
1522 09-08-2014 06:45:00 18.7 C 91 % 17.2 C
1523 09-08-2014 06:50:00 18.6 C 91 % 17.1 C
1524 09-08-2014 06:55:00 18.6 C 91 % 17.1 C
1525 09-08-2014 07:00:00 18.6 C 91 % 17.1 C
Sensor: Nr:Datum:Temp:Feuchte:Taupunkt:
Aussen-T/F 1526 09-08-2014 07:05:00 18.6 C 91 % 17.1 C
1527 09-08-2014 07:10:00 18.6 C 91 % 17.1 C
1528 09-08-2014 07:15:00 18.5 C 91 % 17 C
1529 09-08-2014 07:20:00 18.6 C 91 % 17.1 C
1530 09-08-2014 07:25:00 18.7 C 91 % 17.2 C
1531 09-08-2014 07:30:00 18.6 C 91 % 17.1 C
1532 09-08-2014 07:35:00 18.6 C 91 % 17.1 C
1533 09-08-2014 07:40:00 18.7 C 91 % 17.2 C
1534 09-08-2014 07:45:00 18.8 C 91 % 17.3 C
1535 09-08-2014 07:50:00 18.9 C 90 % 17.22 C
1536 09-08-2014 07:55:00 19.1 C 90 % 17.42 C
1537 09-08-2014 08:00:00 19.3 C 90 % 17.62 C
1538 09-08-2014 08:05:00 19.3 C 89 % 17.44 C
1539 09-08-2014 08:10:00 19.4 C 89 % 17.54 C
1540 09-08-2014 08:15:00 19.4 C 89 % 17.54 C
1541 09-08-2014 08:20:00 19.4 C 89 % 17.54 C
1542 09-08-2014 08:25:00 19.6 C 89 % 17.74 C
1543 09-08-2014 08:30:00 19.7 C 89 % 17.84 C
1544 09-08-2014 08:35:00 19.7 C 89 % 17.84 C
1545 09-08-2014 08:40:00 19.7 C 89 % 17.84 C
1546 09-08-2014 08:45:00 19.7 C 89 % 17.84 C
1547 09-08-2014 08:50:00 19.7 C 88 % 17.66 C
1548 09-08-2014 08:55:00 19.9 C 87 % 17.67 C
1549 09-08-2014 09:00:00 20.1 C 86 % 17.68 C
1550 09-08-2014 09:05:00 20.1 C 87 % 17.87 C
Sensor: Nr:Datum:Temp:Feuchte:Taupunkt:
Aussen-T/F 1551 09-08-2014 09:10:00 20 C 88 % 17.95 C
1552 09-08-2014 09:15:00 19.8 C 89 % 17.93 C
1553 09-08-2014 09:20:00 19.8 C 90 % 18.11 C
1554 09-08-2014 09:25:00 19.7 C 90 % 18.01 C
1555 09-08-2014 09:30:00 19.7 C 90 % 18.01 C
1556 09-08-2014 09:35:00 19.8 C 89 % 17.93 C
1557 09-08-2014 09:40:00 19.9 C 89 % 18.03 C
1558 09-08-2014 09:45:00 19.9 C 89 % 18.03 C
1559 09-08-2014 09:50:00 19.9 C 89 % 18.03 C
1560 09-08-2014 09:55:00 19.8 C 90 % 18.11 C
1561 09-08-2014 10:00:00 19.6 C 91 % 18.09 C
1562 09-08-2014 10:05:00 19.4 C 90 % 17.72 C
1563 09-08-2014 10:10:00 19.3 C 90 % 17.62 C
1564 09-08-2014 10:15:00 19.4 C 91 % 17.89 C
1565 09-08-2014 10:20:00 19.4 C 90 % 17.72 C
1566 09-08-2014 10:25:00 19.6 C 91 % 18.09 C
1567 09-08-2014 10:30:00 19.7 C 89 % 17.84 C
1568 09-08-2014 10:35:00 19.7 C 84 % 16.92 C
1569 09-08-2014 10:40:00 19.7 C 82 % 16.54 C
1570 09-08-2014 10:45:00 19.6 C 81 % 16.25 C
1571 09-08-2014 10:50:00 19.6 C 80 % 16.06 C
1572 09-08-2014 10:55:00 19.8 C 80 % 16.25 C
1573 09-08-2014 11:00:00 20.1 C 80 % 16.54 C
1574 09-08-2014 11:05:00 20.3 C 78 % 16.34 C
1575 09-08-2014 11:10:00 20.4 C 77 % 16.23 C
Sensor: Nr:Datum:Temp:Feuchte:Taupunkt:
Aussen-T/F 1576 09-08-2014 11:15:00 20.4 C 74 % 15.61 C
1577 09-08-2014 11:20:00 20.4 C 74 % 15.61 C
1578 09-08-2014 11:25:00 20.3 C 74 % 15.51 C
1579 09-08-2014 11:30:00 20.2 C 74 % 15.42 C
1580 09-08-2014 11:35:00 20.3 C 73 % 15.3 C
1581 09-08-2014 11:40:00 20.3 C 73 % 15.3 C
1582 09-08-2014 11:45:00 20.3 C 72 % 15.09 C
1583 09-08-2014 11:50:00 20.3 C 71 % 14.87 C
1584 09-08-2014 11:55:00 20.4 C 72 % 15.18 C
1585 09-08-2014 12:00:00 20.6 C 69 % 14.71 C
1586 09-08-2014 12:05:00 20.8 C 69 % 14.91 C
1587 09-08-2014 12:10:00 21 C 67 % 14.64 C
1588 09-08-2014 12:15:00 21.1 C 66 % 14.5 C
1589 09-08-2014 12:20:00 21.2 C 65 % 14.36 C
1590 09-08-2014 12:25:00 21.5 C 67 % 15.12 C
1591 09-08-2014 12:30:00 21.8 C 64 % 14.69 C
1592 09-08-2014 12:35:00 21.9 C 66 % 15.26 C
1593 09-08-2014 12:40:00 22.1 C 63 % 14.73 C
1594 09-08-2014 12:45:00 22.1 C 63 % 14.73 C
1595 09-08-2014 12:50:00 22.2 C 63 % 14.82 C
1596 09-08-2014 12:55:00 22.1 C 64 % 14.97 C
1597 09-08-2014 13:00:00 21.9 C 62 % 14.29 C
1598 09-08-2014 13:05:00 22.1 C 64 % 14.97 C
1599 09-08-2014 13:10:00 22.2 C 61 % 14.32 C
1600 09-08-2014 13:15:00 22.2 C 61 % 14.32 C
Sensor: Nr:Datum:Temp:Feuchte:Taupunkt:
Aussen-T/F 1601 09-08-2014 13:20:00 22.1 C 61 % 14.23 C
1602 09-08-2014 13:25:00 22.1 C 64 % 14.97 C
1603 09-08-2014 13:30:00 22.2 C 63 % 14.82 C
1604 09-08-2014 13:35:00 22.3 C 61 % 14.42 C
1605 09-08-2014 13:40:00 22.1 C 62 % 14.48 C
1606 09-08-2014 13:45:00 22 C 62 % 14.39 C
1607 09-08-2014 13:50:00 22.1 C 62 % 14.48 C
1608 09-08-2014 13:55:00 22.2 C 62 % 14.58 C
1609 09-08-2014 14:00:00 22.3 C 62 % 14.67 C
1610 09-08-2014 14:05:00 22.4 C 63 % 15.01 C
1611 09-08-2014 14:10:00 22.4 C 63 % 15.01 C
1612 09-08-2014 14:15:00 22.3 C 60 % 14.16 C
1613 09-08-2014 14:20:00 22.4 C 63 % 15.01 C
1614 09-08-2014 14:25:00 22.7 C 62 % 15.05 C
1615 09-08-2014 14:30:00 22.8 C 60 % 14.63 C
1616 09-08-2014 14:35:00 23.3 C 57 % 14.31 C
1617 09-08-2014 14:40:00 23.6 C 58 % 14.86 C
1618 09-08-2014 14:45:00 23.3 C 59 % 14.84 C
1619 09-08-2014 14:50:00 23.2 C 58 % 14.48 C
1620 09-08-2014 14:55:00 23.2 C 63 % 15.77 C
1621 09-08-2014 15:00:00 23.6 C 57 % 14.59 C
1622 09-08-2014 15:05:00 23.8 C 58 % 15.04 C
1623 09-08-2014 15:10:00 23.8 C 57 % 14.77 C
1624 09-08-2014 15:15:00 24.1 C 55 % 14.5 C
1625 09-08-2014 15:20:00 24.3 C 57 % 15.24 C
Sensor: Nr:Datum:Temp:Feuchte:Taupunkt:
Aussen-T/F 1626 09-08-2014 15:25:00 24.3 C 56 % 14.96 C
1627 09-08-2014 15:30:00 24.4 C 56 % 15.06 C
1628 09-08-2014 15:35:00 24.4 C 56 % 15.06 C
1629 09-08-2014 15:40:00 24.4 C 56 % 15.06 C
1630 09-08-2014 15:45:00 24.6 C 55 % 14.96 C
1631 09-08-2014 15:50:00 24.6 C 56 % 15.24 C
1632 09-08-2014 15:55:00 24.6 C 54 % 14.68 C
1633 09-08-2014 16:00:00 24.4 C 55 % 14.78 C
1634 09-08-2014 16:05:00 24.5 C 55 % 14.87 C
1635 09-08-2014 16:10:00 24.7 C 53 % 14.48 C
1636 09-08-2014 16:15:00 24.8 C 54 % 14.86 C
1637 09-08-2014 16:20:00 25 C 54 % 15.05 C
1638 09-08-2014 16:25:00 25.1 C 52 % 14.55 C
1639 09-08-2014 16:30:00 25.2 C 52 % 14.65 C
1640 09-08-2014 16:35:00 25.2 C 51 % 14.35 C
1641 09-08-2014 16:40:00 25.1 C 50 % 13.95 C
1642 09-08-2014 16:45:00 25 C 51 % 14.16 C
1643 09-08-2014 16:50:00 25.1 C 52 % 14.55 C
1644 09-08-2014 16:55:00 25.4 C 52 % 14.83 C
1645 09-08-2014 17:00:00 25.3 C 51 % 14.44 C
1646 09-08-2014 17:05:00 25.2 C 50 % 14.04 C
1647 09-08-2014 17:10:00 24.9 C 52 % 14.37 C
1648 09-08-2014 17:15:00 24.8 C 53 % 14.57 C
1649 09-08-2014 17:20:00 24.7 C 52 % 14.19 C
1650 09-08-2014 17:25:00 24.5 C 54 % 14.58 C
Sensor: Nr:Datum:Temp:Feuchte:Taupunkt:
Aussen-T/F 1651 09-08-2014 17:30:00 24.4 C 55 % 14.78 C
1652 09-08-2014 17:35:00 24.6 C 59 % 16.06 C
1653 09-08-2014 17:40:00 24.6 C 55 % 14.96 C
1654 09-08-2014 17:45:00 24.6 C 54 % 14.68 C
1655 09-08-2014 17:50:00 24.6 C 59 % 16.06 C
1656 09-08-2014 17:55:00 24.4 C 66 % 17.64 C
1657 09-08-2014 18:00:00 24 C 60 % 15.76 C
1658 09-08-2014 18:05:00 23.7 C 63 % 16.24 C
1659 09-08-2014 18:10:00 23.4 C 63 % 15.96 C
1660 09-08-2014 18:15:00 23.4 C 68 % 17.16 C
1661 09-08-2014 18:20:00 23.4 C 67 % 16.92 C
1662 09-08-2014 18:25:00 23.1 C 70 % 17.33 C
1663 09-08-2014 18:30:00 22.8 C 68 % 16.59 C
1664 09-08-2014 18:35:00 22.5 C 74 % 17.63 C
1665 09-08-2014 18:40:00 22.3 C 75 % 17.65 C
1666 09-08-2014 18:45:00 22.1 C 75 % 17.46 C
1667 09-08-2014 18:50:00 22.1 C 77 % 17.88 C
1668 09-08-2014 18:55:00 22.1 C 76 % 17.67 C
1669 09-08-2014 19:00:00 22.3 C 76 % 17.86 C
1670 09-08-2014 19:05:00 22.5 C 75 % 17.85 C
1671 09-08-2014 19:10:00 22.5 C 74 % 17.63 C
1672 09-08-2014 19:15:00 22.4 C 75 % 17.75 C
1673 09-08-2014 19:20:00 22.2 C 75 % 17.56 C
1674 09-08-2014 19:25:00 21.9 C 76 % 17.48 C
1675 09-08-2014 19:30:00 21.6 C 76 % 17.19 C
Sensor: Nr:Datum:Temp:Feuchte:Taupunkt:
Aussen-T/F 1676 09-08-2014 19:35:00 21.2 C 77 % 17.01 C
1677 09-08-2014 19:40:00 20.8 C 79 % 17.02 C
1678 09-08-2014 19:45:00 20.7 C 79 % 16.93 C
1679 09-08-2014 19:50:00 20.4 C 79 % 16.64 C
1680 09-08-2014 19:55:00 20.2 C 79 % 16.44 C
1681 09-08-2014 20:00:00 20 C 79 % 16.25 C
1682 09-08-2014 20:05:00 19.7 C 80 % 16.15 C
1683 09-08-2014 20:10:00 19.4 C 81 % 16.06 C
1684 09-08-2014 20:15:00 19.2 C 82 % 16.05 C
1685 09-08-2014 20:20:00 19 C 83 % 16.05 C
1686 09-08-2014 20:25:00 18.8 C 83 % 15.85 C
1687 09-08-2014 20:30:00 18.7 C 83 % 15.75 C
1688 09-08-2014 20:35:00 18.6 C 83 % 15.66 C
1689 09-08-2014 20:40:00 18.5 C 83 % 15.56 C
1690 09-08-2014 20:45:00 18.4 C 83 % 15.46 C
1691 09-08-2014 20:50:00 18.3 C 83 % 15.36 C
1692 09-08-2014 20:55:00 18.2 C 83 % 15.27 C
1693 09-08-2014 21:00:00 18.2 C 83 % 15.27 C
1694 09-08-2014 21:05:00 18 C 83 % 15.07 C
1695 09-08-2014 21:10:00 17.9 C 84 % 15.16 C
1696 09-08-2014 21:15:00 17.8 C 84 % 15.06 C
1697 09-08-2014 21:20:00 17.7 C 84 % 14.96 C
1698 09-08-2014 21:25:00 17.6 C 85 % 15.05 C
1699 09-08-2014 21:30:00 17.6 C 85 % 15.05 C
1700 09-08-2014 21:35:00 17.4 C 85 % 14.85 C
Sensor: Nr:Datum:Temp:Feuchte:Taupunkt:
Aussen-T/F 1701 09-08-2014 21:40:00 17.3 C 85 % 14.76 C
1702 09-08-2014 21:45:00 17.3 C 85 % 14.76 C
1703 09-08-2014 21:50:00 17.2 C 85 % 14.66 C
1704 09-08-2014 21:55:00 17.1 C 86 % 14.74 C
1705 09-08-2014 22:00:00 17 C 86 % 14.64 C
1706 09-08-2014 22:05:00 16.9 C 86 % 14.54 C
1707 09-08-2014 22:10:00 16.8 C 86 % 14.45 C
1708 09-08-2014 22:15:00 16.8 C 87 % 14.62 C
1709 09-08-2014 22:20:00 16.8 C 87 % 14.62 C
1710 09-08-2014 22:25:00 16.8 C 88 % 14.8 C
1711 09-08-2014 22:30:00 16.7 C 87 % 14.53 C
1712 09-08-2014 22:35:00 16.7 C 87 % 14.53 C
1713 09-08-2014 22:40:00 16.7 C 88 % 14.7 C
1714 09-08-2014 22:45:00 16.6 C 87 % 14.43 C
1715 09-08-2014 22:50:00 16.6 C 88 % 14.6 C
1716 09-08-2014 22:55:00 16.4 C 88 % 14.41 C
1717 09-08-2014 23:00:00 16.4 C 88 % 14.41 C
1718 09-08-2014 23:05:00 16.5 C 88 % 14.51 C
1719 09-08-2014 23:10:00 16.6 C 87 % 14.43 C
1720 09-08-2014 23:15:00 16.6 C 87 % 14.43 C
1721 09-08-2014 23:20:00 16.6 C 87 % 14.43 C
1722 09-08-2014 23:25:00 16.6 C 87 % 14.43 C
1723 09-08-2014 23:30:00 16.6 C 87 % 14.43 C
1724 09-08-2014 23:35:00 16.7 C 87 % 14.53 C
1725 09-08-2014 23:40:00 16.6 C 88 % 14.6 C
Sensor: Nr:Datum:Temp:Feuchte:Taupunkt:
Aussen-T/F 1726 09-08-2014 23:45:00 16.6 C 88 % 14.6 C
1727 09-08-2014 23:50:00 16.5 C 89 % 14.68 C
1728 09-08-2014 23:55:00 16.4 C 89 % 14.58 C
1729 10-08-2014 00:00:00 16.3 C 89 % 14.48 C
1730 10-08-2014 00:05:00 16.3 C 89 % 14.48 C
1731 10-08-2014 00:10:00 16.3 C 90 % 14.66 C
1732 10-08-2014 00:15:00 16.3 C 90 % 14.66 C
1733 10-08-2014 00:20:00 16.3 C 90 % 14.66 C
1734 10-08-2014 00:25:00 16.3 C 90 % 14.66 C
1735 10-08-2014 00:30:00 16.2 C 90 % 14.56 C
1736 10-08-2014 00:35:00 16.2 C 90 % 14.56 C
1737 10-08-2014 00:40:00 16.2 C 91 % 14.73 C
1738 10-08-2014 00:45:00 16.2 C 91 % 14.73 C
1739 10-08-2014 00:50:00 16.2 C 91 % 14.73 C
1740 10-08-2014 00:55:00 16.2 C 90 % 14.56 C
1741 10-08-2014 01:00:00 16.2 C 91 % 14.73 C
1742 10-08-2014 01:05:00 16.1 C 91 % 14.63 C
1743 10-08-2014 01:10:00 16.1 C 91 % 14.63 C
1744 10-08-2014 01:15:00 16.1 C 92 % 14.8 C
1745 10-08-2014 01:20:00 16.2 C 92 % 14.9 C
1746 10-08-2014 01:25:00 16.2 C 92 % 14.9 C
1747 10-08-2014 01:30:00 16.2 C 91 % 14.73 C
1748 10-08-2014 01:35:00 16.2 C 91 % 14.73 C
1749 10-08-2014 01:40:00 16.3 C 91 % 14.83 C
1750 10-08-2014 01:45:00 16.3 C 91 % 14.83 C
Sensor: Nr:Datum:Temp:Feuchte:Taupunkt:
Aussen-T/F 1751 10-08-2014 01:50:00 16.3 C 91 % 14.83 C
1752 10-08-2014 01:55:00 16.3 C 91 % 14.83 C
1753 10-08-2014 02:00:00 16.3 C 91 % 14.83 C
1754 10-08-2014 02:05:00 16.3 C 91 % 14.83 C
1755 10-08-2014 02:10:00 16.3 C 91 % 14.83 C
1756 10-08-2014 02:15:00 16.3 C 92 % 15 C
1757 10-08-2014 02:20:00 16.3 C 92 % 15 C
1758 10-08-2014 02:25:00 16.3 C 92 % 15 C
1759 10-08-2014 02:30:00 16.3 C 92 % 15 C
1760 10-08-2014 02:35:00 16.3 C 92 % 15 C
1761 10-08-2014 02:40:00 16.3 C 92 % 15 C
1762 10-08-2014 02:45:00 16.3 C 92 % 15 C
1763 10-08-2014 02:50:00 16.3 C 92 % 15 C
1764 10-08-2014 02:55:00 16.3 C 92 % 15 C
1765 10-08-2014 03:00:00 16.3 C 92 % 15 C
1766 10-08-2014 03:05:00 16.3 C 92 % 15 C
1767 10-08-2014 03:10:00 16.3 C 92 % 15 C
1768 10-08-2014 03:15:00 16.3 C 92 % 15 C
1769 10-08-2014 03:20:00 16.3 C 92 % 15 C
1770 10-08-2014 03:25:00 16.4 C 92 % 15.1 C
1771 10-08-2014 03:30:00 16.4 C 92 % 15.1 C
1772 10-08-2014 03:35:00 16.4 C 92 % 15.1 C
1773 10-08-2014 03:40:00 16.4 C 92 % 15.1 C
1774 10-08-2014 03:45:00 16.4 C 92 % 15.1 C
1775 10-08-2014 03:50:00 16.3 C 92 % 15 C
Sensor: Nr:Datum:Temp:Feuchte:Taupunkt:
Aussen-T/F 1776 10-08-2014 03:55:00 16.3 C 92 % 15 C
1777 10-08-2014 04:00:00 16.3 C 92 % 15 C
1778 10-08-2014 04:05:00 16.3 C 92 % 15 C
1779 10-08-2014 04:10:00 16.3 C 92 % 15 C
1780 10-08-2014 04:15:00 16.3 C 92 % 15 C
1781 10-08-2014 04:20:00 16.2 C 92 % 14.9 C
1782 10-08-2014 04:25:00 16.2 C 93 % 15.07 C
1783 10-08-2014 04:30:00 16.2 C 93 % 15.07 C
1784 10-08-2014 04:35:00 16.1 C 93 % 14.97 C
1785 10-08-2014 04:40:00 16.1 C 93 % 14.97 C
1786 10-08-2014 04:45:00 16.1 C 93 % 14.97 C
1787 10-08-2014 04:50:00 16 C 93 % 14.87 C
1788 10-08-2014 04:55:00 16 C 93 % 14.87 C
1789 10-08-2014 05:00:00 15.9 C 92 % 14.6 C
1790 10-08-2014 05:05:00 15.9 C 92 % 14.6 C
1791 10-08-2014 05:10:00 15.9 C 93 % 14.77 C
1792 10-08-2014 05:15:00 15.9 C 92 % 14.6 C
1793 10-08-2014 05:20:00 16 C 92 % 14.7 C
1794 10-08-2014 05:25:00 16 C 92 % 14.7 C
1795 10-08-2014 05:30:00 15.9 C 92 % 14.6 C
1796 10-08-2014 05:35:00 15.8 C 91 % 14.33 C
1797 10-08-2014 05:40:00 15.8 C 92 % 14.5 C
1798 10-08-2014 05:45:00 15.7 C 91 % 14.24 C
1799 10-08-2014 05:50:00 15.6 C 91 % 14.14 C
1800 10-08-2014 05:55:00 15.5 C 91 % 14.04 C
Sensor: Nr:Datum:Temp:Feuchte:Taupunkt:
Aussen-T/F 1801 10-08-2014 06:00:00 15.4 C 91 % 13.94 C
1802 10-08-2014 06:05:00 15.4 C 91 % 13.94 C
1803 10-08-2014 06:10:00 15.3 C 92 % 14.01 C
1804 10-08-2014 06:15:00 15.3 C 92 % 14.01 C
1805 10-08-2014 06:20:00 15.3 C 92 % 14.01 C
1806 10-08-2014 06:25:00 15.3 C 92 % 14.01 C
1807 10-08-2014 06:30:00 15.3 C 93 % 14.18 C
1808 10-08-2014 06:35:00 15.2 C 93 % 14.08 C
1809 10-08-2014 06:40:00 15.2 C 93 % 14.08 C
1810 10-08-2014 06:45:00 15.2 C 93 % 14.08 C
1811 10-08-2014 06:50:00 15.2 C 93 % 14.08 C
1812 10-08-2014 06:55:00 15.1 C 93 % 13.98 C
1813 10-08-2014 07:00:00 15.2 C 93 % 14.08 C
1814 10-08-2014 07:05:00 15.2 C 94 % 14.24 C
1815 10-08-2014 07:10:00 15.3 C 93 % 14.18 C
1816 10-08-2014 07:15:00 15.3 C 93 % 14.18 C
1817 10-08-2014 07:20:00 15.4 C 93 % 14.27 C
1818 10-08-2014 07:25:00 15.4 C 93 % 14.27 C
1819 10-08-2014 07:30:00 15.4 C 94 % 14.44 C
1820 10-08-2014 07:35:00 15.6 C 94 % 14.64 C
1821 10-08-2014 07:40:00 15.7 C 94 % 14.74 C
1822 10-08-2014 07:45:00 15.9 C 94 % 14.94 C
1823 10-08-2014 07:50:00 16.2 C 93 % 15.07 C
1824 10-08-2014 07:55:00 16.4 C 93 % 15.27 C
1825 10-08-2014 08:00:00 16.7 C 93 % 15.56 C
Sensor: Nr:Datum:Temp:Feuchte:Taupunkt:
Aussen-T/F 1826 10-08-2014 08:05:00 16.9 C 93 % 15.76 C
1827 10-08-2014 08:10:00 17.2 C 92 % 15.89 C
1828 10-08-2014 08:15:00 17.3 C 91 % 15.82 C
1829 10-08-2014 08:20:00 17.4 C 91 % 15.92 C
1830 10-08-2014 08:25:00 17.7 C 89 % 15.86 C
1831 10-08-2014 08:30:00 17.8 C 88 % 15.79 C
1832 10-08-2014 08:35:00 18.1 C 88 % 16.08 C
1833 10-08-2014 08:40:00 18.2 C 88 % 16.18 C
1834 10-08-2014 08:45:00 18.2 C 88 % 16.18 C
1835 10-08-2014 08:50:00 18.1 C 89 % 16.26 C
1836 10-08-2014 08:55:00 18 C 89 % 16.16 C
1837 10-08-2014 09:00:00 18.1 C 90 % 16.43 C
1838 10-08-2014 09:05:00 18.3 C 87 % 16.1 C
1839 10-08-2014 09:10:00 18.7 C 86 % 16.31 C
1840 10-08-2014 09:15:00 19.1 C 86 % 16.7 C
1841 10-08-2014 09:20:00 19.4 C 84 % 16.63 C
1842 10-08-2014 09:25:00 19.7 C 83 % 16.73 C
1843 10-08-2014 09:30:00 20 C 84 % 17.21 C
1844 10-08-2014 09:35:00 20.2 C 82 % 17.03 C
1845 10-08-2014 09:40:00 20.3 C 83 % 17.32 C
1846 10-08-2014 09:45:00 20.4 C 83 % 17.42 C
1847 10-08-2014 09:50:00 20.5 C 82 % 17.32 C
1848 10-08-2014 09:55:00 20.7 C 81 % 17.32 C
1849 10-08-2014 10:00:00 20.8 C 81 % 17.42 C
1850 10-08-2014 10:05:00 20.9 C 80 % 17.32 C
Sensor: Nr:Datum:Temp:Feuchte:Taupunkt:
Aussen-T/F 1851 10-08-2014 10:10:00 21.1 C 80 % 17.51 C
1852 10-08-2014 10:15:00 21.1 C 81 % 17.71 C
1853 10-08-2014 10:20:00 21.1 C 80 % 17.51 C
1854 10-08-2014 10:25:00 21.1 C 80 % 17.51 C
1855 10-08-2014 10:30:00 21.1 C 80 % 17.51 C
1856 10-08-2014 10:35:00 21.2 C 81 % 17.81 C
1857 10-08-2014 10:40:00 21.4 C 80 % 17.81 C
1858 10-08-2014 10:45:00 21.6 C 80 % 18 C
1859 10-08-2014 10:50:00 21.8 C 80 % 18.2 C
1860 10-08-2014 10:55:00 21.9 C 79 % 18.09 C
1861 10-08-2014 11:00:00 21.9 C 79 % 18.09 C
1862 10-08-2014 11:05:00 22.1 C 79 % 18.29 C
1863 10-08-2014 11:10:00 22.2 C 78 % 18.18 C
1864 10-08-2014 11:15:00 22.4 C 78 % 18.37 C
1865 10-08-2014 11:20:00 22.7 C 80 % 19.07 C
1866 10-08-2014 11:25:00 22.8 C 77 % 18.56 C
1867 10-08-2014 11:30:00 23 C 78 % 18.96 C
1868 10-08-2014 11:35:00 23.1 C 77 % 18.85 C
1869 10-08-2014 11:40:00 23.2 C 77 % 18.94 C
1870 10-08-2014 11:45:00 23.3 C 76 % 18.83 C
1871 10-08-2014 11:50:00 23.4 C 77 % 19.14 C
1872 10-08-2014 11:55:00 23.5 C 76 % 19.02 C
1873 10-08-2014 12:00:00 23.7 C 77 % 19.43 C
1874 10-08-2014 12:05:00 23.8 C 74 % 18.89 C
1875 10-08-2014 12:10:00 23.8 C 73 % 18.67 C
Sensor: Nr:Datum:Temp:Feuchte:Taupunkt:
Aussen-T/F 1876 10-08-2014 12:15:00 23.6 C 74 % 18.69 C
1877 10-08-2014 12:20:00 23.7 C 72 % 18.35 C
1878 10-08-2014 12:25:00 23.9 C 74 % 18.98 C
1879 10-08-2014 12:30:00 24.2 C 73 % 19.05 C
1880 10-08-2014 12:35:00 24.6 C 72 % 19.21 C
1881 10-08-2014 12:40:00 24.9 C 70 % 19.05 C
1882 10-08-2014 12:45:00 24.9 C 69 % 18.82 C
1883 10-08-2014 12:50:00 25.1 C 69 % 19.01 C
1884 10-08-2014 12:55:00 25 C 69 % 18.91 C
1885 10-08-2014 13:00:00 24.8 C 69 % 18.72 C
1886 10-08-2014 13:05:00 24.8 C 71 % 19.18 C
1887 10-08-2014 13:10:00 24.7 C 70 % 18.86 C
1888 10-08-2014 13:15:00 24.7 C 71 % 19.09 C
1889 10-08-2014 13:20:00 24.5 C 70 % 18.67 C
1890 10-08-2014 13:25:00 24.2 C 71 % 18.61 C
1891 10-08-2014 13:30:00 24.1 C 74 % 19.17 C
1892 10-08-2014 13:35:00 23.8 C 76 % 19.31 C
1893 10-08-2014 13:40:00 23.4 C 78 % 19.34 C
1894 10-08-2014 13:45:00 22.9 C 82 % 19.66 C
1895 10-08-2014 13:50:00 22.4 C 85 % 19.75 C
1896 10-08-2014 13:55:00 22 C 87 % 19.74 C
1897 10-08-2014 14:00:00 21.7 C 88 % 19.62 C
1898 10-08-2014 14:05:00 21.4 C 90 % 19.69 C
1899 10-08-2014 14:10:00 21.3 C 90 % 19.59 C
1900 10-08-2014 14:15:00 21.2 C 92 % 19.85 C
Sensor: Nr:Datum:Temp:Feuchte:Taupunkt:
Aussen-T/F 1901 10-08-2014 14:20:00 21.1 C 92 % 19.75 C
1902 10-08-2014 14:25:00 21.2 C 92 % 19.85 C
1903 10-08-2014 14:30:00 21.4 C 93 % 20.22 C
1904 10-08-2014 14:35:00 21.6 C 92 % 20.24 C
1905 10-08-2014 14:40:00 21.9 C 93 % 20.72 C
1906 10-08-2014 14:45:00 22.1 C 92 % 20.74 C
1907 10-08-2014 14:50:00 21.9 C 89 % 20 C
1908 10-08-2014 14:55:00 21.9 C 89 % 20 C
1909 10-08-2014 15:00:00 21.8 C 90 % 20.09 C
1910 10-08-2014 15:05:00 21.7 C 90 % 19.99 C
1911 10-08-2014 15:10:00 21.4 C 91 % 19.87 C
1912 10-08-2014 15:15:00 21.2 C 92 % 19.85 C
1913 10-08-2014 15:20:00 21 C 92 % 19.65 C
1914 10-08-2014 15:25:00 20.8 C 92 % 19.45 C
1915 10-08-2014 15:30:00 20.6 C 93 % 19.43 C
1916 10-08-2014 15:35:00 20.4 C 93 % 19.23 C
1917 10-08-2014 15:40:00 20.4 C 94 % 19.4 C
1918 10-08-2014 15:45:00 20.3 C 94 % 19.3 C
1919 10-08-2014 15:50:00 20.3 C 94 % 19.3 C
1920 10-08-2014 15:55:00 20.4 C 95 % 19.57 C
1921 10-08-2014 16:00:00 20.6 C 94 % 19.6 C
1922 10-08-2014 16:05:00 20.7 C 94 % 19.7 C
1923 10-08-2014 16:10:00 20.8 C 94 % 19.8 C
1924 10-08-2014 16:15:00 20.8 C 94 % 19.8 C
1925 10-08-2014 16:20:00 20.8 C 94 % 19.8 C
Sensor: Nr:Datum:Temp:Feuchte:Taupunkt:
Aussen-T/F 1926 10-08-2014 16:25:00 20.9 C 95 % 20.07 C
1927 10-08-2014 16:30:00 21.1 C 95 % 20.27 C
1928 10-08-2014 16:35:00 21.3 C 95 % 20.47 C
1929 10-08-2014 16:40:00 21.2 C 93 % 20.02 C
1930 10-08-2014 16:45:00 21.3 C 93 % 20.12 C
1931 10-08-2014 16:50:00 21.6 C 94 % 20.59 C
1932 10-08-2014 16:55:00 21.6 C 94 % 20.59 C
1933 10-08-2014 17:00:00 21.6 C 94 % 20.59 C
1934 10-08-2014 17:05:00 21.5 C 94 % 20.49 C
1935 10-08-2014 17:10:00 21.6 C 94 % 20.59 C
1936 10-08-2014 17:15:00 21.4 C 94 % 20.39 C
1937 10-08-2014 17:20:00 21.2 C 94 % 20.19 C
1938 10-08-2014 17:25:00 21 C 94 % 20 C
1939 10-08-2014 17:30:00 20.9 C 95 % 20.07 C
1940 10-08-2014 17:35:00 20.8 C 94 % 19.8 C
1941 10-08-2014 17:40:00 20.7 C 95 % 19.87 C
1942 10-08-2014 17:45:00 20.6 C 95 % 19.77 C
1943 10-08-2014 17:50:00 20.4 C 95 % 19.57 C
1944 10-08-2014 17:55:00 20.4 C 95 % 19.57 C
1945 10-08-2014 18:00:00 20.3 C 95 % 19.47 C
1946 10-08-2014 18:05:00 20.3 C 96 % 19.64 C
1947 10-08-2014 18:10:00 20.2 C 96 % 19.54 C
1948 10-08-2014 18:15:00 20.2 C 96 % 19.54 C
1949 10-08-2014 18:20:00 20.2 C 96 % 19.54 C
1950 10-08-2014 18:25:00 20.2 C 96 % 19.54 C
Sensor: Nr:Datum:Temp:Feuchte:Taupunkt:
Aussen-T/F 1951 10-08-2014 18:30:00 20.3 C 96 % 19.64 C
1952 10-08-2014 18:35:00 20.3 C 96 % 19.64 C
1953 10-08-2014 18:40:00 20.3 C 97 % 19.81 C
1954 10-08-2014 18:45:00 20.3 C 96 % 19.64 C
1955 10-08-2014 18:50:00 20.3 C 96 % 19.64 C
1956 10-08-2014 18:55:00 20.2 C 96 % 19.54 C
1957 10-08-2014 19:00:00 20.2 C 96 % 19.54 C
1958 10-08-2014 19:05:00 20.2 C 96 % 19.54 C
1959 10-08-2014 19:10:00 20.1 C 96 % 19.44 C
1960 10-08-2014 19:15:00 20 C 96 % 19.34 C
1961 10-08-2014 19:20:00 20 C 96 % 19.34 C
1962 10-08-2014 19:25:00 19.9 C 96 % 19.24 C
1963 10-08-2014 19:30:00 19.8 C 96 % 19.14 C
1964 10-08-2014 19:35:00 19.8 C 96 % 19.14 C
1965 10-08-2014 19:40:00 19.7 C 96 % 19.04 C
1966 10-08-2014 19:45:00 19.6 C 96 % 18.94 C
1967 10-08-2014 19:50:00 19.5 C 97 % 19.01 C
1968 10-08-2014 19:55:00 19.4 C 96 % 18.75 C
1969 10-08-2014 20:00:00 19.4 C 97 % 18.91 C
1970 10-08-2014 20:05:00 19.4 C 97 % 18.91 C
1971 10-08-2014 20:10:00 19.3 C 97 % 18.81 C
1972 10-08-2014 20:15:00 19.3 C 97 % 18.81 C
1973 10-08-2014 20:20:00 19.2 C 97 % 18.71 C
1974 10-08-2014 20:25:00 19.2 C 97 % 18.71 C
1975 10-08-2014 20:30:00 19.1 C 97 % 18.61 C
Sensor: Nr:Datum:Temp:Feuchte:Taupunkt:
Aussen-T/F 1976 10-08-2014 20:35:00 19.1 C 97 % 18.61 C
1977 10-08-2014 20:40:00 19.1 C 97 % 18.61 C
1978 10-08-2014 20:45:00 19.2 C 97 % 18.71 C
1979 10-08-2014 20:50:00 19.2 C 97 % 18.71 C
1980 10-08-2014 20:55:00 19.2 C 97 % 18.71 C
1981 10-08-2014 21:00:00 19.3 C 96 % 18.65 C
1982 10-08-2014 21:05:00 19.4 C 96 % 18.75 C
1983 10-08-2014 21:10:00 19.3 C 95 % 18.48 C
1984 10-08-2014 21:15:00 19.2 C 94 % 18.21 C
1985 10-08-2014 21:20:00 19.1 C 94 % 18.11 C
1986 10-08-2014 21:25:00 19 C 95 % 18.18 C
1987 10-08-2014 21:30:00 18.8 C 94 % 17.81 C
1988 10-08-2014 21:35:00 18.7 C 94 % 17.71 C
1989 10-08-2014 21:40:00 18.7 C 94 % 17.71 C
1990 10-08-2014 21:45:00 18.7 C 93 % 17.54 C
1991 10-08-2014 21:50:00 18.7 C 93 % 17.54 C
1992 10-08-2014 21:55:00 18.8 C 93 % 17.64 C
1993 10-08-2014 22:00:00 18.7 C 93 % 17.54 C
1994 10-08-2014 22:05:00 18.6 C 93 % 17.45 C
1995 10-08-2014 22:10:00 18.6 C 94 % 17.62 C
1996 10-08-2014 22:15:00 18.5 C 94 % 17.52 C
1997 10-08-2014 22:20:00 18.4 C 94 % 17.42 C
1998 10-08-2014 22:25:00 18.3 C 94 % 17.32 C
1999 10-08-2014 22:30:00 18.3 C 95 % 17.48 C
2000 10-08-2014 22:35:00 18.2 C 95 % 17.39 C
Sensor: Nr:Datum:Temp:Feuchte:Taupunkt:
Aussen-T/F 2001 10-08-2014 22:40:00 18.2 C 95 % 17.39 C
2002 10-08-2014 22:45:00 18.1 C 95 % 17.29 C
2003 10-08-2014 22:50:00 18.1 C 96 % 17.45 C
2004 10-08-2014 22:55:00 18.1 C 96 % 17.45 C
2005 10-08-2014 23:00:00 17.9 C 96 % 17.25 C
2006 10-08-2014 23:05:00 17.9 C 96 % 17.25 C
2007 10-08-2014 23:10:00 17.9 C 96 % 17.25 C
2008 10-08-2014 23:15:00 17.8 C 96 % 17.15 C
2009 10-08-2014 23:20:00 17.8 C 96 % 17.15 C
2010 10-08-2014 23:25:00 17.8 C 96 % 17.15 C
2011 10-08-2014 23:30:00 17.8 C 96 % 17.15 C
2012 10-08-2014 23:35:00 17.7 C 96 % 17.05 C
2013 10-08-2014 23:40:00 17.7 C 96 % 17.05 C
2014 10-08-2014 23:45:00 17.7 C 96 % 17.05 C
2015 10-08-2014 23:50:00 17.7 C 96 % 17.05 C
2016 10-08-2014 23:55:00 17.7 C 96 % 17.05 C
2017 11-08-2014 00:00:00 17.7 C 95 % 16.89 C
2018 11-08-2014 00:05:00 17.7 C 95 % 16.89 C
2019 11-08-2014 00:10:00 17.7 C 95 % 16.89 C
2020 11-08-2014 00:15:00 17.6 C 95 % 16.79 C
2021 11-08-2014 00:20:00 17.5 C 95 % 16.69 C
2022 11-08-2014 00:25:00 17.5 C 94 % 16.52 C
2023 11-08-2014 00:30:00 17.6 C 94 % 16.62 C
2024 11-08-2014 00:35:00 17.6 C 93 % 16.45 C
2025 11-08-2014 00:40:00 17.6 C 93 % 16.45 C
Sensor: Nr:Datum:Temp:Feuchte:Taupunkt:
Aussen-T/F 2026 11-08-2014 00:45:00 17.3 C 93 % 16.16 C
2027 11-08-2014 00:50:00 17.2 C 94 % 16.23 C
2028 11-08-2014 00:55:00 17.1 C 95 % 16.29 C
2029 11-08-2014 01:00:00 17 C 94 % 16.03 C
2030 11-08-2014 01:05:00 16.8 C 93 % 15.66 C
2031 11-08-2014 01:10:00 16.8 C 92 % 15.49 C
2032 11-08-2014 01:15:00 16.6 C 93 % 15.46 C
2033 11-08-2014 01:20:00 16.4 C 94 % 15.43 C
2034 11-08-2014 01:25:00 16.2 C 94 % 15.23 C
2035 11-08-2014 01:30:00 16 C 95 % 15.2 C
2036 11-08-2014 01:35:00 15.9 C 95 % 15.1 C
2037 11-08-2014 01:40:00 15.9 C 95 % 15.1 C
2038 11-08-2014 01:45:00 16 C 95 % 15.2 C
2039 11-08-2014 01:50:00 16.1 C 93 % 14.97 C
2040 11-08-2014 01:55:00 16.1 C 92 % 14.8 C
2041 11-08-2014 02:00:00 16 C 91 % 14.53 C
2042 11-08-2014 02:05:00 15.9 C 90 % 14.26 C
2043 11-08-2014 02:10:00 15.8 C 90 % 14.16 C
2044 11-08-2014 02:15:00 15.7 C 91 % 14.24 C
2045 11-08-2014 02:20:00 15.6 C 91 % 14.14 C
2046 11-08-2014 02:25:00 15.4 C 91 % 13.94 C
2047 11-08-2014 02:30:00 15.2 C 91 % 13.74 C
2048 11-08-2014 02:35:00 15.2 C 90 % 13.57 C
2049 11-08-2014 02:40:00 15.2 C 91 % 13.74 C
2050 11-08-2014 02:45:00 15.2 C 91 % 13.74 C
Sensor: Nr:Datum:Temp:Feuchte:Taupunkt:
Aussen-T/F 2051 11-08-2014 02:50:00 14.9 C 92 % 13.61 C
2052 11-08-2014 02:55:00 14.8 C 93 % 13.68 C
2053 11-08-2014 03:00:00 14.7 C 93 % 13.58 C
2054 11-08-2014 03:05:00 14.5 C 94 % 13.55 C
2055 11-08-2014 03:10:00 14.4 C 94 % 13.45 C
2056 11-08-2014 03:15:00 14.3 C 94 % 13.35 C
2057 11-08-2014 03:20:00 14.1 C 94 % 13.15 C
2058 11-08-2014 03:25:00 14.1 C 95 % 13.31 C
2059 11-08-2014 03:30:00 13.9 C 95 % 13.11 C
2060 11-08-2014 03:35:00 13.9 C 95 % 13.11 C
2061 11-08-2014 03:40:00 13.8 C 95 % 13.01 C
2062 11-08-2014 03:45:00 13.7 C 95 % 12.91 C
2063 11-08-2014 03:50:00 13.7 C 95 % 12.91 C
2064 11-08-2014 03:55:00 13.6 C 96 % 12.97 C
2065 11-08-2014 04:00:00 13.6 C 95 % 12.81 C
2066 11-08-2014 04:05:00 13.5 C 95 % 12.72 C
2067 11-08-2014 04:10:00 13.5 C 96 % 12.87 C
2068 11-08-2014 04:15:00 13.5 C 95 % 12.72 C
2069 11-08-2014 04:20:00 13.4 C 95 % 12.62 C
2070 11-08-2014 04:25:00 13.3 C 95 % 12.52 C
2071 11-08-2014 04:30:00 13.4 C 95 % 12.62 C
2072 11-08-2014 04:35:00 13.3 C 95 % 12.52 C
2073 11-08-2014 04:40:00 13.3 C 95 % 12.52 C
2074 11-08-2014 04:45:00 13.2 C 95 % 12.42 C
2075 11-08-2014 04:50:00 13.2 C 95 % 12.42 C
Sensor: Nr:Datum:Temp:Feuchte:Taupunkt:
Aussen-T/F 2076 11-08-2014 04:55:00 13.2 C 95 % 12.42 C
2077 11-08-2014 05:00:00 13.2 C 95 % 12.42 C
2078 11-08-2014 05:05:00 13.1 C 95 % 12.32 C
2079 11-08-2014 05:10:00 13.1 C 95 % 12.32 C
2080 11-08-2014 05:15:00 13.1 C 95 % 12.32 C
2081 11-08-2014 05:20:00 13.1 C 95 % 12.32 C
2082 11-08-2014 05:25:00 13.2 C 94 % 12.26 C
2083 11-08-2014 05:30:00 13.2 C 94 % 12.26 C
2084 11-08-2014 05:35:00 13.2 C 94 % 12.26 C
2085 11-08-2014 05:40:00 13.2 C 94 % 12.26 C
2086 11-08-2014 05:45:00 13.1 C 94 % 12.16 C
2087 11-08-2014 05:50:00 13.1 C 94 % 12.16 C
2088 11-08-2014 05:55:00 13.1 C 94 % 12.16 C
2089 11-08-2014 06:00:00 13.1 C 94 % 12.16 C
2090 11-08-2014 06:05:00 13 C 94 % 12.06 C
2091 11-08-2014 06:10:00 12.9 C 94 % 11.96 C
2092 11-08-2014 06:15:00 12.9 C 94 % 11.96 C
2093 11-08-2014 06:20:00 12.9 C 95 % 12.12 C
2094 11-08-2014 06:25:00 12.8 C 95 % 12.02 C
2095 11-08-2014 06:30:00 12.8 C 94 % 11.86 C
2096 11-08-2014 06:35:00 12.8 C 95 % 12.02 C
2097 11-08-2014 06:40:00 12.8 C 95 % 12.02 C
2098 11-08-2014 06:45:00 12.8 C 95 % 12.02 C
2099 11-08-2014 06:50:00 12.8 C 95 % 12.02 C
2100 11-08-2014 06:55:00 12.8 C 95 % 12.02 C
Sensor: Nr:Datum:Temp:Feuchte:Taupunkt:
Aussen-T/F 2101 11-08-2014 07:00:00 12.8 C 95 % 12.02 C
2102 11-08-2014 07:05:00 12.9 C 95 % 12.12 C
2103 11-08-2014 07:10:00 12.9 C 95 % 12.12 C
2104 11-08-2014 07:15:00 12.9 C 95 % 12.12 C
2105 11-08-2014 07:20:00 13 C 95 % 12.22 C
2106 11-08-2014 07:25:00 13.1 C 95 % 12.32 C
2107 11-08-2014 07:30:00 13.2 C 95 % 12.42 C
2108 11-08-2014 07:35:00 13.2 C 95 % 12.42 C
2109 11-08-2014 07:40:00 13.2 C 95 % 12.42 C
2110 11-08-2014 07:45:00 13.3 C 95 % 12.52 C
2111 11-08-2014 07:50:00 13.4 C 94 % 12.45 C
2112 11-08-2014 07:55:00 13.4 C 94 % 12.45 C
2113 11-08-2014 08:00:00 13.6 C 94 % 12.65 C
2114 11-08-2014 08:05:00 13.6 C 94 % 12.65 C
2115 11-08-2014 08:10:00 13.7 C 94 % 12.75 C
2116 11-08-2014 08:15:00 13.7 C 94 % 12.75 C
2117 11-08-2014 08:20:00 13.7 C 94 % 12.75 C
2118 11-08-2014 08:25:00 13.7 C 94 % 12.75 C
2119 11-08-2014 08:30:00 13.8 C 94 % 12.85 C
2120 11-08-2014 08:35:00 13.8 C 94 % 12.85 C
2121 11-08-2014 08:40:00 13.8 C 93 % 12.69 C
2122 11-08-2014 08:45:00 14 C 92 % 12.72 C
2123 11-08-2014 08:50:00 14.3 C 90 % 12.68 C
2124 11-08-2014 08:55:00 14.7 C 88 % 12.73 C
2125 11-08-2014 09:00:00 14.9 C 87 % 12.76 C
Sensor: Nr:Datum:Temp:Feuchte:Taupunkt:
Aussen-T/F 2126 11-08-2014 09:05:00 15.2 C 86 % 12.88 C
2127 11-08-2014 09:10:00 15.2 C 85 % 12.7 C
2128 11-08-2014 09:15:00 15.3 C 85 % 12.79 C
2129 11-08-2014 09:20:00 15.3 C 85 % 12.79 C
2130 11-08-2014 09:25:00 15.4 C 84 % 12.71 C
2131 11-08-2014 09:30:00 15.4 C 84 % 12.71 C
2132 11-08-2014 09:35:00 15.5 C 84 % 12.81 C
2133 11-08-2014 09:40:00 15.6 C 84 % 12.91 C
2134 11-08-2014 09:45:00 15.7 C 84 % 13.01 C
2135 11-08-2014 09:50:00 15.8 C 83 % 12.92 C
2136 11-08-2014 09:55:00 15.9 C 84 % 13.2 C
2137 11-08-2014 10:00:00 16 C 83 % 13.12 C
2138 11-08-2014 10:05:00 16.1 C 82 % 13.03 C
2139 11-08-2014 10:10:00 16.2 C 83 % 13.31 C
2140 11-08-2014 10:15:00 16.3 C 82 % 13.22 C
2141 11-08-2014 10:20:00 16.3 C 80 % 12.85 C
2142 11-08-2014 10:25:00 16.4 C 81 % 13.13 C
2143 11-08-2014 10:30:00 16.5 C 80 % 13.04 C
2144 11-08-2014 10:35:00 16.6 C 81 % 13.33 C
2145 11-08-2014 10:40:00 16.8 C 79 % 13.14 C
2146 11-08-2014 10:45:00 16.9 C 77 % 12.84 C
2147 11-08-2014 10:50:00 16.9 C 77 % 12.84 C
2148 11-08-2014 10:55:00 17.1 C 76 % 12.84 C
2149 11-08-2014 11:00:00 17.3 C 78 % 13.43 C
2150 11-08-2014 11:05:00 17.4 C 79 % 13.72 C
Sensor: Nr:Datum:Temp:Feuchte:Taupunkt:
Aussen-T/F 2151 11-08-2014 11:10:00 17.7 C 76 % 13.42 C
2152 11-08-2014 11:15:00 17.9 C 77 % 13.81 C
2153 11-08-2014 11:20:00 18.2 C 73 % 13.28 C
2154 11-08-2014 11:25:00 18.4 C 71 % 13.05 C
2155 11-08-2014 11:30:00 18.4 C 70 % 12.83 C
2156 11-08-2014 11:35:00 18.6 C 70 % 13.02 C
2157 11-08-2014 11:40:00 18.7 C 70 % 13.12 C
2158 11-08-2014 11:45:00 18.8 C 70 % 13.22 C
2159 11-08-2014 11:50:00 18.8 C 69 % 13 C
2160 11-08-2014 11:55:00 18.9 C 70 % 13.31 C
2161 11-08-2014 12:00:00 18.9 C 68 % 12.87 C
2162 11-08-2014 12:05:00 19 C 68 % 12.96 C
2163 11-08-2014 12:10:00 19.1 C 69 % 13.28 C
2164 11-08-2014 12:15:00 19.4 C 67 % 13.12 C
2165 11-08-2014 12:20:00 19.5 C 68 % 13.44 C
2166 11-08-2014 12:25:00 19.5 C 68 % 13.44 C
2167 11-08-2014 12:30:00 19.7 C 65 % 12.94 C
2168 11-08-2014 12:35:00 20 C 65 % 13.22 C
2169 11-08-2014 12:40:00 20.1 C 65 % 13.32 C
2170 11-08-2014 12:45:00 19.9 C 66 % 13.36 C
2171 11-08-2014 12:50:00 19.8 C 66 % 13.27 C
2172 11-08-2014 12:55:00 19.7 C 64 % 12.7 C
2173 11-08-2014 13:00:00 19.8 C 66 % 13.27 C
2174 11-08-2014 13:05:00 20.1 C 62 % 12.6 C
2175 11-08-2014 13:10:00 20.2 C 61 % 12.44 C
Sensor: Nr:Datum:Temp:Feuchte:Taupunkt:
Aussen-T/F 2176 11-08-2014 13:15:00 20.2 C 63 % 12.94 C
2177 11-08-2014 13:20:00 20.3 C 64 % 13.27 C
2178 11-08-2014 13:25:00 20.1 C 61 % 12.35 C
2179 11-08-2014 13:30:00 20.2 C 65 % 13.41 C
2180 11-08-2014 13:35:00 20.4 C 64 % 13.37 C
2181 11-08-2014 13:40:00 20.5 C 61 % 12.73 C
2182 11-08-2014 13:45:00 20.6 C 63 % 13.31 C
2183 11-08-2014 13:50:00 21 C 64 % 13.93 C
2184 11-08-2014 13:55:00 21.1 C 63 % 13.79 C
2185 11-08-2014 14:00:00 21.1 C 67 % 14.74 C
2186 11-08-2014 14:05:00 21.4 C 61 % 13.57 C
2187 11-08-2014 14:10:00 21.4 C 59 % 13.06 C
2188 11-08-2014 14:15:00 21.4 C 62 % 13.82 C
2189 11-08-2014 14:20:00 21.7 C 58 % 13.08 C
2190 11-08-2014 14:25:00 21.9 C 58 % 13.27 C
2191 11-08-2014 14:30:00 21.9 C 58 % 13.27 C
2192 11-08-2014 14:35:00 21.5 C 57 % 12.63 C
2193 11-08-2014 14:40:00 21 C 59 % 12.69 C
2194 11-08-2014 14:45:00 20.2 C 66 % 13.65 C
2195 11-08-2014 14:50:00 18.9 C 70 % 13.31 C
2196 11-08-2014 14:55:00 17.8 C 77 % 13.72 C
2197 11-08-2014 15:00:00 16.9 C 81 % 13.62 C
2198 11-08-2014 15:05:00 16.7 C 87 % 14.53 C
2199 11-08-2014 15:10:00 17.1 C 89 % 15.27 C
2200 11-08-2014 15:15:00 17.5 C 87 % 15.31 C
Sensor: Nr:Datum:Temp:Feuchte:Taupunkt:
Aussen-T/F 2201 11-08-2014 15:20:00 18.1 C 84 % 15.35 C
2202 11-08-2014 15:25:00 18.6 C 86 % 16.21 C
2203 11-08-2014 15:30:00 19 C 87 % 16.79 C
2204 11-08-2014 15:35:00 19.3 C 82 % 16.15 C
2205 11-08-2014 15:40:00 19.9 C 75 % 15.34 C
2206 11-08-2014 15:45:00 20.3 C 85 % 17.7 C
2207 11-08-2014 15:50:00 20.3 C 78 % 16.34 C
2208 11-08-2014 15:55:00 20.3 C 86 % 17.88 C
2209 11-08-2014 16:00:00 20.4 C 80 % 16.83 C
2210 11-08-2014 16:05:00 20.8 C 81 % 17.42 C
2211 11-08-2014 16:10:00 21.1 C 69 % 15.19 C
2212 11-08-2014 16:15:00 21.1 C 74 % 16.29 C
2213 11-08-2014 16:20:00 20.7 C 80 % 17.13 C
2214 11-08-2014 16:25:00 19.9 C 81 % 16.54 C
2215 11-08-2014 16:30:00 19.4 C 80 % 15.86 C
2216 11-08-2014 16:35:00 19.6 C 81 % 16.25 C
2217 11-08-2014 16:40:00 19.9 C 81 % 16.54 C
2218 11-08-2014 16:45:00 20.5 C 72 % 15.28 C
2219 11-08-2014 16:50:00 21.2 C 61 % 13.38 C
2220 11-08-2014 16:55:00 21.6 C 63 % 14.26 C
2221 11-08-2014 17:00:00 21.9 C 64 % 14.78 C
2222 11-08-2014 17:05:00 21.9 C 63 % 14.54 C
2223 11-08-2014 17:10:00 22.1 C 63 % 14.73 C
2224 11-08-2014 17:15:00 22.3 C 57 % 13.37 C
2225 11-08-2014 17:20:00 22.3 C 55 % 12.83 C
Sensor: Nr:Datum:Temp:Feuchte:Taupunkt:
Aussen-T/F 2226 11-08-2014 17:25:00 22.3 C 56 % 13.1 C
2227 11-08-2014 17:30:00 22.2 C 62 % 14.58 C
2228 11-08-2014 17:35:00 21.7 C 55 % 12.27 C
2229 11-08-2014 17:40:00 21.4 C 56 % 12.27 C
2230 11-08-2014 17:45:00 21.7 C 61 % 13.85 C
2231 11-08-2014 17:50:00 22 C 60 % 13.88 C
2232 11-08-2014 17:55:00 21.9 C 58 % 13.27 C
2233 11-08-2014 18:00:00 21.5 C 59 % 13.15 C
2234 11-08-2014 18:05:00 21.4 C 61 % 13.57 C
2235 11-08-2014 18:10:00 21.1 C 62 % 13.54 C
2236 11-08-2014 18:15:00 20.9 C 60 % 12.85 C
2237 11-08-2014 18:20:00 20.8 C 63 % 13.5 C
2238 11-08-2014 18:25:00 21.1 C 60 % 13.04 C
2239 11-08-2014 18:30:00 21.5 C 62 % 13.92 C
2240 11-08-2014 18:35:00 21.7 C 60 % 13.6 C
2241 11-08-2014 18:40:00 21.7 C 65 % 14.84 C
2242 11-08-2014 18:45:00 21.3 C 67 % 14.93 C
2243 11-08-2014 18:50:00 20.9 C 69 % 15 C
2244 11-08-2014 18:55:00 21 C 60 % 12.94 C
2245 11-08-2014 19:00:00 21.3 C 69 % 15.38 C
2246 11-08-2014 19:05:00 20.8 C 60 % 12.76 C
2247 11-08-2014 19:10:00 20.6 C 68 % 14.49 C
2248 11-08-2014 19:15:00 20.7 C 68 % 14.58 C
2249 11-08-2014 19:20:00 20.8 C 65 % 13.98 C
2250 11-08-2014 19:25:00 20.8 C 70 % 15.13 C
Sensor: Nr:Datum:Temp:Feuchte:Taupunkt:
Aussen-T/F 2251 11-08-2014 19:30:00 20.7 C 65 % 13.89 C
2252 11-08-2014 19:35:00 20.7 C 64 % 13.65 C
2253 11-08-2014 19:40:00 20.5 C 65 % 13.7 C
2254 11-08-2014 19:45:00 20.3 C 65 % 13.51 C
2255 11-08-2014 19:50:00 20.2 C 64 % 13.18 C
2256 11-08-2014 19:55:00 19.9 C 70 % 14.27 C
2257 11-08-2014 20:00:00 19.5 C 68 % 13.44 C
2258 11-08-2014 20:05:00 19.5 C 63 % 12.27 C
2259 11-08-2014 20:10:00 19.7 C 64 % 12.7 C
2260 11-08-2014 20:15:00 19.6 C 65 % 12.84 C
2261 11-08-2014 20:20:00 19.4 C 68 % 13.34 C
2262 11-08-2014 20:25:00 19.2 C 68 % 13.15 C
2263 11-08-2014 20:30:00 18.9 C 72 % 13.74 C
2264 11-08-2014 20:35:00 18.4 C 74 % 13.68 C
2265 11-08-2014 20:40:00 18.1 C 75 % 13.6 C
2266 11-08-2014 20:45:00 17.9 C 76 % 13.61 C
2267 11-08-2014 20:50:00 17.7 C 76 % 13.42 C
2268 11-08-2014 20:55:00 17.2 C 77 % 13.14 C
2269 11-08-2014 21:00:00 16.9 C 79 % 13.24 C
2270 11-08-2014 21:05:00 16.6 C 80 % 13.14 C
2271 11-08-2014 21:10:00 16.4 C 81 % 13.13 C
2272 11-08-2014 21:15:00 16.2 C 81 % 12.94 C
2273 11-08-2014 21:20:00 16.1 C 82 % 13.03 C
2274 11-08-2014 21:25:00 16.1 C 80 % 12.65 C
2275 11-08-2014 21:30:00 16.2 C 81 % 12.94 C
Sensor: Nr:Datum:Temp:Feuchte:Taupunkt:
Aussen-T/F 2276 11-08-2014 21:35:00 16.1 C 79 % 12.46 C
2277 11-08-2014 21:40:00 16.3 C 81 % 13.04 C
2278 11-08-2014 21:45:00 16.3 C 80 % 12.85 C
2279 11-08-2014 21:50:00 16.5 C 80 % 13.04 C
2280 11-08-2014 21:55:00 16.4 C 81 % 13.13 C
2281 11-08-2014 22:00:00 16.2 C 82 % 13.13 C
2282 11-08-2014 22:05:00 15.9 C 82 % 12.83 C
2283 11-08-2014 22:10:00 15.7 C 83 % 12.82 C
2284 11-08-2014 22:15:00 15.6 C 82 % 12.54 C
2285 11-08-2014 22:20:00 15.4 C 84 % 12.71 C
2286 11-08-2014 22:25:00 15.3 C 85 % 12.79 C
2287 11-08-2014 22:30:00 15.1 C 85 % 12.6 C
2288 11-08-2014 22:35:00 14.9 C 84 % 12.22 C
2289 11-08-2014 22:40:00 14.8 C 86 % 12.48 C
2290 11-08-2014 22:45:00 14.8 C 86 % 12.48 C
2291 11-08-2014 22:50:00 14.7 C 85 % 12.21 C
2292 11-08-2014 22:55:00 14.6 C 86 % 12.29 C
2293 11-08-2014 23:00:00 14.5 C 86 % 12.19 C
2294 11-08-2014 23:05:00 14.4 C 86 % 12.09 C
2295 11-08-2014 23:10:00 14.3 C 86 % 11.99 C
2296 11-08-2014 23:15:00 14.3 C 87 % 12.17 C
2297 11-08-2014 23:20:00 14.2 C 87 % 12.07 C
2298 11-08-2014 23:25:00 14.2 C 87 % 12.07 C
2299 11-08-2014 23:30:00 14.2 C 87 % 12.07 C
2300 11-08-2014 23:35:00 14.2 C 87 % 12.07 C
Sensor: Nr:Datum:Temp:Feuchte:Taupunkt:
Aussen-T/F 2301 11-08-2014 23:40:00 14.1 C 87 % 11.97 C
2302 11-08-2014 23:45:00 14 C 88 % 12.05 C
2303 11-08-2014 23:50:00 13.9 C 88 % 11.95 C
2304 11-08-2014 23:55:00 13.9 C 88 % 11.95 C
2305 12-08-2014 00:00:00 14 C 88 % 12.05 C
2306 12-08-2014 00:05:00 14 C 88 % 12.05 C
2307 12-08-2014 00:10:00 14 C 88 % 12.05 C
2308 12-08-2014 00:15:00 13.9 C 88 % 11.95 C
2309 12-08-2014 00:20:00 14 C 87 % 11.87 C
2310 12-08-2014 00:25:00 14.1 C 88 % 12.14 C
2311 12-08-2014 00:30:00 14.2 C 89 % 12.41 C
2312 12-08-2014 00:35:00 14.3 C 89 % 12.51 C
2313 12-08-2014 00:40:00 14.3 C 88 % 12.34 C
2314 12-08-2014 00:45:00 14.6 C 84 % 11.93 C
2315 12-08-2014 00:50:00 14.9 C 85 % 12.4 C
2316 12-08-2014 00:55:00 15.1 C 83 % 12.24 C
2317 12-08-2014 01:00:00 15.3 C 81 % 12.06 C
2318 12-08-2014 01:05:00 15.5 C 79 % 11.88 C
2319 12-08-2014 01:10:00 15.8 C 77 % 11.78 C
2320 12-08-2014 01:15:00 16.1 C 75 % 11.67 C
2321 12-08-2014 01:20:00 16.4 C 74 % 11.76 C
2322 12-08-2014 01:25:00 16.5 C 73 % 11.65 C
2323 12-08-2014 01:30:00 16.5 C 74 % 11.85 C
2324 12-08-2014 01:35:00 16.4 C 75 % 11.96 C
2325 12-08-2014 01:40:00 16.3 C 74 % 11.66 C
Sensor: Nr:Datum:Temp:Feuchte:Taupunkt:
Aussen-T/F 2326 12-08-2014 01:45:00 16.4 C 74 % 11.76 C
2327 12-08-2014 01:50:00 16.4 C 74 % 11.76 C
2328 12-08-2014 01:55:00 16.3 C 74 % 11.66 C
2329 12-08-2014 02:00:00 16.2 C 77 % 12.17 C
2330 12-08-2014 02:05:00 16.1 C 79 % 12.46 C
2331 12-08-2014 02:10:00 15.7 C 81 % 12.45 C
2332 12-08-2014 02:15:00 15.5 C 82 % 12.44 C
2333 12-08-2014 02:20:00 15.4 C 81 % 12.16 C
2334 12-08-2014 02:25:00 15.4 C 82 % 12.35 C
2335 12-08-2014 02:30:00 15.4 C 81 % 12.16 C
2336 12-08-2014 02:35:00 15.3 C 82 % 12.25 C
2337 12-08-2014 02:40:00 15.3 C 82 % 12.25 C
2338 12-08-2014 02:45:00 15.3 C 82 % 12.25 C
2339 12-08-2014 02:50:00 15.3 C 82 % 12.25 C
2340 12-08-2014 02:55:00 15.3 C 82 % 12.25 C
2341 12-08-2014 03:00:00 15.2 C 84 % 12.52 C
2342 12-08-2014 03:05:00 15.1 C 85 % 12.6 C
2343 12-08-2014 03:10:00 14.8 C 85 % 12.3 C
2344 12-08-2014 03:15:00 14.7 C 86 % 12.38 C
2345 12-08-2014 03:20:00 14.6 C 87 % 12.46 C
2346 12-08-2014 03:25:00 14.4 C 88 % 12.44 C
2347 12-08-2014 03:30:00 14.3 C 88 % 12.34 C
2348 12-08-2014 03:35:00 14.3 C 89 % 12.51 C
2349 12-08-2014 03:40:00 14.2 C 90 % 12.58 C
2350 12-08-2014 03:45:00 14.1 C 91 % 12.65 C
Sensor: Nr:Datum:Temp:Feuchte:Taupunkt:
Aussen-T/F 2351 12-08-2014 03:50:00 14 C 91 % 12.56 C
2352 12-08-2014 03:55:00 13.9 C 91 % 12.46 C
2353 12-08-2014 04:00:00 13.9 C 91 % 12.46 C
2354 12-08-2014 04:05:00 13.8 C 92 % 12.52 C
2355 12-08-2014 04:10:00 13.8 C 92 % 12.52 C
2356 12-08-2014 04:15:00 13.8 C 92 % 12.52 C
2357 12-08-2014 04:20:00 13.8 C 92 % 12.52 C
2358 12-08-2014 04:25:00 13.8 C 92 % 12.52 C
2359 12-08-2014 04:30:00 13.9 C 91 % 12.46 C
2360 12-08-2014 04:35:00 14 C 91 % 12.56 C
2361 12-08-2014 04:40:00 14.1 C 90 % 12.49 C
2362 12-08-2014 04:45:00 14.2 C 89 % 12.41 C
2363 12-08-2014 04:50:00 14.3 C 89 % 12.51 C
2364 12-08-2014 04:55:00 14.3 C 88 % 12.34 C
2365 12-08-2014 05:00:00 14.4 C 88 % 12.44 C
2366 12-08-2014 05:05:00 14.4 C 88 % 12.44 C
2367 12-08-2014 05:10:00 14.3 C 88 % 12.34 C
2368 12-08-2014 05:15:00 14.3 C 88 % 12.34 C
2369 12-08-2014 05:20:00 14.3 C 88 % 12.34 C
2370 12-08-2014 05:25:00 14.2 C 88 % 12.24 C
2371 12-08-2014 05:30:00 14.2 C 88 % 12.24 C
2372 12-08-2014 05:35:00 14.2 C 88 % 12.24 C
2373 12-08-2014 05:40:00 14.1 C 88 % 12.14 C
2374 12-08-2014 05:45:00 14.1 C 88 % 12.14 C
2375 12-08-2014 05:50:00 14.1 C 88 % 12.14 C
Sensor: Nr:Datum:Temp:Feuchte:Taupunkt:
Aussen-T/F 2376 12-08-2014 05:55:00 14.1 C 88 % 12.14 C
2377 12-08-2014 06:00:00 14.1 C 88 % 12.14 C
2378 12-08-2014 06:05:00 14.2 C 88 % 12.24 C
2379 12-08-2014 06:10:00 14.2 C 87 % 12.07 C
2380 12-08-2014 06:15:00 14.2 C 88 % 12.24 C
2381 12-08-2014 06:20:00 14.1 C 87 % 11.97 C
2382 12-08-2014 06:25:00 14.1 C 88 % 12.14 C
2383 12-08-2014 06:30:00 14.1 C 87 % 11.97 C
2384 12-08-2014 06:35:00 14.2 C 87 % 12.07 C
2385 12-08-2014 06:40:00 14.1 C 88 % 12.14 C
2386 12-08-2014 06:45:00 14.1 C 88 % 12.14 C
2387 12-08-2014 06:50:00 13.9 C 88 % 11.95 C
2388 12-08-2014 06:55:00 13.9 C 88 % 11.95 C
2389 12-08-2014 07:00:00 13.8 C 89 % 12.02 C
2390 12-08-2014 07:05:00 13.8 C 90 % 12.19 C
2391 12-08-2014 07:10:00 13.7 C 89 % 11.92 C
2392 12-08-2014 07:15:00 13.7 C 90 % 12.09 C
2393 12-08-2014 07:20:00 13.7 C 90 % 12.09 C
2394 12-08-2014 07:25:00 13.7 C 90 % 12.09 C
2395 12-08-2014 07:30:00 13.8 C 91 % 12.36 C
2396 12-08-2014 07:35:00 13.8 C 91 % 12.36 C
2397 12-08-2014 07:40:00 13.9 C 91 % 12.46 C
2398 12-08-2014 07:45:00 13.9 C 91 % 12.46 C
2399 12-08-2014 07:50:00 13.9 C 90 % 12.29 C
2400 12-08-2014 07:55:00 14 C 91 % 12.56 C
Sensor: Nr:Datum:Temp:Feuchte:Taupunkt:
Aussen-T/F 2401 12-08-2014 08:00:00 14.1 C 91 % 12.65 C
2402 12-08-2014 08:05:00 14.2 C 91 % 12.75 C
2403 12-08-2014 08:10:00 14.2 C 91 % 12.75 C
2404 12-08-2014 08:15:00 14.3 C 91 % 12.85 C
2405 12-08-2014 08:20:00 14.4 C 91 % 12.95 C
2406 12-08-2014 08:25:00 14.4 C 91 % 12.95 C
2407 12-08-2014 08:30:00 14.3 C 91 % 12.85 C
2408 12-08-2014 08:35:00 14.3 C 91 % 12.85 C
2409 12-08-2014 08:40:00 14.3 C 90 % 12.68 C
2410 12-08-2014 08:45:00 14.4 C 89 % 12.61 C
2411 12-08-2014 08:50:00 14.7 C 87 % 12.56 C
2412 12-08-2014 08:55:00 14.9 C 86 % 12.58 C
2413 12-08-2014 09:00:00 15.1 C 86 % 12.78 C
2414 12-08-2014 09:05:00 15.3 C 85 % 12.79 C
2415 12-08-2014 09:10:00 15.6 C 83 % 12.72 C
2416 12-08-2014 09:15:00 15.7 C 83 % 12.82 C
2417 12-08-2014 09:20:00 15.7 C 82 % 12.64 C
2418 12-08-2014 09:25:00 15.8 C 81 % 12.55 C
2419 12-08-2014 09:30:00 15.9 C 81 % 12.65 C
2420 12-08-2014 09:35:00 16.1 C 80 % 12.65 C
2421 12-08-2014 09:40:00 16.2 C 79 % 12.56 C
2422 12-08-2014 09:45:00 16.3 C 79 % 12.65 C
2423 12-08-2014 09:50:00 16.4 C 79 % 12.75 C
2424 12-08-2014 09:55:00 16.5 C 78 % 12.65 C
2425 12-08-2014 10:00:00 16.6 C 76 % 12.36 C
Sensor: Nr:Datum:Temp:Feuchte:Taupunkt:
Aussen-T/F 2426 12-08-2014 10:05:00 16.7 C 75 % 12.25 C
2427 12-08-2014 10:10:00 16.7 C 75 % 12.25 C
2428 12-08-2014 10:15:00 16.8 C 75 % 12.35 C
2429 12-08-2014 10:20:00 16.9 C 73 % 12.03 C
2430 12-08-2014 10:25:00 17.1 C 73 % 12.23 C
2431 12-08-2014 10:30:00 17.2 C 72 % 12.11 C
2432 12-08-2014 10:35:00 17.2 C 72 % 12.11 C
2433 12-08-2014 10:40:00 17.3 C 73 % 12.42 C
2434 12-08-2014 10:45:00 17.5 C 71 % 12.19 C
2435 12-08-2014 10:50:00 17.6 C 71 % 12.28 C
2436 12-08-2014 10:55:00 17.7 C 70 % 12.16 C
2437 12-08-2014 11:00:00 17.7 C 68 % 11.72 C
2438 12-08-2014 11:05:00 17.9 C 69 % 12.14 C
2439 12-08-2014 11:10:00 18.2 C 67 % 11.98 C
2440 12-08-2014 11:15:00 18.3 C 68 % 12.3 C
2441 12-08-2014 11:20:00 18.6 C 66 % 12.13 C
2442 12-08-2014 11:25:00 18.6 C 64 % 11.66 C
2443 12-08-2014 11:30:00 18.4 C 65 % 11.71 C
2444 12-08-2014 11:35:00 18.4 C 66 % 11.94 C
2445 12-08-2014 11:40:00 18.7 C 67 % 12.45 C
2446 12-08-2014 11:45:00 18.8 C 65 % 12.09 C
2447 12-08-2014 11:50:00 19.1 C 67 % 12.83 C
2448 12-08-2014 11:55:00 19.3 C 64 % 12.32 C
2449 12-08-2014 12:00:00 19.3 C 61 % 11.6 C
2450 12-08-2014 12:05:00 19.3 C 62 % 11.84 C
Sensor: Nr:Datum:Temp:Feuchte:Taupunkt:
Aussen-T/F 2451 12-08-2014 12:10:00 19.4 C 60 % 11.44 C
2452 12-08-2014 12:15:00 19.7 C 60 % 11.72 C
2453 12-08-2014 12:20:00 19.7 C 58 % 11.21 C
2454 12-08-2014 12:25:00 19.7 C 56 % 10.68 C
2455 12-08-2014 12:30:00 19.8 C 58 % 11.3 C
2456 12-08-2014 12:35:00 19.9 C 57 % 11.14 C
2457 12-08-2014 12:40:00 20.1 C 55 % 10.78 C
2458 12-08-2014 12:45:00 20.1 C 58 % 11.58 C
2459 12-08-2014 12:50:00 20.3 C 56 % 11.24 C
2460 12-08-2014 12:55:00 20.4 C 55 % 11.06 C
2461 12-08-2014 13:00:00 20.5 C 55 % 11.16 C
2462 12-08-2014 13:05:00 20.4 C 57 % 11.6 C
2463 12-08-2014 13:10:00 20.6 C 56 % 11.52 C
2464 12-08-2014 13:15:00 20.5 C 54 % 10.88 C
2465 12-08-2014 13:20:00 20.3 C 53 % 10.41 C
2466 12-08-2014 13:25:00 19.9 C 54 % 10.32 C
2467 12-08-2014 13:30:00 19.9 C 56 % 10.87 C
2468 12-08-2014 13:35:00 20.3 C 56 % 11.24 C
2469 12-08-2014 13:40:00 20.6 C 53 % 10.69 C
2470 12-08-2014 13:45:00 20.8 C 56 % 11.71 C
2471 12-08-2014 13:50:00 20.9 C 54 % 11.25 C
2472 12-08-2014 13:55:00 20.9 C 53 % 10.97 C
2473 12-08-2014 14:00:00 21.2 C 52 % 10.96 C
2474 12-08-2014 14:05:00 21.3 C 52 % 11.05 C
2475 12-08-2014 14:10:00 21.4 C 52 % 11.14 C
Sensor: Nr:Datum:Temp:Feuchte:Taupunkt:
Aussen-T/F 2476 12-08-2014 14:15:00 21.2 C 51 % 10.67 C
2477 12-08-2014 14:20:00 21 C 54 % 11.34 C
2478 12-08-2014 14:25:00 21.2 C 54 % 11.53 C
2479 12-08-2014 14:30:00 21.6 C 53 % 11.62 C
2480 12-08-2014 14:35:00 21.8 C 52 % 11.51 C
2481 12-08-2014 14:40:00 21.9 C 57 % 13 C
2482 12-08-2014 14:45:00 22.1 C 52 % 11.79 C
2483 12-08-2014 14:50:00 22.2 C 51 % 11.59 C
2484 12-08-2014 14:55:00 22.2 C 51 % 11.59 C
2485 12-08-2014 15:00:00 22.3 C 52 % 11.97 C
2486 12-08-2014 15:05:00 22.3 C 49 % 11.08 C
2487 12-08-2014 15:10:00 22.3 C 49 % 11.08 C
2488 12-08-2014 15:15:00 22.6 C 49 % 11.35 C
2489 12-08-2014 15:20:00 22.7 C 50 % 11.75 C
2490 12-08-2014 15:25:00 22.8 C 48 % 11.22 C
2491 12-08-2014 15:30:00 22.9 C 49 % 11.63 C
2492 12-08-2014 15:35:00 23 C 47 % 11.09 C
2493 12-08-2014 15:40:00 23.1 C 49 % 11.81 C
2494 12-08-2014 15:45:00 23.1 C 49 % 11.81 C
2495 12-08-2014 15:50:00 23.1 C 47 % 11.18 C
2496 12-08-2014 15:55:00 23.1 C 49 % 11.81 C
2497 12-08-2014 16:00:00 23.1 C 47 % 11.18 C
2498 12-08-2014 16:05:00 23.1 C 48 % 11.5 C
2499 12-08-2014 16:10:00 23.1 C 48 % 11.5 C
2500 12-08-2014 16:15:00 23.3 C 49 % 11.99 C
Sensor: Nr:Datum:Temp:Feuchte:Taupunkt:
Aussen-T/F 2501 12-08-2014 16:20:00 23.4 C 47 % 11.45 C
2502 12-08-2014 16:25:00 23.4 C 48 % 11.77 C
2503 12-08-2014 16:30:00 23.3 C 47 % 11.36 C
2504 12-08-2014 16:35:00 23.4 C 48 % 11.77 C
2505 12-08-2014 16:40:00 23.4 C 47 % 11.45 C
2506 12-08-2014 16:45:00 23.4 C 47 % 11.45 C
2507 12-08-2014 16:50:00 23.4 C 49 % 12.08 C
2508 12-08-2014 16:55:00 23.4 C 49 % 12.08 C
2509 12-08-2014 17:00:00 22.8 C 48 % 11.22 C
2510 12-08-2014 17:05:00 22.3 C 50 % 11.38 C
2511 12-08-2014 17:10:00 22.1 C 51 % 11.5 C
2512 12-08-2014 17:15:00 22.1 C 49 % 10.89 C
2513 12-08-2014 17:20:00 22.1 C 51 % 11.5 C
2514 12-08-2014 17:25:00 22.1 C 49 % 10.89 C
2515 12-08-2014 17:30:00 21.9 C 51 % 11.31 C
2516 12-08-2014 17:35:00 21.9 C 50 % 11.01 C
2517 12-08-2014 17:40:00 22.4 C 50 % 11.47 C
2518 12-08-2014 17:45:00 22.7 C 50 % 11.75 C
2519 12-08-2014 17:50:00 22.7 C 50 % 11.75 C
2520 12-08-2014 17:55:00 22.7 C 50 % 11.75 C
2521 12-08-2014 18:00:00 22.9 C 49 % 11.63 C
2522 12-08-2014 18:05:00 22.8 C 48 % 11.22 C
2523 12-08-2014 18:10:00 22.8 C 49 % 11.53 C
2524 12-08-2014 18:15:00 22.9 C 48 % 11.31 C
2525 12-08-2014 18:20:00 22.9 C 50 % 11.93 C
Sensor: Nr:Datum:Temp:Feuchte:Taupunkt:
Aussen-T/F 2526 12-08-2014 18:25:00 23 C 50 % 12.02 C
2527 12-08-2014 18:30:00 22.7 C 52 % 12.34 C
2528 12-08-2014 18:35:00 22 C 53 % 11.99 C
2529 12-08-2014 18:40:00 21.4 C 54 % 11.71 C
2530 12-08-2014 18:45:00 21.1 C 56 % 11.99 C
2531 12-08-2014 18:50:00 20.8 C 56 % 11.71 C
2532 12-08-2014 18:55:00 20.7 C 61 % 12.91 C
2533 12-08-2014 19:00:00 20.7 C 59 % 12.41 C
2534 12-08-2014 19:05:00 20.7 C 61 % 12.91 C
2535 12-08-2014 19:10:00 20.9 C 62 % 13.35 C
2536 12-08-2014 19:15:00 21.3 C 59 % 12.97 C
2537 12-08-2014 19:20:00 21.5 C 64 % 14.41 C
2538 12-08-2014 19:25:00 21.4 C 59 % 13.06 C
2539 12-08-2014 19:30:00 21.4 C 61 % 13.57 C
2540 12-08-2014 19:35:00 21.3 C 65 % 14.46 C
2541 12-08-2014 19:40:00 21 C 64 % 13.93 C
2542 12-08-2014 19:45:00 20.8 C 60 % 12.76 C
2543 12-08-2014 19:50:00 20.8 C 60 % 12.76 C
2544 12-08-2014 19:55:00 20.7 C 64 % 13.65 C
2545 12-08-2014 20:00:00 20.3 C 68 % 14.2 C
2546 12-08-2014 20:05:00 19.8 C 69 % 13.95 C
2547 12-08-2014 20:10:00 19.3 C 72 % 14.13 C
2548 12-08-2014 20:15:00 19 C 67 % 12.74 C
2549 12-08-2014 20:20:00 18.7 C 73 % 13.76 C
2550 12-08-2014 20:25:00 18.3 C 73 % 13.38 C
Sensor: Nr:Datum:Temp:Feuchte:Taupunkt:
Aussen-T/F 2551 12-08-2014 20:30:00 18 C 75 % 13.51 C
2552 12-08-2014 20:35:00 17.8 C 71 % 12.47 C
2553 12-08-2014 20:40:00 17.8 C 75 % 13.31 C
2554 12-08-2014 20:45:00 17.6 C 74 % 12.91 C
2555 12-08-2014 20:50:00 17.6 C 74 % 12.91 C
2556 12-08-2014 20:55:00 17.4 C 70 % 11.88 C
2557 12-08-2014 21:00:00 17.3 C 75 % 12.83 C
2558 12-08-2014 21:05:00 17.2 C 76 % 12.94 C
2559 12-08-2014 21:10:00 17.1 C 76 % 12.84 C
2560 12-08-2014 21:15:00 17.1 C 72 % 12.02 C
2561 12-08-2014 21:20:00 17.3 C 75 % 12.83 C
2562 12-08-2014 21:25:00 17.4 C 75 % 12.93 C
2563 12-08-2014 21:30:00 17.3 C 73 % 12.42 C
2564 12-08-2014 21:35:00 17.3 C 77 % 13.23 C
2565 12-08-2014 21:40:00 17.2 C 78 % 13.33 C
2566 12-08-2014 21:45:00 17.1 C 78 % 13.24 C
2567 12-08-2014 21:50:00 16.9 C 79 % 13.24 C
2568 12-08-2014 21:55:00 16.8 C 79 % 13.14 C
2569 12-08-2014 22:00:00 16.7 C 80 % 13.23 C
2570 12-08-2014 22:05:00 16.7 C 80 % 13.23 C
2571 12-08-2014 22:10:00 16.6 C 79 % 12.95 C
2572 12-08-2014 22:15:00 16.7 C 76 % 12.45 C
2573 12-08-2014 22:20:00 16.8 C 74 % 12.14 C
2574 12-08-2014 22:25:00 16.8 C 77 % 12.75 C
2575 12-08-2014 22:30:00 16.6 C 76 % 12.36 C
Sensor: Nr:Datum:Temp:Feuchte:Taupunkt:
Aussen-T/F 2576 12-08-2014 22:35:00 16.4 C 76 % 12.16 C
2577 12-08-2014 22:40:00 16.3 C 77 % 12.26 C
2578 12-08-2014 22:45:00 16.1 C 78 % 12.27 C
2579 12-08-2014 22:50:00 15.7 C 79 % 12.07 C
2580 12-08-2014 22:55:00 15.6 C 81 % 12.35 C
2581 12-08-2014 23:00:00 15.3 C 80 % 11.87 C
2582 12-08-2014 23:05:00 15.3 C 82 % 12.25 C
2583 12-08-2014 23:10:00 15.2 C 81 % 11.96 C
2584 12-08-2014 23:15:00 15.2 C 83 % 12.33 C
2585 12-08-2014 23:20:00 15.2 C 82 % 12.15 C
2586 12-08-2014 23:25:00 15.2 C 83 % 12.33 C
2587 12-08-2014 23:30:00 15.1 C 83 % 12.24 C
2588 12-08-2014 23:35:00 14.9 C 82 % 11.86 C
2589 12-08-2014 23:40:00 14.9 C 83 % 12.04 C
2590 12-08-2014 23:45:00 14.8 C 84 % 12.12 C
2591 12-08-2014 23:50:00 14.8 C 85 % 12.3 C
2592 12-08-2014 23:55:00 14.8 C 84 % 12.12 C
2593 13-08-2014 00:00:00 14.7 C 85 % 12.21 C
2594 13-08-2014 00:05:00 14.7 C 86 % 12.38 C
2595 13-08-2014 00:10:00 14.7 C 87 % 12.56 C
2596 13-08-2014 00:15:00 14.6 C 87 % 12.46 C
2597 13-08-2014 00:20:00 14.5 C 87 % 12.36 C
2598 13-08-2014 00:25:00 14.4 C 88 % 12.44 C
2599 13-08-2014 00:30:00 14.3 C 88 % 12.34 C
2600 13-08-2014 00:35:00 14.2 C 88 % 12.24 C
Sensor: Nr:Datum:Temp:Feuchte:Taupunkt:
Aussen-T/F 2601 13-08-2014 00:40:00 14.1 C 89 % 12.32 C
2602 13-08-2014 00:45:00 14 C 89 % 12.22 C
2603 13-08-2014 00:50:00 13.9 C 89 % 12.12 C
2604 13-08-2014 00:55:00 13.9 C 90 % 12.29 C
2605 13-08-2014 01:00:00 13.8 C 90 % 12.19 C
2606 13-08-2014 01:05:00 13.8 C 90 % 12.19 C
2607 13-08-2014 01:10:00 13.9 C 90 % 12.29 C
2608 13-08-2014 01:15:00 13.9 C 90 % 12.29 C
2609 13-08-2014 01:20:00 14 C 91 % 12.56 C
2610 13-08-2014 01:25:00 14.1 C 91 % 12.65 C
2611 13-08-2014 01:30:00 14.2 C 90 % 12.58 C
2612 13-08-2014 01:35:00 14.2 C 90 % 12.58 C
2613 13-08-2014 01:40:00 14.3 C 90 % 12.68 C
2614 13-08-2014 01:45:00 14.3 C 90 % 12.68 C
2615 13-08-2014 01:50:00 14.3 C 90 % 12.68 C
2616 13-08-2014 01:55:00 14.3 C 89 % 12.51 C
2617 13-08-2014 02:00:00 14.2 C 89 % 12.41 C
2618 13-08-2014 02:05:00 14.1 C 89 % 12.32 C
2619 13-08-2014 02:10:00 14 C 90 % 12.39 C
2620 13-08-2014 02:15:00 13.8 C 90 % 12.19 C
2621 13-08-2014 02:20:00 13.8 C 91 % 12.36 C
2622 13-08-2014 02:25:00 13.8 C 92 % 12.52 C
2623 13-08-2014 02:30:00 13.8 C 92 % 12.52 C
2624 13-08-2014 02:35:00 13.9 C 92 % 12.62 C
2625 13-08-2014 02:40:00 13.9 C 92 % 12.62 C
Sensor: Nr:Datum:Temp:Feuchte:Taupunkt:
Aussen-T/F 2626 13-08-2014 02:45:00 14 C 92 % 12.72 C
2627 13-08-2014 02:50:00 14.1 C 92 % 12.82 C
2628 13-08-2014 02:55:00 14.1 C 91 % 12.65 C
2629 13-08-2014 03:00:00 14.2 C 91 % 12.75 C
2630 13-08-2014 03:05:00 14.2 C 91 % 12.75 C
2631 13-08-2014 03:10:00 14.2 C 91 % 12.75 C
2632 13-08-2014 03:15:00 14.2 C 90 % 12.58 C
2633 13-08-2014 03:20:00 14.2 C 90 % 12.58 C
2634 13-08-2014 03:25:00 14.2 C 91 % 12.75 C
2635 13-08-2014 03:30:00 14.1 C 91 % 12.65 C
2636 13-08-2014 03:35:00 14 C 91 % 12.56 C
2637 13-08-2014 03:40:00 13.9 C 91 % 12.46 C
2638 13-08-2014 03:45:00 13.9 C 91 % 12.46 C
2639 13-08-2014 03:50:00 13.9 C 91 % 12.46 C
2640 13-08-2014 03:55:00 13.9 C 91 % 12.46 C
2641 13-08-2014 04:00:00 13.9 C 91 % 12.46 C
2642 13-08-2014 04:05:00 14.1 C 91 % 12.65 C
2643 13-08-2014 04:10:00 14.1 C 91 % 12.65 C
2644 13-08-2014 04:15:00 14.1 C 91 % 12.65 C
2645 13-08-2014 04:20:00 14.2 C 90 % 12.58 C
2646 13-08-2014 04:25:00 14.2 C 90 % 12.58 C
2647 13-08-2014 04:30:00 14.2 C 90 % 12.58 C
2648 13-08-2014 04:35:00 14.2 C 90 % 12.58 C
2649 13-08-2014 04:40:00 14.2 C 90 % 12.58 C
2650 13-08-2014 04:45:00 14.1 C 90 % 12.49 C
Sensor: Nr:Datum:Temp:Feuchte:Taupunkt:
Aussen-T/F 2651 13-08-2014 04:50:00 14.1 C 91 % 12.65 C
2652 13-08-2014 04:55:00 14.1 C 91 % 12.65 C
2653 13-08-2014 05:00:00 14.1 C 91 % 12.65 C
2654 13-08-2014 05:05:00 14.2 C 91 % 12.75 C
2655 13-08-2014 05:10:00 14.2 C 91 % 12.75 C
2656 13-08-2014 05:15:00 14.2 C 91 % 12.75 C
2657 13-08-2014 05:20:00 14.2 C 91 % 12.75 C
2658 13-08-2014 05:25:00 14.2 C 91 % 12.75 C
2659 13-08-2014 05:30:00 14.1 C 91 % 12.65 C
2660 13-08-2014 05:35:00 14.1 C 91 % 12.65 C
2661 13-08-2014 05:40:00 14.1 C 91 % 12.65 C
2662 13-08-2014 05:45:00 14.1 C 91 % 12.65 C
2663 13-08-2014 05:50:00 14 C 91 % 12.56 C
2664 13-08-2014 05:55:00 13.9 C 91 % 12.46 C
2665 13-08-2014 06:00:00 13.8 C 92 % 12.52 C
2666 13-08-2014 06:05:00 13.8 C 92 % 12.52 C
2667 13-08-2014 06:10:00 13.7 C 92 % 12.42 C
2668 13-08-2014 06:15:00 13.6 C 92 % 12.33 C
2669 13-08-2014 06:20:00 13.6 C 92 % 12.33 C
2670 13-08-2014 06:25:00 13.5 C 92 % 12.23 C
2671 13-08-2014 06:30:00 13.4 C 93 % 12.29 C
2672 13-08-2014 06:35:00 13.5 C 93 % 12.39 C
2673 13-08-2014 06:40:00 13.5 C 93 % 12.39 C
2674 13-08-2014 06:45:00 13.6 C 93 % 12.49 C
2675 13-08-2014 06:50:00 13.7 C 93 % 12.59 C
Sensor: Nr:Datum:Temp:Feuchte:Taupunkt:
Aussen-T/F 2676 13-08-2014 06:55:00 13.7 C 93 % 12.59 C
2677 13-08-2014 07:00:00 13.8 C 93 % 12.69 C
2678 13-08-2014 07:05:00 13.9 C 93 % 12.79 C
2679 13-08-2014 07:10:00 13.9 C 93 % 12.79 C
2680 13-08-2014 07:15:00 14 C 93 % 12.89 C
2681 13-08-2014 07:20:00 14 C 93 % 12.89 C
2682 13-08-2014 07:25:00 14 C 93 % 12.89 C
2683 13-08-2014 07:30:00 13.9 C 93 % 12.79 C
2684 13-08-2014 07:35:00 14 C 93 % 12.89 C
2685 13-08-2014 07:40:00 14 C 93 % 12.89 C
2686 13-08-2014 07:45:00 14.1 C 94 % 13.15 C
2687 13-08-2014 07:50:00 14.2 C 94 % 13.25 C
2688 13-08-2014 07:55:00 14.2 C 94 % 13.25 C
2689 13-08-2014 08:00:00 14.3 C 94 % 13.35 C
2690 13-08-2014 08:05:00 14.4 C 93 % 13.28 C
2691 13-08-2014 08:10:00 14.6 C 92 % 13.32 C
2692 13-08-2014 08:15:00 14.7 C 92 % 13.41 C
2693 13-08-2014 08:20:00 14.9 C 92 % 13.61 C
2694 13-08-2014 08:25:00 15.1 C 91 % 13.64 C
2695 13-08-2014 08:30:00 15.2 C 90 % 13.57 C
2696 13-08-2014 08:35:00 15.3 C 89 % 13.5 C
2697 13-08-2014 08:40:00 15.3 C 89 % 13.5 C
2698 13-08-2014 08:45:00 15.3 C 90 % 13.67 C
2699 13-08-2014 08:50:00 15.3 C 91 % 13.84 C
2700 13-08-2014 08:55:00 15.4 C 91 % 13.94 C
Sensor: Nr:Datum:Temp:Feuchte:Taupunkt:
Aussen-T/F 2701 13-08-2014 09:00:00 15.4 C 92 % 14.11 C
2702 13-08-2014 09:05:00 15.7 C 91 % 14.24 C
2703 13-08-2014 09:10:00 15.9 C 90 % 14.26 C
2704 13-08-2014 09:15:00 16.2 C 87 % 14.03 C
2705 13-08-2014 09:20:00 16.6 C 87 % 14.43 C
2706 13-08-2014 09:25:00 16.8 C 86 % 14.45 C
2707 13-08-2014 09:30:00 16.9 C 84 % 14.18 C
2708 13-08-2014 09:35:00 17.2 C 83 % 14.29 C
2709 13-08-2014 09:40:00 17.3 C 82 % 14.2 C
2710 13-08-2014 09:45:00 17.4 C 82 % 14.3 C
2711 13-08-2014 09:50:00 17.5 C 82 % 14.39 C
2712 13-08-2014 09:55:00 17.6 C 80 % 14.11 C
2713 13-08-2014 10:00:00 17.7 C 80 % 14.21 C
2714 13-08-2014 10:05:00 17.7 C 80 % 14.21 C
2715 13-08-2014 10:10:00 17.8 C 81 % 14.5 C
2716 13-08-2014 10:15:00 17.9 C 79 % 14.21 C
2717 13-08-2014 10:20:00 18.1 C 80 % 14.6 C
2718 13-08-2014 10:25:00 18.2 C 79 % 14.5 C
2719 13-08-2014 10:30:00 18.3 C 79 % 14.6 C
2720 13-08-2014 10:35:00 18.6 C 79 % 14.89 C
2721 13-08-2014 10:40:00 18.7 C 75 % 14.18 C
2722 13-08-2014 10:45:00 18.8 C 76 % 14.48 C
2723 13-08-2014 10:50:00 19 C 74 % 14.26 C
2724 13-08-2014 10:55:00 19.1 C 74 % 14.36 C
2725 13-08-2014 11:00:00 19.2 C 75 % 14.66 C
Sensor: Nr:Datum:Temp:Feuchte:Taupunkt:
Aussen-T/F 2726 13-08-2014 11:05:00 19.2 C 75 % 14.66 C
2727 13-08-2014 11:10:00 19.3 C 75 % 14.76 C
2728 13-08-2014 11:15:00 19.4 C 75 % 14.86 C
2729 13-08-2014 11:20:00 19.6 C 73 % 14.63 C
2730 13-08-2014 11:25:00 19.7 C 74 % 14.94 C
2731 13-08-2014 11:30:00 19.7 C 74 % 14.94 C
2732 13-08-2014 11:35:00 19.6 C 74 % 14.84 C
2733 13-08-2014 11:40:00 19.6 C 74 % 14.84 C
2734 13-08-2014 11:45:00 19.6 C 76 % 15.26 C
2735 13-08-2014 11:50:00 19.6 C 74 % 14.84 C
2736 13-08-2014 11:55:00 19.6 C 75 % 15.05 C
2737 13-08-2014 12:00:00 19.4 C 75 % 14.86 C
2738 13-08-2014 12:05:00 19.4 C 76 % 15.06 C
2739 13-08-2014 12:10:00 19.4 C 75 % 14.86 C
2740 13-08-2014 12:15:00 19.5 C 76 % 15.16 C
2741 13-08-2014 12:20:00 19.6 C 75 % 15.05 C
2742 13-08-2014 12:25:00 19.8 C 73 % 14.82 C
2743 13-08-2014 12:30:00 20 C 75 % 15.43 C
2744 13-08-2014 12:35:00 20.2 C 73 % 15.21 C
2745 13-08-2014 12:40:00 20.1 C 71 % 14.68 C
2746 13-08-2014 12:45:00 20.1 C 72 % 14.9 C
2747 13-08-2014 12:50:00 20.2 C 74 % 15.42 C
2748 13-08-2014 12:55:00 20.2 C 74 % 15.42 C
2749 13-08-2014 13:00:00 20.1 C 73 % 15.11 C
2750 13-08-2014 13:05:00 20.1 C 75 % 15.53 C
Sensor: Nr:Datum:Temp:Feuchte:Taupunkt:
Aussen-T/F 2751 13-08-2014 13:10:00 20.1 C 74 % 15.32 C
2752 13-08-2014 13:15:00 20.1 C 76 % 15.74 C
2753 13-08-2014 13:20:00 19.9 C 75 % 15.34 C
2754 13-08-2014 13:25:00 19.8 C 81 % 16.45 C
2755 13-08-2014 13:30:00 19.6 C 81 % 16.25 C
2756 13-08-2014 13:35:00 19.3 C 82 % 16.15 C
2757 13-08-2014 13:40:00 19 C 83 % 16.05 C
2758 13-08-2014 13:45:00 18.7 C 85 % 16.13 C
2759 13-08-2014 13:50:00 18.6 C 87 % 16.39 C
2760 13-08-2014 13:55:00 18.5 C 87 % 16.3 C
2761 13-08-2014 14:00:00 18.6 C 89 % 16.75 C
2762 13-08-2014 14:05:00 18.6 C 84 % 15.84 C
2763 13-08-2014 14:10:00 18.8 C 88 % 16.77 C
2764 13-08-2014 14:15:00 18.8 C 88 % 16.77 C
2765 13-08-2014 14:20:00 18.9 C 88 % 16.87 C
2766 13-08-2014 14:25:00 19 C 88 % 16.97 C
2767 13-08-2014 14:30:00 18.9 C 88 % 16.87 C
2768 13-08-2014 14:35:00 18.8 C 88 % 16.77 C
2769 13-08-2014 14:40:00 18.7 C 89 % 16.85 C
2770 13-08-2014 14:45:00 18.6 C 90 % 16.93 C
2771 13-08-2014 14:50:00 18.6 C 90 % 16.93 C
2772 13-08-2014 14:55:00 18.5 C 90 % 16.83 C
2773 13-08-2014 15:00:00 18.4 C 90 % 16.73 C
2774 13-08-2014 15:05:00 18.3 C 91 % 16.81 C
2775 13-08-2014 15:10:00 18.3 C 91 % 16.81 C
Sensor: Nr:Datum:Temp:Feuchte:Taupunkt:
Aussen-T/F 2776 13-08-2014 15:15:00 18.2 C 92 % 16.88 C
2777 13-08-2014 15:20:00 18.1 C 92 % 16.78 C
2778 13-08-2014 15:25:00 18 C 92 % 16.68 C
2779 13-08-2014 15:30:00 17.9 C 93 % 16.75 C
2780 13-08-2014 15:35:00 17.8 C 93 % 16.65 C
2781 13-08-2014 15:40:00 17.7 C 93 % 16.55 C
2782 13-08-2014 15:45:00 17.7 C 94 % 16.72 C
2783 13-08-2014 15:50:00 17.7 C 94 % 16.72 C
2784 13-08-2014 15:55:00 17.7 C 93 % 16.55 C
2785 13-08-2014 16:00:00 17.6 C 94 % 16.62 C
2786 13-08-2014 16:05:00 17.6 C 93 % 16.45 C
2787 13-08-2014 16:10:00 17.5 C 93 % 16.36 C
2788 13-08-2014 16:15:00 17.4 C 93 % 16.26 C
2789 13-08-2014 16:20:00 17.3 C 92 % 15.99 C
2790 13-08-2014 16:25:00 17.2 C 92 % 15.89 C
2791 13-08-2014 16:30:00 17.2 C 93 % 16.06 C
2792 13-08-2014 16:35:00 17.1 C 93 % 15.96 C
2793 13-08-2014 16:40:00 17 C 93 % 15.86 C
2794 13-08-2014 16:45:00 16.8 C 92 % 15.49 C
2795 13-08-2014 16:50:00 16.7 C 92 % 15.39 C
2796 13-08-2014 16:55:00 16.6 C 92 % 15.3 C
2797 13-08-2014 17:00:00 16.4 C 92 % 15.1 C
2798 13-08-2014 17:05:00 16.3 C 92 % 15 C
2799 13-08-2014 17:10:00 16.2 C 92 % 14.9 C
2800 13-08-2014 17:15:00 16 C 93 % 14.87 C
Sensor: Nr:Datum:Temp:Feuchte:Taupunkt:
Aussen-T/F 2801 13-08-2014 17:20:00 15.8 C 93 % 14.67 C
2802 13-08-2014 17:25:00 15.7 C 93 % 14.57 C
2803 13-08-2014 17:30:00 15.6 C 94 % 14.64 C
2804 13-08-2014 17:35:00 15.7 C 94 % 14.74 C
2805 13-08-2014 17:40:00 15.6 C 94 % 14.64 C
2806 13-08-2014 17:45:00 15.6 C 95 % 14.8 C
2807 13-08-2014 17:50:00 15.6 C 95 % 14.8 C
2808 13-08-2014 17:55:00 15.7 C 95 % 14.9 C
2809 13-08-2014 18:00:00 15.7 C 95 % 14.9 C
2810 13-08-2014 18:05:00 15.7 C 95 % 14.9 C
2811 13-08-2014 18:10:00 15.7 C 95 % 14.9 C
2812 13-08-2014 18:15:00 15.7 C 96 % 15.06 C
2813 13-08-2014 18:20:00 15.7 C 96 % 15.06 C
2814 13-08-2014 18:25:00 15.7 C 96 % 15.06 C
2815 13-08-2014 18:30:00 15.7 C 96 % 15.06 C
2816 13-08-2014 18:35:00 15.7 C 96 % 15.06 C
2817 13-08-2014 18:40:00 15.7 C 96 % 15.06 C
2818 13-08-2014 18:45:00 15.7 C 96 % 15.06 C
2819 13-08-2014 18:50:00 15.6 C 96 % 14.96 C
2820 13-08-2014 18:55:00 15.6 C 96 % 14.96 C
2821 13-08-2014 19:00:00 15.6 C 96 % 14.96 C
2822 13-08-2014 19:05:00 15.7 C 96 % 15.06 C
2823 13-08-2014 19:10:00 15.7 C 96 % 15.06 C
2824 13-08-2014 19:15:00 15.8 C 96 % 15.16 C
2825 13-08-2014 19:20:00 15.8 C 96 % 15.16 C
Sensor: Nr:Datum:Temp:Feuchte:Taupunkt:
Aussen-T/F 2826 13-08-2014 19:25:00 15.8 C 96 % 15.16 C
2827 13-08-2014 19:30:00 15.8 C 96 % 15.16 C
2828 13-08-2014 19:35:00 15.7 C 96 % 15.06 C
2829 13-08-2014 19:40:00 15.7 C 96 % 15.06 C
2830 13-08-2014 19:45:00 15.7 C 96 % 15.06 C
2831 13-08-2014 19:50:00 15.6 C 96 % 14.96 C
2832 13-08-2014 19:55:00 15.6 C 97 % 15.13 C
2833 13-08-2014 20:00:00 15.6 C 97 % 15.13 C
2834 13-08-2014 20:05:00 15.5 C 97 % 15.03 C
2835 13-08-2014 20:10:00 15.5 C 96 % 14.86 C
2836 13-08-2014 20:15:00 15.5 C 97 % 15.03 C
2837 13-08-2014 20:20:00 15.6 C 97 % 15.13 C
2838 13-08-2014 20:25:00 15.6 C 97 % 15.13 C
2839 13-08-2014 20:30:00 15.7 C 97 % 15.23 C
2840 13-08-2014 20:35:00 15.7 C 97 % 15.23 C
2841 13-08-2014 20:40:00 15.7 C 97 % 15.23 C
2842 13-08-2014 20:45:00 15.7 C 97 % 15.23 C
2843 13-08-2014 20:50:00 15.6 C 97 % 15.13 C
2844 13-08-2014 20:55:00 15.5 C 97 % 15.03 C
2845 13-08-2014 21:00:00 15.4 C 97 % 14.93 C
2846 13-08-2014 21:05:00 15.4 C 97 % 14.93 C
2847 13-08-2014 21:10:00 15.3 C 97 % 14.83 C
2848 13-08-2014 21:15:00 15.3 C 97 % 14.83 C
2849 13-08-2014 21:20:00 15.3 C 97 % 14.83 C
2850 13-08-2014 21:25:00 15.3 C 97 % 14.83 C
Sensor: Nr:Datum:Temp:Feuchte:Taupunkt:
Aussen-T/F 2851 13-08-2014 21:30:00 15.3 C 97 % 14.83 C
2852 13-08-2014 21:35:00 15.3 C 96 % 14.67 C
2853 13-08-2014 21:40:00 15.3 C 96 % 14.67 C
2854 13-08-2014 21:45:00 15.2 C 96 % 14.57 C
2855 13-08-2014 21:50:00 15.2 C 96 % 14.57 C
2856 13-08-2014 21:55:00 15.1 C 95 % 14.31 C
2857 13-08-2014 22:00:00 15.1 C 95 % 14.31 C
2858 13-08-2014 22:05:00 15.1 C 95 % 14.31 C
2859 13-08-2014 22:10:00 15 C 95 % 14.21 C
2860 13-08-2014 22:15:00 15.1 C 95 % 14.31 C
2861 13-08-2014 22:20:00 15.1 C 95 % 14.31 C
2862 13-08-2014 22:25:00 15.2 C 95 % 14.4 C
2863 13-08-2014 22:30:00 15.2 C 95 % 14.4 C
2864 13-08-2014 22:35:00 15.2 C 95 % 14.4 C
2865 13-08-2014 22:40:00 15.2 C 95 % 14.4 C
2866 13-08-2014 22:45:00 15.2 C 95 % 14.4 C
2867 13-08-2014 22:50:00 15.1 C 95 % 14.31 C
2868 13-08-2014 22:55:00 15.1 C 95 % 14.31 C
2869 13-08-2014 23:00:00 15.1 C 95 % 14.31 C
2870 13-08-2014 23:05:00 15.1 C 95 % 14.31 C
2871 13-08-2014 23:10:00 15.2 C 95 % 14.4 C
2872 13-08-2014 23:15:00 15.2 C 95 % 14.4 C
2873 13-08-2014 23:20:00 15.2 C 95 % 14.4 C
2874 13-08-2014 23:25:00 15.2 C 95 % 14.4 C
2875 13-08-2014 23:30:00 15.2 C 94 % 14.24 C
Sensor: Nr:Datum:Temp:Feuchte:Taupunkt:
Aussen-T/F 2876 13-08-2014 23:35:00 15.2 C 94 % 14.24 C
2877 13-08-2014 23:40:00 15.1 C 94 % 14.14 C
2878 13-08-2014 23:45:00 15.1 C 94 % 14.14 C
2879 13-08-2014 23:50:00 15.1 C 94 % 14.14 C
2880 13-08-2014 23:55:00 15.1 C 94 % 14.14 C
2881 14-08-2014 00:00:00 15.1 C 94 % 14.14 C
2882 14-08-2014 00:05:00 15.1 C 93 % 13.98 C
2883 14-08-2014 00:10:00 15.1 C 93 % 13.98 C
2884 14-08-2014 00:15:00 15.1 C 93 % 13.98 C
2885 14-08-2014 00:20:00 15.1 C 93 % 13.98 C
2886 14-08-2014 00:25:00 15 C 93 % 13.88 C
2887 14-08-2014 00:30:00 14.9 C 93 % 13.78 C
2888 14-08-2014 00:35:00 14.8 C 93 % 13.68 C
2889 14-08-2014 00:40:00 14.8 C 93 % 13.68 C
2890 14-08-2014 00:45:00 14.8 C 93 % 13.68 C
2891 14-08-2014 00:50:00 14.8 C 93 % 13.68 C
2892 14-08-2014 00:55:00 14.8 C 92 % 13.51 C
2893 14-08-2014 01:00:00 14.8 C 92 % 13.51 C
2894 14-08-2014 01:05:00 14.8 C 91 % 13.35 C
2895 14-08-2014 01:10:00 14.8 C 91 % 13.35 C
2896 14-08-2014 01:15:00 14.8 C 91 % 13.35 C
2897 14-08-2014 01:20:00 14.8 C 92 % 13.51 C
2898 14-08-2014 01:25:00 14.7 C 92 % 13.41 C
2899 14-08-2014 01:30:00 14.6 C 92 % 13.32 C
2900 14-08-2014 01:35:00 14.5 C 93 % 13.38 C
Sensor: Nr:Datum:Temp:Feuchte:Taupunkt:
Aussen-T/F 2901 14-08-2014 01:40:00 14.4 C 93 % 13.28 C
2902 14-08-2014 01:45:00 14.3 C 93 % 13.18 C
2903 14-08-2014 01:50:00 14.3 C 94 % 13.35 C
2904 14-08-2014 01:55:00 14.2 C 94 % 13.25 C
2905 14-08-2014 02:00:00 14.1 C 94 % 13.15 C
2906 14-08-2014 02:05:00 14.1 C 94 % 13.15 C
2907 14-08-2014 02:10:00 14.1 C 94 % 13.15 C
2908 14-08-2014 02:15:00 14 C 94 % 13.05 C
2909 14-08-2014 02:20:00 13.9 C 95 % 13.11 C
2910 14-08-2014 02:25:00 13.9 C 95 % 13.11 C
2911 14-08-2014 02:30:00 13.8 C 95 % 13.01 C
2912 14-08-2014 02:35:00 13.8 C 95 % 13.01 C
2913 14-08-2014 02:40:00 13.7 C 95 % 12.91 C
2914 14-08-2014 02:45:00 13.7 C 96 % 13.07 C
2915 14-08-2014 02:50:00 13.6 C 95 % 12.81 C
2916 14-08-2014 02:55:00 13.6 C 96 % 12.97 C
2917 14-08-2014 03:00:00 13.5 C 96 % 12.87 C
2918 14-08-2014 03:05:00 13.5 C 96 % 12.87 C
2919 14-08-2014 03:10:00 13.4 C 96 % 12.78 C
2920 14-08-2014 03:15:00 13.4 C 96 % 12.78 C
2921 14-08-2014 03:20:00 13.4 C 96 % 12.78 C
2922 14-08-2014 03:25:00 13.4 C 96 % 12.78 C
2923 14-08-2014 03:30:00 13.3 C 96 % 12.68 C
2924 14-08-2014 03:35:00 13.3 C 96 % 12.68 C
2925 14-08-2014 03:40:00 13.3 C 96 % 12.68 C
Sensor: Nr:Datum:Temp:Feuchte:Taupunkt:
Aussen-T/F 2926 14-08-2014 03:45:00 13.3 C 96 % 12.68 C
2927 14-08-2014 03:50:00 13.2 C 97 % 12.73 C
2928 14-08-2014 03:55:00 13.2 C 97 % 12.73 C
2929 14-08-2014 04:00:00 13.1 C 97 % 12.63 C
2930 14-08-2014 04:05:00 13.1 C 97 % 12.63 C
2931 14-08-2014 04:10:00 13.1 C 97 % 12.63 C
2932 14-08-2014 04:15:00 13.2 C 97 % 12.73 C
2933 14-08-2014 04:20:00 13.2 C 97 % 12.73 C
2934 14-08-2014 04:25:00 13.3 C 97 % 12.83 C
2935 14-08-2014 04:30:00 13.3 C 97 % 12.83 C
2936 14-08-2014 04:35:00 13.3 C 97 % 12.83 C
2937 14-08-2014 04:40:00 13.3 C 97 % 12.83 C
2938 14-08-2014 04:45:00 13.2 C 97 % 12.73 C
2939 14-08-2014 04:50:00 13.2 C 97 % 12.73 C
2940 14-08-2014 04:55:00 13.2 C 97 % 12.73 C
2941 14-08-2014 05:00:00 13.2 C 97 % 12.73 C
2942 14-08-2014 05:05:00 13.2 C 97 % 12.73 C
2943 14-08-2014 05:10:00 13.2 C 97 % 12.73 C
2944 14-08-2014 05:15:00 13.2 C 97 % 12.73 C
2945 14-08-2014 05:20:00 13.2 C 97 % 12.73 C
2946 14-08-2014 05:25:00 13.1 C 97 % 12.63 C
2947 14-08-2014 05:30:00 13 C 97 % 12.54 C
2948 14-08-2014 05:35:00 13 C 97 % 12.54 C
2949 14-08-2014 05:40:00 13 C 97 % 12.54 C
2950 14-08-2014 05:45:00 12.9 C 97 % 12.44 C
Sensor: Nr:Datum:Temp:Feuchte:Taupunkt:
Aussen-T/F 2951 14-08-2014 05:50:00 12.9 C 97 % 12.44 C
2952 14-08-2014 05:55:00 12.9 C 97 % 12.44 C
2953 14-08-2014 06:00:00 12.9 C 97 % 12.44 C
2954 14-08-2014 06:05:00 13 C 97 % 12.54 C
2955 14-08-2014 06:10:00 13 C 97 % 12.54 C
2956 14-08-2014 06:15:00 13 C 97 % 12.54 C
2957 14-08-2014 06:20:00 13 C 97 % 12.54 C
2958 14-08-2014 06:25:00 12.9 C 97 % 12.44 C
2959 14-08-2014 06:30:00 12.9 C 97 % 12.44 C
2960 14-08-2014 06:35:00 12.9 C 97 % 12.44 C
2961 14-08-2014 06:40:00 12.9 C 97 % 12.44 C
2962 14-08-2014 06:45:00 12.9 C 97 % 12.44 C
2963 14-08-2014 06:50:00 12.8 C 97 % 12.34 C
2964 14-08-2014 06:55:00 12.8 C 97 % 12.34 C
2965 14-08-2014 07:00:00 12.9 C 97 % 12.44 C
2966 14-08-2014 07:05:00 13.1 C 97 % 12.63 C
2967 14-08-2014 07:10:00 13.2 C 97 % 12.73 C
2968 14-08-2014 07:15:00 13.3 C 97 % 12.83 C
2969 14-08-2014 07:20:00 13.4 C 97 % 12.93 C
2970 14-08-2014 07:25:00 13.5 C 97 % 13.03 C
2971 14-08-2014 07:30:00 13.6 C 97 % 13.13 C
2972 14-08-2014 07:35:00 13.7 C 97 % 13.23 C
2973 14-08-2014 07:40:00 13.8 C 97 % 13.33 C
2974 14-08-2014 07:45:00 13.9 C 96 % 13.27 C
2975 14-08-2014 07:50:00 13.9 C 95 % 13.11 C
Sensor: Nr:Datum:Temp:Feuchte:Taupunkt:
Aussen-T/F 2976 14-08-2014 07:55:00 14.1 C 94 % 13.15 C
2977 14-08-2014 08:00:00 14.2 C 93 % 13.08 C
2978 14-08-2014 08:05:00 14.4 C 91 % 12.95 C
2979 14-08-2014 08:10:00 14.7 C 90 % 13.08 C
2980 14-08-2014 08:15:00 14.8 C 90 % 13.18 C
2981 14-08-2014 08:20:00 14.9 C 89 % 13.1 C
2982 14-08-2014 08:25:00 15 C 89 % 13.2 C
2983 14-08-2014 08:30:00 15.1 C 88 % 13.13 C
2984 14-08-2014 08:35:00 15.1 C 88 % 13.13 C
2985 14-08-2014 08:40:00 15 C 88 % 13.03 C
2986 14-08-2014 08:45:00 15 C 88 % 13.03 C
2987 14-08-2014 08:50:00 15.1 C 89 % 13.3 C
2988 14-08-2014 08:55:00 15.1 C 89 % 13.3 C
2989 14-08-2014 09:00:00 15 C 89 % 13.2 C
2990 14-08-2014 09:05:00 15.1 C 91 % 13.64 C
2991 14-08-2014 09:10:00 15.1 C 90 % 13.47 C
2992 14-08-2014 09:15:00 15.3 C 89 % 13.5 C
2993 14-08-2014 09:20:00 15.4 C 88 % 13.42 C
2994 14-08-2014 09:25:00 15.6 C 88 % 13.62 C
2995 14-08-2014 09:30:00 15.6 C 87 % 13.45 C
2996 14-08-2014 09:35:00 15.6 C 87 % 13.45 C
2997 14-08-2014 09:40:00 15.7 C 88 % 13.72 C
2998 14-08-2014 09:45:00 15.8 C 87 % 13.64 C
2999 14-08-2014 09:50:00 15.9 C 85 % 13.38 C
3000 14-08-2014 09:55:00 16.1 C 85 % 13.58 C
Sensor: Nr:Datum:Temp:Feuchte:Taupunkt:
Aussen-T/F 3001 14-08-2014 10:00:00 16.2 C 85 % 13.68 C
3002 14-08-2014 10:05:00 16.3 C 85 % 13.77 C
3003 14-08-2014 10:10:00 16.4 C 85 % 13.87 C
3004 14-08-2014 10:15:00 16.4 C 85 % 13.87 C
3005 14-08-2014 10:20:00 16.4 C 84 % 13.69 C
3006 14-08-2014 10:25:00 16.4 C 82 % 13.32 C
3007 14-08-2014 10:30:00 16.4 C 81 % 13.13 C
3008 14-08-2014 10:35:00 16.5 C 80 % 13.04 C
3009 14-08-2014 10:40:00 16.7 C 80 % 13.23 C
3010 14-08-2014 10:45:00 16.8 C 80 % 13.33 C
3011 14-08-2014 10:50:00 16.9 C 78 % 13.04 C
3012 14-08-2014 10:55:00 16.8 C 79 % 13.14 C
3013 14-08-2014 11:00:00 16.8 C 80 % 13.33 C
3014 14-08-2014 11:05:00 16.9 C 79 % 13.24 C
3015 14-08-2014 11:10:00 16.9 C 80 % 13.43 C
3016 14-08-2014 11:15:00 17 C 78 % 13.14 C
3017 14-08-2014 11:20:00 17 C 79 % 13.33 C
3018 14-08-2014 11:25:00 17.1 C 77 % 13.04 C
3019 14-08-2014 11:30:00 17.2 C 78 % 13.33 C
3020 14-08-2014 11:35:00 17.2 C 77 % 13.14 C
3021 14-08-2014 11:40:00 17.3 C 80 % 13.82 C
3022 14-08-2014 11:45:00 17.5 C 77 % 13.43 C
3023 14-08-2014 11:50:00 17.8 C 75 % 13.31 C
3024 14-08-2014 11:55:00 17.8 C 74 % 13.11 C
3025 14-08-2014 12:00:00 18.1 C 75 % 13.6 C
Sensor: Nr:Datum:Temp:Feuchte:Taupunkt:
Aussen-T/F 3026 14-08-2014 12:05:00 18.2 C 74 % 13.49 C
3027 14-08-2014 12:10:00 18.3 C 72 % 13.17 C
3028 14-08-2014 12:15:00 18.4 C 74 % 13.68 C
3029 14-08-2014 12:20:00 18.7 C 73 % 13.76 C
3030 14-08-2014 12:25:00 18.9 C 73 % 13.96 C
3031 14-08-2014 12:30:00 19.1 C 73 % 14.15 C
3032 14-08-2014 12:35:00 19.3 C 71 % 13.91 C
3033 14-08-2014 12:40:00 19.4 C 69 % 13.57 C
3034 14-08-2014 12:45:00 19.6 C 69 % 13.76 C
3035 14-08-2014 12:50:00 19.8 C 68 % 13.73 C
3036 14-08-2014 12:55:00 19.8 C 67 % 13.5 C
3037 14-08-2014 13:00:00 19.8 C 71 % 14.39 C
3038 14-08-2014 13:05:00 20.1 C 69 % 14.24 C
3039 14-08-2014 13:10:00 20.3 C 66 % 13.74 C
3040 14-08-2014 13:15:00 20.2 C 66 % 13.65 C
3041 14-08-2014 13:20:00 19.9 C 68 % 13.82 C
3042 14-08-2014 13:25:00 19.6 C 65 % 12.84 C
3043 14-08-2014 13:30:00 19.3 C 68 % 13.25 C
3044 14-08-2014 13:35:00 19.1 C 71 % 13.72 C
3045 14-08-2014 13:40:00 18.9 C 72 % 13.74 C
3046 14-08-2014 13:45:00 19 C 73 % 14.05 C
3047 14-08-2014 13:50:00 19.1 C 74 % 14.36 C
3048 14-08-2014 13:55:00 19 C 73 % 14.05 C
3049 14-08-2014 14:00:00 19.1 C 72 % 13.94 C
3050 14-08-2014 14:05:00 19.3 C 72 % 14.13 C
Sensor: Nr:Datum:Temp:Feuchte:Taupunkt:
Aussen-T/F 3051 14-08-2014 14:10:00 19.3 C 71 % 13.91 C
3052 14-08-2014 14:15:00 19.3 C 73 % 14.34 C
3053 14-08-2014 14:20:00 19.4 C 72 % 14.22 C
3054 14-08-2014 14:25:00 19.5 C 74 % 14.74 C
3055 14-08-2014 14:30:00 19.8 C 72 % 14.61 C
3056 14-08-2014 14:35:00 19.9 C 71 % 14.49 C
3057 14-08-2014 14:40:00 20.2 C 70 % 14.56 C
3058 14-08-2014 14:45:00 20.3 C 68 % 14.2 C
3059 14-08-2014 14:50:00 20.5 C 67 % 14.16 C
3060 14-08-2014 14:55:00 20.7 C 67 % 14.36 C
3061 14-08-2014 15:00:00 20.4 C 67 % 14.07 C
3062 14-08-2014 15:05:00 20 C 69 % 14.14 C
3063 14-08-2014 15:10:00 19.8 C 69 % 13.95 C
3064 14-08-2014 15:15:00 20.1 C 69 % 14.24 C
3065 14-08-2014 15:20:00 20.5 C 67 % 14.16 C
3066 14-08-2014 15:25:00 20.8 C 72 % 15.57 C
3067 14-08-2014 15:30:00 20.9 C 67 % 14.55 C
3068 14-08-2014 15:35:00 20.6 C 64 % 13.55 C
3069 14-08-2014 15:40:00 20.1 C 66 % 13.55 C
3070 14-08-2014 15:45:00 19.8 C 67 % 13.5 C
3071 14-08-2014 15:50:00 19.4 C 69 % 13.57 C
3072 14-08-2014 15:55:00 19.1 C 72 % 13.94 C
3073 14-08-2014 16:00:00 18.7 C 77 % 14.59 C
3074 14-08-2014 16:05:00 18.3 C 72 % 13.17 C
3075 14-08-2014 16:10:00 18.2 C 73 % 13.28 C
Sensor: Nr:Datum:Temp:Feuchte:Taupunkt:
Aussen-T/F 3076 14-08-2014 16:15:00 18.4 C 74 % 13.68 C
3077 14-08-2014 16:20:00 18.9 C 74 % 14.17 C
3078 14-08-2014 16:25:00 19.6 C 70 % 13.98 C
3079 14-08-2014 16:30:00 20.2 C 68 % 14.11 C
3080 14-08-2014 16:35:00 20.6 C 67 % 14.26 C
3081 14-08-2014 16:40:00 21.1 C 65 % 14.27 C
3082 14-08-2014 16:45:00 20.8 C 64 % 13.74 C
3083 14-08-2014 16:50:00 20.4 C 66 % 13.84 C
3084 14-08-2014 16:55:00 20.4 C 67 % 14.07 C
3085 14-08-2014 17:00:00 21.1 C 67 % 14.74 C
3086 14-08-2014 17:05:00 21.4 C 66 % 14.79 C
3087 14-08-2014 17:10:00 21.6 C 63 % 14.26 C
3088 14-08-2014 17:15:00 21.9 C 57 % 13 C
3089 14-08-2014 17:20:00 21.9 C 57 % 13 C
3090 14-08-2014 17:25:00 21.5 C 59 % 13.15 C
3091 14-08-2014 17:30:00 21.1 C 61 % 13.29 C
3092 14-08-2014 17:35:00 20.6 C 67 % 14.26 C
3093 14-08-2014 17:40:00 20.2 C 66 % 13.65 C
3094 14-08-2014 17:45:00 19.8 C 68 % 13.73 C
3095 14-08-2014 17:50:00 19.6 C 75 % 15.05 C
3096 14-08-2014 17:55:00 19.3 C 73 % 14.34 C
3097 14-08-2014 18:00:00 19.5 C 71 % 14.1 C
3098 14-08-2014 18:05:00 19.7 C 69 % 13.86 C
3099 14-08-2014 18:10:00 19.6 C 78 % 15.66 C
3100 14-08-2014 18:15:00 19.4 C 74 % 14.65 C
Sensor: Nr:Datum:Temp:Feuchte:Taupunkt:
Aussen-T/F 3101 14-08-2014 18:20:00 19.8 C 68 % 13.73 C
3102 14-08-2014 18:25:00 20 C 72 % 14.8 C
3103 14-08-2014 18:30:00 19.8 C 68 % 13.73 C
3104 14-08-2014 18:35:00 19.5 C 67 % 13.21 C
3105 14-08-2014 18:40:00 19.1 C 67 % 12.83 C
3106 14-08-2014 18:45:00 18.4 C 71 % 13.05 C
3107 14-08-2014 18:50:00 17.8 C 72 % 12.69 C
3108 14-08-2014 18:55:00 17.4 C 75 % 12.93 C
3109 14-08-2014 19:00:00 17.1 C 75 % 12.64 C
3110 14-08-2014 19:05:00 16.8 C 78 % 12.94 C
3111 14-08-2014 19:10:00 16.7 C 80 % 13.23 C
3112 14-08-2014 19:15:00 16.5 C 81 % 13.23 C
3113 14-08-2014 19:20:00 16.3 C 82 % 13.22 C
3114 14-08-2014 19:25:00 16.2 C 82 % 13.13 C
3115 14-08-2014 19:30:00 16.1 C 83 % 13.21 C
3116 14-08-2014 19:35:00 16.1 C 83 % 13.21 C
3117 14-08-2014 19:40:00 16 C 83 % 13.12 C
3118 14-08-2014 19:45:00 16 C 83 % 13.12 C
3119 14-08-2014 20:05:00 15.7 C 85 % 13.19 C
3120 14-08-2014 20:10:00 15.6 C 85 % 13.09 C
3121 14-08-2014 20:15:00 15.6 C 86 % 13.27 C
3122 14-08-2014 20:20:00 15.4 C 86 % 13.07 C
3123 14-08-2014 20:25:00 15.3 C 87 % 13.15 C
3124 14-08-2014 20:30:00 15.2 C 88 % 13.23 C
3125 14-08-2014 20:35:00 15.1 C 88 % 13.13 C
Sensor: Nr:Datum:Temp:Feuchte:Taupunkt:
Aussen-T/F 3126 14-08-2014 20:40:00 15 C 89 % 13.2 C
3127 14-08-2014 20:45:00 14.9 C 89 % 13.1 C
3128 14-08-2014 20:50:00 14.9 C 89 % 13.1 C
3129 14-08-2014 20:55:00 14.8 C 89 % 13.01 C
3130 14-08-2014 21:00:00 14.8 C 90 % 13.18 C
3131 14-08-2014 21:05:00 14.8 C 90 % 13.18 C
3132 14-08-2014 21:10:00 14.7 C 90 % 13.08 C
3133 14-08-2014 21:15:00 14.7 C 90 % 13.08 C
3134 14-08-2014 21:20:00 14.6 C 90 % 12.98 C
3135 14-08-2014 21:25:00 14.6 C 90 % 12.98 C
3136 14-08-2014 21:30:00 14.6 C 90 % 12.98 C
3137 14-08-2014 21:50:00 14.8 C 89 % 13.01 C
3138 14-08-2014 21:55:00 14.8 C 90 % 13.18 C
3139 14-08-2014 22:00:00 14.8 C 90 % 13.18 C
3140 14-08-2014 22:05:00 14.7 C 90 % 13.08 C
3141 14-08-2014 22:10:00 14.7 C 90 % 13.08 C
3142 14-08-2014 22:15:00 14.7 C 90 % 13.08 C
3143 14-08-2014 22:20:00 14.7 C 91 % 13.25 C
3144 14-08-2014 22:25:00 14.7 C 91 % 13.25 C
3145 14-08-2014 22:30:00 14.7 C 91 % 13.25 C
3146 14-08-2014 22:35:00 14.7 C 91 % 13.25 C
3147 14-08-2014 22:40:00 14.7 C 91 % 13.25 C
3148 14-08-2014 22:45:00 14.7 C 91 % 13.25 C
3149 14-08-2014 22:50:00 14.7 C 91 % 13.25 C
3150 14-08-2014 22:55:00 14.7 C 91 % 13.25 C
Sensor: Nr:Datum:Temp:Feuchte:Taupunkt:
Aussen-T/F 3151 14-08-2014 23:00:00 14.6 C 91 % 13.15 C
3152 14-08-2014 23:05:00 14.6 C 91 % 13.15 C
3153 14-08-2014 23:10:00 14.7 C 91 % 13.25 C
3154 14-08-2014 23:15:00 14.6 C 89 % 12.81 C
3155 14-08-2014 23:20:00 14.7 C 90 % 13.08 C
3156 14-08-2014 23:25:00 14.7 C 90 % 13.08 C
3157 14-08-2014 23:30:00 14.7 C 90 % 13.08 C
3158 14-08-2014 23:35:00 14.7 C 90 % 13.08 C
3159 14-08-2014 23:40:00 14.7 C 90 % 13.08 C
3160 14-08-2014 23:45:00 14.6 C 87 % 12.46 C
3161 14-08-2014 23:50:00 14.7 C 87 % 12.56 C
3162 14-08-2014 23:55:00 14.8 C 88 % 12.83 C
3163 15-08-2014 00:00:00 14.7 C 88 % 12.73 C
3164 15-08-2014 00:05:00 14.5 C 89 % 12.71 C
3165 15-08-2014 00:10:00 14.3 C 90 % 12.68 C
3166 15-08-2014 00:15:00 14.2 C 90 % 12.58 C
3167 15-08-2014 00:20:00 14.2 C 89 % 12.41 C
3168 15-08-2014 00:25:00 14.2 C 89 % 12.41 C
3169 15-08-2014 00:30:00 14.2 C 89 % 12.41 C
3170 15-08-2014 00:35:00 14.2 C 89 % 12.41 C
3171 15-08-2014 00:40:00 14.2 C 89 % 12.41 C
3172 15-08-2014 00:45:00 14.2 C 89 % 12.41 C
3173 15-08-2014 00:50:00 14.2 C 89 % 12.41 C
3174 15-08-2014 00:55:00 14.1 C 89 % 12.32 C
3175 15-08-2014 01:00:00 14 C 89 % 12.22 C
Sensor: Nr:Datum:Temp:Feuchte:Taupunkt:
Aussen-T/F 3176 15-08-2014 01:05:00 13.9 C 90 % 12.29 C
3177 15-08-2014 01:10:00 13.9 C 90 % 12.29 C
3178 15-08-2014 01:15:00 13.8 C 90 % 12.19 C
3179 15-08-2014 01:20:00 13.6 C 90 % 11.99 C
3180 15-08-2014 01:25:00 13.5 C 90 % 11.89 C
3181 15-08-2014 01:30:00 13.4 C 91 % 11.96 C
3182 15-08-2014 01:35:00 13.4 C 91 % 11.96 C
3183 15-08-2014 01:40:00 13.3 C 91 % 11.86 C
3184 15-08-2014 01:45:00 13.3 C 91 % 11.86 C
3185 15-08-2014 01:50:00 13.3 C 91 % 11.86 C
3186 15-08-2014 01:55:00 13.3 C 91 % 11.86 C
3187 15-08-2014 02:00:00 13.4 C 90 % 11.79 C
3188 15-08-2014 02:05:00 13.6 C 90 % 11.99 C
3189 15-08-2014 02:10:00 13.6 C 90 % 11.99 C
3190 15-08-2014 02:15:00 13.6 C 90 % 11.99 C
3191 15-08-2014 02:20:00 13.6 C 90 % 11.99 C
3192 15-08-2014 02:25:00 13.7 C 90 % 12.09 C
3193 15-08-2014 02:30:00 13.7 C 89 % 11.92 C
3194 15-08-2014 02:35:00 13.6 C 90 % 11.99 C
3195 15-08-2014 02:40:00 13.6 C 90 % 11.99 C
3196 15-08-2014 02:45:00 13.5 C 90 % 11.89 C
3197 15-08-2014 02:50:00 13.4 C 90 % 11.79 C
3198 15-08-2014 02:55:00 13.3 C 91 % 11.86 C
3199 15-08-2014 03:00:00 13.2 C 91 % 11.76 C
3200 15-08-2014 03:05:00 13.1 C 92 % 11.83 C
Sensor: Nr:Datum:Temp:Feuchte:Taupunkt:
Aussen-T/F 3201 15-08-2014 03:10:00 13 C 92 % 11.73 C
3202 15-08-2014 03:15:00 12.9 C 92 % 11.63 C
3203 15-08-2014 03:20:00 12.9 C 93 % 11.8 C
3204 15-08-2014 03:25:00 12.9 C 93 % 11.8 C
3205 15-08-2014 03:30:00 12.9 C 93 % 11.8 C
3206 15-08-2014 03:35:00 12.9 C 94 % 11.96 C
3207 15-08-2014 03:40:00 12.9 C 94 % 11.96 C
3208 15-08-2014 03:45:00 13 C 94 % 12.06 C
3209 15-08-2014 03:50:00 13.1 C 94 % 12.16 C
3210 15-08-2014 03:55:00 13.1 C 94 % 12.16 C
3211 15-08-2014 04:00:00 13.1 C 94 % 12.16 C
3212 15-08-2014 04:05:00 13.1 C 94 % 12.16 C
3213 15-08-2014 04:10:00 13.1 C 94 % 12.16 C
3214 15-08-2014 04:15:00 13.2 C 94 % 12.26 C
3215 15-08-2014 04:20:00 13.2 C 94 % 12.26 C
3216 15-08-2014 04:25:00 13.2 C 94 % 12.26 C
3217 15-08-2014 04:30:00 13.2 C 94 % 12.26 C
3218 15-08-2014 04:35:00 13.2 C 94 % 12.26 C
3219 15-08-2014 04:40:00 13.3 C 94 % 12.36 C
3220 15-08-2014 04:45:00 13.3 C 94 % 12.36 C
3221 15-08-2014 04:50:00 13.3 C 94 % 12.36 C
3222 15-08-2014 04:55:00 13.3 C 94 % 12.36 C
3223 15-08-2014 05:00:00 13.3 C 94 % 12.36 C
3224 15-08-2014 05:05:00 13.4 C 94 % 12.45 C
3225 15-08-2014 05:10:00 13.4 C 94 % 12.45 C
Sensor: Nr:Datum:Temp:Feuchte:Taupunkt:
Aussen-T/F 3226 15-08-2014 05:15:00 13.4 C 94 % 12.45 C
3227 15-08-2014 05:20:00 13.4 C 94 % 12.45 C
3228 15-08-2014 05:25:00 13.4 C 94 % 12.45 C
3229 15-08-2014 05:30:00 13.4 C 94 % 12.45 C
3230 15-08-2014 05:35:00 13.4 C 94 % 12.45 C
3231 15-08-2014 05:40:00 13.4 C 94 % 12.45 C
3232 15-08-2014 05:45:00 13.4 C 94 % 12.45 C
3233 15-08-2014 05:50:00 13.4 C 94 % 12.45 C
3234 15-08-2014 05:55:00 13.4 C 94 % 12.45 C
3235 15-08-2014 06:00:00 13.4 C 94 % 12.45 C
3236 15-08-2014 06:05:00 13.4 C 94 % 12.45 C
3237 15-08-2014 06:10:00 13.4 C 94 % 12.45 C
3238 15-08-2014 06:15:00 13.5 C 94 % 12.55 C
3239 15-08-2014 06:20:00 13.5 C 94 % 12.55 C
3240 15-08-2014 06:25:00 13.5 C 94 % 12.55 C
3241 15-08-2014 06:30:00 13.6 C 94 % 12.65 C
3242 15-08-2014 06:35:00 13.6 C 93 % 12.49 C
3243 15-08-2014 06:40:00 13.6 C 94 % 12.65 C
3244 15-08-2014 06:45:00 13.6 C 93 % 12.49 C
3245 15-08-2014 06:50:00 13.6 C 93 % 12.49 C
3246 15-08-2014 06:55:00 13.6 C 94 % 12.65 C
3247 15-08-2014 07:00:00 13.7 C 94 % 12.75 C
3248 15-08-2014 07:05:00 13.7 C 93 % 12.59 C
3249 15-08-2014 07:10:00 13.7 C 93 % 12.59 C
3250 15-08-2014 07:15:00 13.7 C 93 % 12.59 C
Sensor: Nr:Datum:Temp:Feuchte:Taupunkt:
Aussen-T/F 3251 15-08-2014 07:20:00 13.7 C 93 % 12.59 C
3252 15-08-2014 07:25:00 13.7 C 93 % 12.59 C
3253 15-08-2014 07:30:00 13.8 C 93 % 12.69 C
3254 15-08-2014 07:35:00 13.8 C 94 % 12.85 C
3255 15-08-2014 07:40:00 13.8 C 94 % 12.85 C
3256 15-08-2014 07:45:00 13.8 C 94 % 12.85 C
3257 15-08-2014 07:50:00 13.8 C 94 % 12.85 C
3258 15-08-2014 07:55:00 13.8 C 94 % 12.85 C
3259 15-08-2014 08:00:00 13.9 C 94 % 12.95 C
3260 15-08-2014 08:05:00 13.9 C 94 % 12.95 C
3261 15-08-2014 08:10:00 14 C 94 % 13.05 C
3262 15-08-2014 08:15:00 14 C 93 % 12.89 C
3263 15-08-2014 08:20:00 14.1 C 93 % 12.99 C
3264 15-08-2014 08:25:00 14.2 C 92 % 12.92 C
3265 15-08-2014 08:30:00 14.2 C 92 % 12.92 C
3266 15-08-2014 08:35:00 14.2 C 91 % 12.75 C
3267 15-08-2014 08:40:00 14.3 C 90 % 12.68 C
3268 15-08-2014 08:45:00 14.3 C 91 % 12.85 C
3269 15-08-2014 08:50:00 14.3 C 90 % 12.68 C
3270 15-08-2014 08:55:00 14.4 C 91 % 12.95 C
3271 15-08-2014 09:00:00 14.5 C 91 % 13.05 C
3272 15-08-2014 09:05:00 14.6 C 92 % 13.32 C
3273 15-08-2014 09:10:00 14.7 C 91 % 13.25 C
3274 15-08-2014 09:15:00 14.6 C 90 % 12.98 C
3275 15-08-2014 09:20:00 14.7 C 92 % 13.41 C
Sensor: Nr:Datum:Temp:Feuchte:Taupunkt:
Aussen-T/F 3276 15-08-2014 09:25:00 14.7 C 92 % 13.41 C
3277 15-08-2014 09:30:00 14.7 C 91 % 13.25 C
3278 15-08-2014 09:35:00 14.7 C 92 % 13.41 C
3279 15-08-2014 09:40:00 14.7 C 92 % 13.41 C
3280 15-08-2014 09:45:00 14.7 C 92 % 13.41 C
3281 15-08-2014 09:50:00 14.8 C 92 % 13.51 C
3282 15-08-2014 09:55:00 14.8 C 92 % 13.51 C
3283 15-08-2014 10:00:00 14.9 C 92 % 13.61 C
3284 15-08-2014 10:05:00 15.1 C 92 % 13.81 C
3285 15-08-2014 10:10:00 15.2 C 91 % 13.74 C
3286 15-08-2014 10:15:00 15.3 C 92 % 14.01 C
3287 15-08-2014 10:20:00 15.3 C 90 % 13.67 C
3288 15-08-2014 10:25:00 15.3 C 90 % 13.67 C
3289 15-08-2014 10:30:00 15.4 C 91 % 13.94 C
3290 15-08-2014 10:35:00 15.4 C 90 % 13.77 C
3291 15-08-2014 10:40:00 15.4 C 89 % 13.6 C
3292 15-08-2014 10:45:00 15.6 C 90 % 13.97 C
3293 15-08-2014 10:50:00 15.6 C 88 % 13.62 C
3294 15-08-2014 10:55:00 15.6 C 88 % 13.62 C
3295 15-08-2014 11:00:00 15.6 C 89 % 13.79 C
3296 15-08-2014 11:05:00 15.6 C 88 % 13.62 C
3297 15-08-2014 11:10:00 15.6 C 88 % 13.62 C
3298 15-08-2014 11:15:00 15.7 C 89 % 13.89 C
3299 15-08-2014 11:20:00 15.7 C 87 % 13.54 C
3300 15-08-2014 11:25:00 15.7 C 87 % 13.54 C
Sensor: Nr:Datum:Temp:Feuchte:Taupunkt:
Aussen-T/F 3301 15-08-2014 11:30:00 15.7 C 87 % 13.54 C
3302 15-08-2014 11:35:00 15.8 C 88 % 13.82 C
3303 15-08-2014 11:40:00 15.8 C 87 % 13.64 C
3304 15-08-2014 11:45:00 15.7 C 87 % 13.54 C
3305 15-08-2014 11:50:00 15.7 C 89 % 13.89 C
3306 15-08-2014 11:55:00 15.7 C 89 % 13.89 C
3307 15-08-2014 12:00:00 15.7 C 90 % 14.06 C
3308 15-08-2014 12:05:00 15.7 C 90 % 14.06 C
3309 15-08-2014 12:10:00 15.7 C 90 % 14.06 C
3310 15-08-2014 12:15:00 15.7 C 90 % 14.06 C
3311 15-08-2014 12:20:00 15.9 C 90 % 14.26 C
3312 15-08-2014 12:25:00 15.9 C 90 % 14.26 C
3313 15-08-2014 13:15:00 16.6 C 82 % 13.52 C
3314 15-08-2014 13:20:00 16.4 C 84 % 13.69 C
3315 15-08-2014 13:25:00 16.4 C 86 % 14.05 C
3316 15-08-2014 13:30:00 16.4 C 85 % 13.87 C
3317 15-08-2014 13:35:00 16.3 C 85 % 13.77 C
3318 15-08-2014 13:40:00 16.1 C 86 % 13.76 C
3319 15-08-2014 13:45:00 16 C 88 % 14.01 C
3320 15-08-2014 13:50:00 15.8 C 88 % 13.82 C
3321 15-08-2014 13:55:00 15.7 C 88 % 13.72 C
3322 15-08-2014 14:00:00 15.8 C 89 % 13.99 C
3323 15-08-2014 14:05:00 15.9 C 89 % 14.09 C
3324 15-08-2014 14:10:00 15.9 C 88 % 13.92 C
3325 15-08-2014 14:15:00 16.1 C 88 % 14.11 C
Sensor: Nr:Datum:Temp:Feuchte:Taupunkt:
Aussen-T/F 3326 15-08-2014 14:20:00 16.2 C 87 % 14.03 C
3327 15-08-2014 14:25:00 16.3 C 86 % 13.95 C
3328 15-08-2014 14:30:00 16.2 C 88 % 14.21 C
3329 15-08-2014 14:35:00 15.8 C 88 % 13.82 C
3330 15-08-2014 14:40:00 15.3 C 88 % 13.33 C
3331 15-08-2014 14:45:00 15.1 C 90 % 13.47 C
3332 15-08-2014 14:50:00 14.9 C 91 % 13.44 C
3333 15-08-2014 14:55:00 14.7 C 92 % 13.41 C
3334 15-08-2014 15:00:00 14.7 C 93 % 13.58 C
3335 15-08-2014 15:05:00 14.7 C 94 % 13.74 C
3336 15-08-2014 15:10:00 14.8 C 94 % 13.84 C
3337 15-08-2014 15:15:00 14.9 C 94 % 13.94 C
3338 15-08-2014 15:20:00 15.1 C 94 % 14.14 C
3339 15-08-2014 15:25:00 15.2 C 92 % 13.91 C
3340 15-08-2014 15:30:00 15.6 C 93 % 14.47 C
3341 15-08-2014 15:35:00 15.8 C 92 % 14.5 C
3342 15-08-2014 15:40:00 15.9 C 91 % 14.43 C
3343 15-08-2014 15:45:00 15.9 C 89 % 14.09 C
3344 15-08-2014 15:50:00 15.9 C 89 % 14.09 C
3345 15-08-2014 15:55:00 15.9 C 88 % 13.92 C
3346 15-08-2014 16:00:00 16.2 C 87 % 14.03 C
3347 15-08-2014 16:05:00 16.3 C 87 % 14.13 C
3348 15-08-2014 16:10:00 16.4 C 87 % 14.23 C
3349 15-08-2014 16:15:00 16.4 C 89 % 14.58 C
3350 15-08-2014 16:20:00 16.3 C 90 % 14.66 C
Sensor: Nr:Datum:Temp:Feuchte:Taupunkt:
Aussen-T/F 3351 15-08-2014 16:25:00 16 C 90 % 14.36 C
3352 15-08-2014 16:30:00 15.7 C 91 % 14.24 C
3353 15-08-2014 16:35:00 15.4 C 92 % 14.11 C
3354 15-08-2014 16:40:00 15.1 C 93 % 13.98 C
3355 15-08-2014 16:45:00 14.8 C 92 % 13.51 C
3356 15-08-2014 16:50:00 14.6 C 92 % 13.32 C
3357 15-08-2014 16:55:00 14.3 C 92 % 13.02 C
3358 15-08-2014 17:00:00 14.2 C 93 % 13.08 C
3359 15-08-2014 17:05:00 14.2 C 93 % 13.08 C
3360 15-08-2014 17:10:00 14.1 C 94 % 13.15 C
3361 15-08-2014 17:15:00 14.1 C 94 % 13.15 C
3362 15-08-2014 17:20:00 14.2 C 95 % 13.41 C
3363 15-08-2014 17:25:00 14.3 C 95 % 13.51 C
3364 15-08-2014 17:30:00 14.2 C 94 % 13.25 C
3365 15-08-2014 17:35:00 14.3 C 94 % 13.35 C
3366 15-08-2014 17:40:00 14.5 C 94 % 13.55 C
3367 15-08-2014 17:45:00 14.9 C 95 % 14.11 C
3368 15-08-2014 17:50:00 15.6 C 94 % 14.64 C
3369 15-08-2014 17:55:00 15.9 C 90 % 14.26 C
3370 15-08-2014 18:00:00 16.4 C 91 % 14.93 C
3371 15-08-2014 18:05:00 16.8 C 88 % 14.8 C
3372 15-08-2014 18:10:00 17.2 C 87 % 15.02 C
3373 15-08-2014 18:15:00 17.5 C 88 % 15.49 C
3374 15-08-2014 18:20:00 17.6 C 86 % 15.23 C
3375 15-08-2014 18:25:00 17.6 C 87 % 15.41 C
Sensor: Nr:Datum:Temp:Feuchte:Taupunkt:
Aussen-T/F 3376 15-08-2014 18:30:00 17.4 C 87 % 15.21 C
3377 15-08-2014 18:35:00 17.3 C 89 % 15.47 C
3378 15-08-2014 18:40:00 16.9 C 90 % 15.25 C
3379 15-08-2014 18:45:00 16.7 C 91 % 15.22 C
3380 15-08-2014 18:50:00 16.3 C 92 % 15 C
3381 15-08-2014 18:55:00 16.2 C 92 % 14.9 C
3382 15-08-2014 19:00:00 15.9 C 92 % 14.6 C
3383 15-08-2014 19:05:00 15.6 C 92 % 14.31 C
3384 15-08-2014 19:10:00 15.2 C 93 % 14.08 C
3385 15-08-2014 19:15:00 15.1 C 94 % 14.14 C
3386 15-08-2014 19:20:00 15 C 94 % 14.04 C
3387 15-08-2014 19:25:00 14.8 C 94 % 13.84 C
3388 15-08-2014 19:30:00 14.7 C 94 % 13.74 C
3389 15-08-2014 19:35:00 14.6 C 95 % 13.81 C
3390 15-08-2014 19:40:00 14.5 C 95 % 13.71 C
3391 15-08-2014 19:45:00 14.4 C 95 % 13.61 C
3392 15-08-2014 19:50:00 14.4 C 95 % 13.61 C
3393 15-08-2014 19:55:00 14.3 C 95 % 13.51 C
3394 15-08-2014 20:00:00 14.3 C 96 % 13.67 C
3395 15-08-2014 20:05:00 14.4 C 96 % 13.77 C
3396 15-08-2014 20:10:00 14.4 C 96 % 13.77 C
3397 15-08-2014 20:15:00 14.4 C 96 % 13.77 C
3398 15-08-2014 20:20:00 14.4 C 96 % 13.77 C
3399 15-08-2014 20:25:00 14.5 C 96 % 13.87 C
3400 15-08-2014 20:30:00 14.4 C 96 % 13.77 C
Sensor: Nr:Datum:Temp:Feuchte:Taupunkt:
Aussen-T/F 3401 15-08-2014 20:35:00 14.5 C 97 % 14.03 C
3402 15-08-2014 20:40:00 14.5 C 97 % 14.03 C
3403 15-08-2014 20:45:00 14.5 C 97 % 14.03 C
3404 15-08-2014 20:50:00 14.4 C 96 % 13.77 C
3405 15-08-2014 20:55:00 14.3 C 96 % 13.67 C
3406 15-08-2014 21:00:00 14.3 C 96 % 13.67 C
3407 15-08-2014 21:05:00 14.3 C 96 % 13.67 C
3408 15-08-2014 21:10:00 14.3 C 97 % 13.83 C
3409 15-08-2014 21:15:00 14.3 C 97 % 13.83 C
3410 15-08-2014 21:20:00 14.2 C 97 % 13.73 C
3411 15-08-2014 21:25:00 14.2 C 97 % 13.73 C
3412 15-08-2014 21:30:00 14.2 C 97 % 13.73 C
3413 15-08-2014 21:35:00 14.2 C 96 % 13.57 C
3414 15-08-2014 21:40:00 14.1 C 96 % 13.47 C
3415 15-08-2014 21:45:00 14 C 96 % 13.37 C
3416 15-08-2014 21:50:00 13.9 C 96 % 13.27 C
3417 15-08-2014 21:55:00 13.9 C 96 % 13.27 C
3418 15-08-2014 22:00:00 13.9 C 96 % 13.27 C
3419 15-08-2014 22:05:00 13.9 C 97 % 13.43 C
3420 15-08-2014 22:10:00 13.8 C 97 % 13.33 C
3421 15-08-2014 22:15:00 13.8 C 97 % 13.33 C
3422 15-08-2014 22:20:00 13.8 C 97 % 13.33 C
3423 15-08-2014 22:25:00 13.8 C 97 % 13.33 C
3424 15-08-2014 22:30:00 13.8 C 97 % 13.33 C
3425 15-08-2014 22:35:00 13.7 C 97 % 13.23 C
Sensor: Nr:Datum:Temp:Feuchte:Taupunkt:
Aussen-T/F 3426 15-08-2014 22:40:00 13.6 C 97 % 13.13 C
3427 15-08-2014 22:45:00 13.6 C 97 % 13.13 C
3428 15-08-2014 22:50:00 13.6 C 97 % 13.13 C
3429 15-08-2014 22:55:00 13.6 C 97 % 13.13 C
3430 15-08-2014 23:00:00 13.6 C 97 % 13.13 C
3431 15-08-2014 23:05:00 13.5 C 97 % 13.03 C
3432 15-08-2014 23:10:00 13.4 C 97 % 12.93 C
3433 15-08-2014 23:15:00 13.4 C 97 % 12.93 C
3434 15-08-2014 23:20:00 13.3 C 97 % 12.83 C
3435 15-08-2014 23:25:00 13.2 C 97 % 12.73 C
3436 15-08-2014 23:30:00 13.2 C 97 % 12.73 C
3437 15-08-2014 23:35:00 13.1 C 97 % 12.63 C
3438 15-08-2014 23:40:00 13.1 C 97 % 12.63 C
3439 15-08-2014 23:45:00 13.1 C 97 % 12.63 C
3440 15-08-2014 23:50:00 13.2 C 97 % 12.73 C
3441 15-08-2014 23:55:00 13.2 C 97 % 12.73 C
3442 16-08-2014 00:00:00 13.1 C 97 % 12.63 C
3443 16-08-2014 00:05:00 13.1 C 97 % 12.63 C
3444 16-08-2014 00:10:00 13 C 97 % 12.54 C
3445 16-08-2014 00:15:00 12.9 C 97 % 12.44 C
3446 16-08-2014 00:20:00 12.8 C 97 % 12.34 C
3447 16-08-2014 00:25:00 12.8 C 97 % 12.34 C
3448 16-08-2014 00:30:00 12.8 C 97 % 12.34 C
3449 16-08-2014 00:35:00 12.7 C 97 % 12.24 C
3450 16-08-2014 00:40:00 12.7 C 97 % 12.24 C
Sensor: Nr:Datum:Temp:Feuchte:Taupunkt:
Aussen-T/F 3451 16-08-2014 00:45:00 12.7 C 97 % 12.24 C
3452 16-08-2014 00:50:00 12.7 C 97 % 12.24 C
3453 16-08-2014 00:55:00 12.7 C 97 % 12.24 C
3454 16-08-2014 01:00:00 12.6 C 97 % 12.14 C
3455 16-08-2014 01:05:00 12.6 C 97 % 12.14 C
3456 16-08-2014 01:10:00 12.6 C 97 % 12.14 C
3457 16-08-2014 01:15:00 12.6 C 97 % 12.14 C
3458 16-08-2014 01:20:00 12.6 C 97 % 12.14 C
3459 16-08-2014 01:25:00 12.7 C 97 % 12.24 C
3460 16-08-2014 01:30:00 12.7 C 97 % 12.24 C
3461 16-08-2014 01:35:00 12.8 C 97 % 12.34 C
3462 16-08-2014 01:40:00 12.8 C 97 % 12.34 C
3463 16-08-2014 01:45:00 12.9 C 98 % 12.59 C
3464 16-08-2014 01:50:00 12.9 C 98 % 12.59 C
3465 16-08-2014 01:55:00 12.9 C 98 % 12.59 C
3466 16-08-2014 02:00:00 12.9 C 98 % 12.59 C
3467 16-08-2014 02:05:00 12.9 C 98 % 12.59 C
3468 16-08-2014 02:10:00 12.9 C 98 % 12.59 C
3469 16-08-2014 02:15:00 12.9 C 98 % 12.59 C
3470 16-08-2014 02:20:00 12.9 C 98 % 12.59 C
3471 16-08-2014 02:25:00 13 C 98 % 12.69 C
3472 16-08-2014 02:30:00 13 C 98 % 12.69 C
3473 16-08-2014 02:35:00 13 C 98 % 12.69 C
3474 16-08-2014 02:40:00 13 C 98 % 12.69 C
3475 16-08-2014 02:45:00 13 C 98 % 12.69 C
Sensor: Nr:Datum:Temp:Feuchte:Taupunkt:
Aussen-T/F 3476 16-08-2014 02:50:00 13 C 98 % 12.69 C
3477 16-08-2014 02:55:00 13 C 98 % 12.69 C
3478 16-08-2014 03:00:00 12.9 C 98 % 12.59 C
3479 16-08-2014 03:05:00 12.9 C 98 % 12.59 C
3480 16-08-2014 03:10:00 12.9 C 98 % 12.59 C
3481 16-08-2014 03:15:00 12.9 C 98 % 12.59 C
3482 16-08-2014 03:20:00 12.9 C 98 % 12.59 C
3483 16-08-2014 03:25:00 12.9 C 98 % 12.59 C
3484 16-08-2014 03:30:00 12.9 C 98 % 12.59 C
3485 16-08-2014 03:35:00 12.9 C 98 % 12.59 C
3486 16-08-2014 03:40:00 12.9 C 98 % 12.59 C
3487 16-08-2014 03:45:00 12.9 C 98 % 12.59 C
3488 16-08-2014 03:50:00 12.9 C 98 % 12.59 C
3489 16-08-2014 03:55:00 12.9 C 98 % 12.59 C
3490 16-08-2014 04:00:00 12.9 C 98 % 12.59 C
3491 16-08-2014 04:05:00 12.9 C 98 % 12.59 C
3492 16-08-2014 04:10:00 12.9 C 98 % 12.59 C
3493 16-08-2014 04:15:00 12.9 C 98 % 12.59 C
3494 16-08-2014 04:20:00 12.9 C 98 % 12.59 C
3495 16-08-2014 04:25:00 12.9 C 98 % 12.59 C
3496 16-08-2014 04:30:00 12.9 C 98 % 12.59 C
3497 16-08-2014 04:35:00 13 C 98 % 12.69 C
3498 16-08-2014 04:40:00 13 C 98 % 12.69 C
3499 16-08-2014 04:45:00 13 C 98 % 12.69 C
3500 16-08-2014 04:50:00 12.9 C 98 % 12.59 C
Sensor: Nr:Datum:Temp:Feuchte:Taupunkt:
Aussen-T/F 3501 16-08-2014 04:55:00 12.8 C 98 % 12.49 C
3502 16-08-2014 05:00:00 12.8 C 97 % 12.34 C
3503 16-08-2014 05:05:00 12.7 C 98 % 12.39 C
3504 16-08-2014 05:10:00 12.7 C 98 % 12.39 C
3505 16-08-2014 05:15:00 12.6 C 98 % 12.29 C
3506 16-08-2014 05:20:00 12.6 C 97 % 12.14 C
3507 16-08-2014 05:25:00 12.5 C 97 % 12.04 C
3508 16-08-2014 05:30:00 12.4 C 97 % 11.94 C
3509 16-08-2014 05:35:00 12.4 C 98 % 12.09 C
3510 16-08-2014 05:40:00 12.4 C 98 % 12.09 C
3511 16-08-2014 05:45:00 12.4 C 98 % 12.09 C
3512 16-08-2014 05:50:00 12.5 C 98 % 12.19 C
3513 16-08-2014 05:55:00 12.5 C 98 % 12.19 C
3514 16-08-2014 06:00:00 12.5 C 98 % 12.19 C
3515 16-08-2014 06:05:00 12.5 C 98 % 12.19 C
3516 16-08-2014 06:10:00 12.5 C 98 % 12.19 C
3517 16-08-2014 06:15:00 12.5 C 98 % 12.19 C
3518 16-08-2014 06:20:00 12.6 C 98 % 12.29 C
3519 16-08-2014 06:25:00 12.6 C 98 % 12.29 C
3520 16-08-2014 06:30:00 12.6 C 98 % 12.29 C
3521 16-08-2014 06:35:00 12.6 C 98 % 12.29 C
3522 16-08-2014 06:40:00 12.6 C 98 % 12.29 C
3523 16-08-2014 06:45:00 12.5 C 98 % 12.19 C
3524 16-08-2014 06:50:00 12.4 C 97 % 11.94 C
3525 16-08-2014 06:55:00 12.3 C 98 % 11.99 C
Sensor: Nr:Datum:Temp:Feuchte:Taupunkt:
Aussen-T/F 3526 16-08-2014 07:00:00 12.3 C 98 % 11.99 C
3527 16-08-2014 07:05:00 12.3 C 98 % 11.99 C
3528 16-08-2014 07:10:00 12.3 C 98 % 11.99 C
3529 16-08-2014 07:15:00 12.4 C 98 % 12.09 C
3530 16-08-2014 07:20:00 12.4 C 97 % 11.94 C
3531 16-08-2014 07:25:00 12.3 C 98 % 11.99 C
3532 16-08-2014 07:30:00 12.3 C 97 % 11.84 C
3533 16-08-2014 07:35:00 12.3 C 98 % 11.99 C
3534 16-08-2014 07:40:00 12.4 C 97 % 11.94 C
3535 16-08-2014 07:45:00 12.6 C 97 % 12.14 C
3536 16-08-2014 07:50:00 12.7 C 98 % 12.39 C
3537 16-08-2014 07:55:00 12.7 C 98 % 12.39 C
3538 16-08-2014 08:00:00 12.8 C 97 % 12.34 C
3539 16-08-2014 08:05:00 12.9 C 97 % 12.44 C
3540 16-08-2014 08:10:00 12.9 C 97 % 12.44 C
3541 16-08-2014 08:15:00 13.1 C 97 % 12.63 C
3542 16-08-2014 08:20:00 13.2 C 97 % 12.73 C
3543 16-08-2014 08:25:00 13.2 C 97 % 12.73 C
3544 16-08-2014 08:30:00 13.2 C 96 % 12.58 C
3545 16-08-2014 08:35:00 13.3 C 96 % 12.68 C
3546 16-08-2014 08:40:00 13.4 C 95 % 12.62 C
3547 16-08-2014 08:45:00 13.4 C 95 % 12.62 C
3548 16-08-2014 08:50:00 13.5 C 95 % 12.72 C
3549 16-08-2014 08:55:00 13.6 C 94 % 12.65 C
3550 16-08-2014 09:00:00 13.7 C 94 % 12.75 C
Sensor: Nr:Datum:Temp:Feuchte:Taupunkt:
Aussen-T/F 3551 16-08-2014 09:05:00 13.7 C 93 % 12.59 C
3552 16-08-2014 09:10:00 13.7 C 93 % 12.59 C
3553 16-08-2014 09:15:00 13.7 C 93 % 12.59 C
3554 16-08-2014 09:20:00 13.7 C 93 % 12.59 C
3555 16-08-2014 09:25:00 13.8 C 93 % 12.69 C
3556 16-08-2014 09:30:00 13.9 C 93 % 12.79 C
3557 16-08-2014 09:35:00 14.1 C 93 % 12.99 C
3558 16-08-2014 09:40:00 14.2 C 92 % 12.92 C
3559 16-08-2014 09:45:00 14.3 C 92 % 13.02 C
3560 16-08-2014 09:50:00 14.3 C 92 % 13.02 C
3561 16-08-2014 09:55:00 14.6 C 92 % 13.32 C
3562 16-08-2014 10:00:00 14.7 C 92 % 13.41 C
3563 16-08-2014 10:05:00 14.8 C 90 % 13.18 C
3564 16-08-2014 10:10:00 14.8 C 91 % 13.35 C
3565 16-08-2014 10:15:00 14.9 C 90 % 13.28 C
3566 16-08-2014 10:20:00 15.2 C 91 % 13.74 C
3567 16-08-2014 10:25:00 15.3 C 91 % 13.84 C
3568 16-08-2014 10:30:00 15.3 C 91 % 13.84 C
3569 16-08-2014 10:50:00 15.1 C 91 % 13.64 C
3570 16-08-2014 10:55:00 14.9 C 93 % 13.78 C
3571 16-08-2014 11:00:00 14.8 C 94 % 13.84 C
3572 16-08-2014 11:05:00 14.8 C 94 % 13.84 C
3573 16-08-2014 11:10:00 15 C 95 % 14.21 C
3574 16-08-2014 11:15:00 15.1 C 95 % 14.31 C
3575 16-08-2014 11:20:00 15.1 C 95 % 14.31 C
Sensor: Nr:Datum:Temp:Feuchte:Taupunkt:
Aussen-T/F 3576 16-08-2014 11:25:00 15.1 C 95 % 14.31 C
3577 16-08-2014 11:30:00 14.8 C 95 % 14.01 C
3578 16-08-2014 11:35:00 14.8 C 95 % 14.01 C
3579 16-08-2014 11:40:00 15.1 C 96 % 14.47 C
3580 16-08-2014 11:45:00 15.2 C 95 % 14.4 C
3581 16-08-2014 11:50:00 15.6 C 96 % 14.96 C
3582 16-08-2014 11:55:00 15.7 C 95 % 14.9 C
3583 16-08-2014 12:00:00 15.7 C 94 % 14.74 C
3584 16-08-2014 12:05:00 15.7 C 94 % 14.74 C
3585 16-08-2014 12:10:00 15.6 C 94 % 14.64 C
3586 16-08-2014 12:15:00 15.7 C 90 % 14.06 C
3587 16-08-2014 12:20:00 16.2 C 91 % 14.73 C
3588 16-08-2014 12:25:00 16.5 C 92 % 15.2 C
3589 16-08-2014 12:30:00 16.5 C 89 % 14.68 C
3590 16-08-2014 12:35:00 16.5 C 90 % 14.85 C
3591 16-08-2014 12:40:00 16.6 C 87 % 14.43 C
3592 16-08-2014 12:45:00 16.8 C 88 % 14.8 C
3593 16-08-2014 12:50:00 16.9 C 83 % 14 C
3594 16-08-2014 12:55:00 16.8 C 84 % 14.08 C
3595 16-08-2014 13:00:00 16.8 C 84 % 14.08 C
3596 16-08-2014 13:05:00 16.6 C 89 % 14.78 C
3597 16-08-2014 13:10:00 16.4 C 92 % 15.1 C
3598 16-08-2014 13:15:00 16.6 C 93 % 15.46 C
3599 16-08-2014 13:20:00 16.7 C 93 % 15.56 C
3600 16-08-2014 13:25:00 16.7 C 89 % 14.88 C
Sensor: Nr:Datum:Temp:Feuchte:Taupunkt:
Aussen-T/F 3601 16-08-2014 13:30:00 17 C 90 % 15.35 C
3602 16-08-2014 13:35:00 17.2 C 85 % 14.66 C
3603 16-08-2014 13:40:00 17.4 C 90 % 15.74 C
3604 16-08-2014 13:45:00 17.6 C 79 % 13.92 C
3605 16-08-2014 13:50:00 17.9 C 75 % 13.41 C
3606 16-08-2014 13:55:00 18.2 C 82 % 15.08 C
3607 16-08-2014 14:00:00 18.3 C 86 % 15.92 C
3608 16-08-2014 14:05:00 18.5 C 76 % 14.19 C
3609 16-08-2014 14:10:00 18.6 C 73 % 13.67 C
3610 16-08-2014 14:15:00 18.6 C 73 % 13.67 C
3611 16-08-2014 14:20:00 18.4 C 70 % 12.83 C
3612 16-08-2014 14:25:00 18.4 C 70 % 12.83 C
3613 16-08-2014 14:30:00 18.3 C 70 % 12.74 C
3614 16-08-2014 14:35:00 18.3 C 73 % 13.38 C
3615 16-08-2014 14:40:00 18.2 C 73 % 13.28 C
3616 16-08-2014 14:45:00 18.2 C 79 % 14.5 C
3617 16-08-2014 14:50:00 18.3 C 71 % 12.95 C
3618 16-08-2014 14:55:00 18.7 C 71 % 13.34 C
3619 16-08-2014 15:00:00 19.1 C 72 % 13.94 C
3620 16-08-2014 15:05:00 19.5 C 69 % 13.66 C
3621 16-08-2014 15:10:00 19.7 C 66 % 13.17 C
3622 16-08-2014 15:15:00 19.9 C 66 % 13.36 C
3623 16-08-2014 15:20:00 20.3 C 65 % 13.51 C
3624 16-08-2014 15:25:00 20.6 C 65 % 13.79 C
3625 16-08-2014 15:30:00 20.4 C 62 % 12.88 C
Sensor: Nr:Datum:Temp:Feuchte:Taupunkt:
Aussen-T/F 3626 16-08-2014 15:35:00 20.7 C 62 % 13.16 C
3627 16-08-2014 15:40:00 20.8 C 64 % 13.74 C
3628 16-08-2014 15:45:00 21.2 C 59 % 12.87 C
3629 16-08-2014 15:50:00 21.3 C 59 % 12.97 C
3630 16-08-2014 15:55:00 21.4 C 59 % 13.06 C
3631 16-08-2014 16:00:00 21.2 C 69 % 15.29 C
3632 16-08-2014 16:05:00 20.7 C 65 % 13.89 C
3633 16-08-2014 16:10:00 20.5 C 73 % 15.5 C
3634 16-08-2014 16:15:00 20.1 C 63 % 12.84 C
3635 16-08-2014 16:20:00 19.8 C 76 % 15.45 C
3636 16-08-2014 16:25:00 19.5 C 73 % 14.53 C
3637 16-08-2014 16:30:00 19.8 C 65 % 13.03 C
3638 16-08-2014 16:35:00 20.4 C 63 % 13.12 C
3639 16-08-2014 16:40:00 20.9 C 61 % 13.1 C
3640 16-08-2014 16:45:00 20.9 C 59 % 12.59 C
3641 16-08-2014 16:50:00 20.8 C 59 % 12.5 C
3642 16-08-2014 16:55:00 20.4 C 61 % 12.63 C
3643 16-08-2014 17:00:00 20.3 C 62 % 12.79 C
3644 16-08-2014 17:05:00 20.4 C 65 % 13.6 C
3645 16-08-2014 17:10:00 20.2 C 71 % 14.78 C
3646 16-08-2014 17:15:00 19.9 C 75 % 15.34 C
3647 16-08-2014 17:20:00 19.2 C 71 % 13.82 C
3648 16-08-2014 17:25:00 19 C 79 % 15.28 C
3649 16-08-2014 17:30:00 18.6 C 74 % 13.88 C
3650 16-08-2014 17:35:00 18.8 C 69 % 13 C
Sensor: Nr:Datum:Temp:Feuchte:Taupunkt:
Aussen-T/F 3651 16-08-2014 17:40:00 19.2 C 66 % 12.7 C
3652 16-08-2014 17:45:00 19.6 C 66 % 13.08 C
3653 16-08-2014 17:50:00 19.8 C 66 % 13.27 C
3654 16-08-2014 17:55:00 19.8 C 66 % 13.27 C
3655 16-08-2014 18:00:00 19.6 C 62 % 12.13 C
3656 16-08-2014 18:05:00 19.2 C 75 % 14.66 C
3657 16-08-2014 18:10:00 18.4 C 79 % 14.69 C
3658 16-08-2014 18:15:00 17.7 C 81 % 14.4 C
3659 16-08-2014 18:20:00 17.2 C 81 % 13.91 C
3660 16-08-2014 18:25:00 16.9 C 84 % 14.18 C
3661 16-08-2014 18:30:00 16.8 C 84 % 14.08 C
3662 16-08-2014 18:35:00 16.7 C 79 % 13.04 C
3663 16-08-2014 18:40:00 16.9 C 83 % 14 C
3664 16-08-2014 18:45:00 16.9 C 83 % 14 C
3665 16-08-2014 18:50:00 16.7 C 80 % 13.23 C
3666 16-08-2014 18:55:00 16.9 C 80 % 13.43 C
3667 16-08-2014 19:00:00 16.9 C 81 % 13.62 C
3668 16-08-2014 19:05:00 16.7 C 81 % 13.43 C
3669 16-08-2014 19:10:00 16.6 C 82 % 13.52 C
3670 16-08-2014 19:15:00 16.3 C 84 % 13.59 C
3671 16-08-2014 19:20:00 16 C 89 % 14.19 C
3672 16-08-2014 19:25:00 15.7 C 90 % 14.06 C
3673 16-08-2014 19:30:00 15.4 C 91 % 13.94 C
3674 16-08-2014 19:35:00 15.3 C 92 % 14.01 C
3675 16-08-2014 19:40:00 15.2 C 93 % 14.08 C
Sensor: Nr:Datum:Temp:Feuchte:Taupunkt:
Aussen-T/F 3676 16-08-2014 19:45:00 15.1 C 93 % 13.98 C
3677 16-08-2014 19:50:00 15 C 93 % 13.88 C
3678 16-08-2014 19:55:00 14.9 C 93 % 13.78 C
3679 16-08-2014 20:00:00 14.8 C 94 % 13.84 C
3680 16-08-2014 20:05:00 14.8 C 93 % 13.68 C
3681 16-08-2014 20:10:00 14.7 C 93 % 13.58 C
3682 16-08-2014 20:15:00 14.7 C 93 % 13.58 C
3683 16-08-2014 20:20:00 14.6 C 93 % 13.48 C
3684 16-08-2014 20:25:00 14.6 C 94 % 13.65 C
3685 16-08-2014 20:30:00 14.6 C 94 % 13.65 C
3686 16-08-2014 20:35:00 14.6 C 94 % 13.65 C
3687 16-08-2014 20:40:00 14.6 C 93 % 13.48 C
3688 16-08-2014 20:45:00 14.7 C 93 % 13.58 C
3689 16-08-2014 20:50:00 14.7 C 92 % 13.41 C
3690 16-08-2014 20:55:00 14.8 C 92 % 13.51 C
3691 16-08-2014 21:00:00 14.8 C 92 % 13.51 C
3692 16-08-2014 21:05:00 14.8 C 91 % 13.35 C
3693 16-08-2014 21:10:00 14.8 C 92 % 13.51 C
3694 16-08-2014 21:15:00 14.8 C 90 % 13.18 C
3695 16-08-2014 21:20:00 15 C 89 % 13.2 C
3696 16-08-2014 21:25:00 15.2 C 89 % 13.4 C
3697 16-08-2014 21:30:00 15.2 C 89 % 13.4 C
3698 16-08-2014 21:35:00 15.1 C 90 % 13.47 C
3699 16-08-2014 21:40:00 14.9 C 91 % 13.44 C
3700 16-08-2014 21:45:00 14.8 C 92 % 13.51 C
Sensor: Nr:Datum:Temp:Feuchte:Taupunkt:
Aussen-T/F 3701 16-08-2014 21:50:00 14.7 C 92 % 13.41 C
3702 16-08-2014 21:55:00 14.7 C 92 % 13.41 C
3703 16-08-2014 22:00:00 14.7 C 93 % 13.58 C
3704 16-08-2014 22:05:00 14.7 C 93 % 13.58 C
3705 16-08-2014 22:10:00 14.7 C 93 % 13.58 C
3706 16-08-2014 22:15:00 14.7 C 93 % 13.58 C
3707 16-08-2014 22:20:00 14.6 C 94 % 13.65 C
3708 16-08-2014 22:25:00 14.6 C 94 % 13.65 C
3709 16-08-2014 22:30:00 14.5 C 94 % 13.55 C
3710 16-08-2014 22:35:00 14.5 C 94 % 13.55 C
3711 16-08-2014 22:40:00 14.5 C 94 % 13.55 C
3712 16-08-2014 22:45:00 14.5 C 94 % 13.55 C
3713 16-08-2014 22:50:00 14.5 C 95 % 13.71 C
3714 16-08-2014 22:55:00 14.5 C 95 % 13.71 C
3715 16-08-2014 23:00:00 14.5 C 95 % 13.71 C
3716 16-08-2014 23:05:00 14.5 C 95 % 13.71 C
3717 16-08-2014 23:10:00 14.5 C 95 % 13.71 C
3718 16-08-2014 23:15:00 14.5 C 95 % 13.71 C
3719 16-08-2014 23:20:00 14.5 C 95 % 13.71 C
3720 16-08-2014 23:25:00 14.5 C 95 % 13.71 C
3721 16-08-2014 23:30:00 14.5 C 95 % 13.71 C
3722 16-08-2014 23:35:00 14.6 C 95 % 13.81 C
3723 16-08-2014 23:40:00 14.5 C 95 % 13.71 C
3724 16-08-2014 23:45:00 14.5 C 95 % 13.71 C
3725 16-08-2014 23:50:00 14.5 C 95 % 13.71 C
Sensor: Nr:Datum:Temp:Feuchte:Taupunkt:
Aussen-T/F 3726 16-08-2014 23:55:00 14.6 C 95 % 13.81 C
3727 17-08-2014 00:00:00 14.6 C 95 % 13.81 C
3728 17-08-2014 00:05:00 14.6 C 95 % 13.81 C
3729 17-08-2014 00:10:00 14.5 C 94 % 13.55 C
3730 17-08-2014 00:15:00 14.6 C 94 % 13.65 C
3731 17-08-2014 00:20:00 14.6 C 94 % 13.65 C
3732 17-08-2014 00:25:00 14.6 C 93 % 13.48 C
3733 17-08-2014 00:30:00 14.6 C 93 % 13.48 C
3734 17-08-2014 00:35:00 14.4 C 93 % 13.28 C
3735 17-08-2014 00:40:00 14.4 C 93 % 13.28 C
3736 17-08-2014 00:45:00 14.4 C 93 % 13.28 C
3737 17-08-2014 00:50:00 14.3 C 93 % 13.18 C
3738 17-08-2014 00:55:00 14.3 C 93 % 13.18 C
3739 17-08-2014 01:00:00 14.2 C 93 % 13.08 C
3740 17-08-2014 01:05:00 14.2 C 93 % 13.08 C
3741 17-08-2014 01:10:00 14.1 C 93 % 12.99 C
3742 17-08-2014 01:15:00 14 C 93 % 12.89 C
3743 17-08-2014 01:20:00 13.9 C 94 % 12.95 C
3744 17-08-2014 01:25:00 13.8 C 94 % 12.85 C
3745 17-08-2014 01:30:00 13.7 C 94 % 12.75 C
3746 17-08-2014 01:35:00 13.7 C 94 % 12.75 C
3747 17-08-2014 01:40:00 13.7 C 94 % 12.75 C
3748 17-08-2014 01:45:00 13.6 C 94 % 12.65 C
3749 17-08-2014 01:50:00 13.6 C 94 % 12.65 C
3750 17-08-2014 01:55:00 13.6 C 94 % 12.65 C
Sensor: Nr:Datum:Temp:Feuchte:Taupunkt:
Aussen-T/F 3751 17-08-2014 02:00:00 13.6 C 94 % 12.65 C
3752 17-08-2014 02:05:00 13.5 C 95 % 12.72 C
3753 17-08-2014 02:10:00 13.5 C 95 % 12.72 C
3754 17-08-2014 02:15:00 13.6 C 95 % 12.81 C
3755 17-08-2014 02:20:00 13.6 C 95 % 12.81 C
3756 17-08-2014 02:25:00 13.6 C 95 % 12.81 C
3757 17-08-2014 02:30:00 13.6 C 95 % 12.81 C
3758 17-08-2014 02:35:00 13.6 C 94 % 12.65 C
3759 17-08-2014 02:40:00 13.7 C 94 % 12.75 C
3760 17-08-2014 02:45:00 13.7 C 94 % 12.75 C
3761 17-08-2014 02:50:00 13.7 C 94 % 12.75 C
3762 17-08-2014 02:55:00 13.7 C 94 % 12.75 C
3763 17-08-2014 03:00:00 13.8 C 94 % 12.85 C
3764 17-08-2014 03:05:00 13.7 C 94 % 12.75 C
3765 17-08-2014 03:10:00 13.7 C 94 % 12.75 C
3766 17-08-2014 03:15:00 13.7 C 94 % 12.75 C
3767 17-08-2014 03:20:00 13.8 C 94 % 12.85 C
3768 17-08-2014 03:25:00 13.8 C 94 % 12.85 C
3769 17-08-2014 03:30:00 13.8 C 94 % 12.85 C
3770 17-08-2014 03:35:00 13.9 C 94 % 12.95 C
3771 17-08-2014 03:40:00 13.9 C 94 % 12.95 C
3772 17-08-2014 03:45:00 13.9 C 94 % 12.95 C
3773 17-08-2014 03:50:00 13.9 C 94 % 12.95 C
3774 17-08-2014 03:55:00 13.9 C 93 % 12.79 C
3775 17-08-2014 04:00:00 13.8 C 93 % 12.69 C
Sensor: Nr:Datum:Temp:Feuchte:Taupunkt:
Aussen-T/F 3776 17-08-2014 04:05:00 13.8 C 94 % 12.85 C
3777 17-08-2014 04:10:00 13.7 C 94 % 12.75 C
3778 17-08-2014 04:15:00 13.7 C 94 % 12.75 C
3779 17-08-2014 04:20:00 13.6 C 94 % 12.65 C
3780 17-08-2014 04:25:00 13.6 C 95 % 12.81 C
3781 17-08-2014 04:30:00 13.6 C 95 % 12.81 C
3782 17-08-2014 04:35:00 13.6 C 95 % 12.81 C
3783 17-08-2014 04:40:00 13.6 C 95 % 12.81 C
3784 17-08-2014 04:45:00 13.6 C 95 % 12.81 C
3785 17-08-2014 04:50:00 13.6 C 95 % 12.81 C
3786 17-08-2014 04:55:00 13.6 C 95 % 12.81 C
3787 17-08-2014 05:00:00 13.6 C 95 % 12.81 C
3788 17-08-2014 05:05:00 13.5 C 95 % 12.72 C
3789 17-08-2014 05:10:00 13.5 C 95 % 12.72 C
3790 17-08-2014 05:15:00 13.5 C 95 % 12.72 C
3791 17-08-2014 05:20:00 13.6 C 95 % 12.81 C
3792 17-08-2014 05:25:00 13.6 C 95 % 12.81 C
3793 17-08-2014 05:30:00 13.6 C 95 % 12.81 C
3794 17-08-2014 05:35:00 13.6 C 95 % 12.81 C
3795 17-08-2014 05:40:00 13.6 C 95 % 12.81 C
3796 17-08-2014 05:45:00 13.5 C 95 % 12.72 C
3797 17-08-2014 05:50:00 13.4 C 94 % 12.45 C
3798 17-08-2014 05:55:00 13.3 C 95 % 12.52 C
3799 17-08-2014 06:00:00 13.4 C 95 % 12.62 C
3800 17-08-2014 06:05:00 13.4 C 95 % 12.62 C
Sensor: Nr:Datum:Temp:Feuchte:Taupunkt:
Aussen-T/F 3801 17-08-2014 06:10:00 13.4 C 95 % 12.62 C
3802 17-08-2014 06:15:00 13.4 C 95 % 12.62 C
3803 17-08-2014 06:20:00 13.3 C 95 % 12.52 C
3804 17-08-2014 06:25:00 13.2 C 95 % 12.42 C
3805 17-08-2014 06:30:00 13.2 C 95 % 12.42 C
3806 17-08-2014 06:35:00 13.1 C 95 % 12.32 C
3807 17-08-2014 06:40:00 13.1 C 95 % 12.32 C
3808 17-08-2014 06:45:00 13.1 C 95 % 12.32 C
3809 17-08-2014 06:50:00 13.1 C 95 % 12.32 C
3810 17-08-2014 06:55:00 12.9 C 95 % 12.12 C
3811 17-08-2014 07:00:00 12.9 C 95 % 12.12 C
3812 17-08-2014 07:05:00 12.8 C 95 % 12.02 C
3813 17-08-2014 07:10:00 12.8 C 95 % 12.02 C
3814 17-08-2014 07:15:00 12.7 C 95 % 11.92 C
3815 17-08-2014 07:20:00 12.7 C 95 % 11.92 C
3816 17-08-2014 07:25:00 12.7 C 96 % 12.08 C
3817 17-08-2014 07:30:00 12.7 C 96 % 12.08 C
3818 17-08-2014 07:35:00 12.7 C 96 % 12.08 C
3819 17-08-2014 07:40:00 12.7 C 96 % 12.08 C
3820 17-08-2014 07:45:00 12.7 C 96 % 12.08 C
3821 17-08-2014 07:50:00 12.8 C 96 % 12.18 C
3822 17-08-2014 07:55:00 12.8 C 96 % 12.18 C
3823 17-08-2014 08:00:00 12.9 C 96 % 12.28 C
3824 17-08-2014 08:05:00 13 C 96 % 12.38 C
3825 17-08-2014 08:10:00 13.1 C 96 % 12.48 C
Sensor: Nr:Datum:Temp:Feuchte:Taupunkt:
Aussen-T/F 3826 17-08-2014 08:15:00 13.2 C 95 % 12.42 C
3827 17-08-2014 08:20:00 13.4 C 94 % 12.45 C
3828 17-08-2014 08:25:00 13.6 C 93 % 12.49 C
3829 17-08-2014 08:30:00 13.8 C 91 % 12.36 C
3830 17-08-2014 08:35:00 14 C 89 % 12.22 C
3831 17-08-2014 08:40:00 14.3 C 87 % 12.17 C
3832 17-08-2014 08:45:00 14.5 C 87 % 12.36 C
3833 17-08-2014 08:50:00 14.7 C 88 % 12.73 C
3834 17-08-2014 08:55:00 14.7 C 86 % 12.38 C
3835 17-08-2014 09:00:00 14.9 C 83 % 12.04 C
3836 17-08-2014 09:05:00 15.1 C 85 % 12.6 C
3837 17-08-2014 09:10:00 15.2 C 82 % 12.15 C
3838 17-08-2014 09:15:00 15.3 C 81 % 12.06 C
3839 17-08-2014 09:20:00 15.4 C 81 % 12.16 C
3840 17-08-2014 09:25:00 15.5 C 81 % 12.26 C
3841 17-08-2014 09:30:00 15.7 C 81 % 12.45 C
3842 17-08-2014 09:35:00 15.8 C 80 % 12.36 C
3843 17-08-2014 09:40:00 15.8 C 80 % 12.36 C
3844 17-08-2014 09:45:00 15.8 C 79 % 12.17 C
3845 17-08-2014 09:50:00 15.8 C 78 % 11.97 C
3846 17-08-2014 09:55:00 16 C 78 % 12.17 C
3847 17-08-2014 10:00:00 16.2 C 79 % 12.56 C
3848 17-08-2014 10:05:00 16.3 C 78 % 12.46 C
3849 17-08-2014 10:10:00 16.3 C 78 % 12.46 C
3850 17-08-2014 10:15:00 16.4 C 78 % 12.56 C
Sensor: Nr:Datum:Temp:Feuchte:Taupunkt:
Aussen-T/F 3851 17-08-2014 10:20:00 16.4 C 78 % 12.56 C
3852 17-08-2014 10:25:00 16.6 C 77 % 12.55 C
3853 17-08-2014 10:30:00 16.7 C 78 % 12.85 C
3854 17-08-2014 10:35:00 16.8 C 76 % 12.55 C
3855 17-08-2014 10:40:00 16.8 C 76 % 12.55 C
3856 17-08-2014 10:45:00 16.9 C 76 % 12.65 C
3857 17-08-2014 10:50:00 17 C 73 % 12.13 C
3858 17-08-2014 10:55:00 17 C 73 % 12.13 C
3859 17-08-2014 11:00:00 17.1 C 73 % 12.23 C
3860 17-08-2014 11:05:00 17.2 C 72 % 12.11 C
3861 17-08-2014 11:10:00 17.3 C 72 % 12.21 C
3862 17-08-2014 11:15:00 17.3 C 72 % 12.21 C
3863 17-08-2014 11:20:00 17.3 C 73 % 12.42 C
3864 17-08-2014 11:25:00 17.4 C 73 % 12.51 C
3865 17-08-2014 11:30:00 17.7 C 70 % 12.16 C
3866 17-08-2014 11:35:00 18 C 72 % 12.88 C
3867 17-08-2014 11:40:00 18.1 C 69 % 12.33 C
3868 17-08-2014 11:45:00 17.9 C 69 % 12.14 C
3869 17-08-2014 11:50:00 17.8 C 68 % 11.82 C
3870 17-08-2014 11:55:00 17.8 C 68 % 11.82 C
3871 17-08-2014 12:00:00 17.8 C 69 % 12.04 C
3872 17-08-2014 12:05:00 17.9 C 68 % 11.91 C
3873 17-08-2014 12:10:00 17.9 C 67 % 11.69 C
3874 17-08-2014 12:15:00 18.2 C 66 % 11.75 C
3875 17-08-2014 12:20:00 18.4 C 64 % 11.47 C
Sensor: Nr:Datum:Temp:Feuchte:Taupunkt:
Aussen-T/F 3876 17-08-2014 12:25